Graceful Lady — 00 — position and weather

sailwx.info

Track history (hours):
 
Tides and Currents Weather Stations Pressure Air Temp Water Temp Dewpoint Dewpoint Depression Visibility Wind Speed Wind Dir Waves Ship Positions

Graceful Lady

Last reported at 2018-Apr-27 01:00 UTC. Time now 2018-Apr-27 01:12 UTC.
Position N 24°26' E 117°52'.

Type: Towing. MMSI: 200009587.

Date/timePositionNaut miles runAvg speedWind from/ knotsBaromVisibWave heightAir tempDewpointWater temp
2018-Apr-27 01:00N 24°26' E 117°52'442795029.6
2018-Apr-27 01:00N 30°52' E 121°54'101409.0
2018-Apr-27 01:00N 30°55' E 122°06'50935929.8
2018-Apr-27 00:59N 22°36' E 120°14'80441944.5
2018-Apr-27 00:58N 35°60' E 120°12'6971521.5
2018-Apr-27 00:30N 24°32' E 118°05'431221624.2
2018-Apr-27 00:30N 30°52' E 121°54'115574.3
2018-Apr-27 00:30N 30°54' E 122°07'44984989.5
2018-Apr-27 00:30N 24°26' E 117°52'70411021.9
2018-Apr-27 00:26N 35°60' E 120°12'7041633.4
2018-Apr-27 00:00N 24°26' E 117°52'442530001.2
2018-Apr-27 00:00N 30°52' E 121°54'50446540.5
2018-Apr-26 23:59N 22°36' E 120°14'1655444.2
2018-Apr-26 23:58N 24°29' E 118°04'1071361512.4
2018-Apr-26 23:47N 26°55' W 080°05'1070538119.3
2018-Apr-26 23:30N 24°26' E 117°52'4428736.7
2018-Apr-26 23:27N 30°52' E 121°54'13754.6
2018-Apr-26 23:26N 30°49' E 122°09'106297652573.5
2018-Apr-26 23:26N 26°55' W 080°05'1070524863.7
2018-Apr-26 23:00N 24°26' E 117°52'44293527.4
2018-Apr-26 23:00N 30°52' E 121°54'141579.1
2018-Apr-26 23:00N 30°48' E 122°10'10630100175.8
2018-Apr-26 22:53N 26°55' W 080°05'1070528151.0
2018-Apr-26 22:30N 24°26' E 117°52'4441598868.6
2018-Apr-26 22:30N 30°47' E 122°10'146523.0
2018-Apr-26 22:30N 30°52' E 121°54'10613159201.2
2018-Apr-26 22:26N 26°55' W 080°05'10265113707.8
2018-Apr-26 22:21N 35°60' E 120°12'7042064.4
2018-Apr-26 22:00N 24°26' E 117°52'443159478.1
2018-Apr-26 22:00N 30°45' E 122°10'152021.0
2018-Apr-26 22:00N 30°52' E 121°54'106131364582.1
2018-Apr-26 21:59N 26°55' W 080°05'10918531125.8
2018-Apr-26 21:58N 22°36' E 120°14'589976659.5
2018-Apr-26 21:53N 49°18' W 122°54'522166180.9
2018-Apr-26 21:49N 35°60' E 120°12'3191039.5
2018-Apr-26 21:30N 30°52' E 121°54'31947904.7
2018-Apr-26 21:30N 35°60' E 120°12'10265169518.5
2018-Apr-26 21:26N 26°55' W 080°05'24307566.6
2018-Apr-26 21:07N 49°18' W 122°58'539948351.7
2018-Apr-26 21:00N 30°52' E 121°54'4428153.8
2018-Apr-26 20:57N 24°26' E 117°52'18291.6
2018-Apr-26 20:53N 24°33' E 118°10'1071612859060.2
2018-Apr-26 20:53N 26°55' W 080°05'1061327687.2
2018-Apr-26 20:30N 30°52' E 121°54'442397505.5
2018-Apr-26 20:30N 24°26' E 117°52'141748.8
2018-Apr-26 20:30N 24°23' E 118°07'44916998.1
2018-Apr-26 20:28N 30°57' E 122°10'538435307.7
2018-Apr-26 20:19N 49°20' W 122°56'589688806.9
2018-Apr-26 20:15N 22°36' E 120°14'804180881.6
2018-Apr-26 20:15N 35°60' E 120°12'8043345.8
2018-Apr-26 20:00N 22°36' E 120°14'5041815049.6
2018-Apr-26 20:00N 30°52' E 121°54'4391580146.3
2018-Apr-26 20:00N 24°21' E 118°10'1730373.1
2018-Apr-26 20:00N 24°26' E 117°52'5915108645.9
2018-Apr-26 19:57N 49°18' W 122°54'522130266.3
2018-Apr-26 19:47N 35°60' E 120°12'3191147.4
2018-Apr-26 19:30N 30°52' E 121°54'442795029.6
2018-Apr-26 19:30N 24°26' E 117°52'191394.7
2018-Apr-26 19:29N 24°18' E 118°10'71014687.8
2018-Apr-26 19:26N 35°60' E 120°12'1026529516.8
2018-Apr-26 19:05N 26°55' W 080°05'10613108238.9
2018-Apr-26 18:59N 30°52' E 121°54'44225238.4
2018-Apr-26 18:58N 24°26' E 117°52'5911124448.1
2018-Apr-26 18:56N 49°18' W 122°58'243065276.5
2018-Apr-26 18:53N 26°55' W 080°05'1026529052.7
2018-Apr-26 18:32N 35°60' E 120°12'70422434.0
2018-Apr-26 18:30N 24°26' E 117°52'44288330.4
2018-Apr-26 18:30N 30°52' E 121°54'0 0.5
2018-Apr-26 18:24N 30°52' E 121°54'106131157826.7
2018-Apr-26 18:23N 26°55' W 080°05'1077734983.0
2018-Apr-26 18:05N 22°59' E 117°58'5187169.2
2018-Apr-26 18:00N 30°52' E 121°54'442317993.2
2018-Apr-26 18:00N 24°26' E 117°52'10705583919.1
2018-Apr-26 17:59N 26°55' W 080°05'1026534059.9
2018-Apr-26 17:41N 35°60' E 120°12'3191680.9
2018-Apr-26 17:30N 30°52' E 121°54'106131232526.3
2018-Apr-26 17:29N 26°55' W 080°05'109182456455.7
2018-Apr-26 17:29N 22°36' E 120°14'17110422.8
2018-Apr-26 17:28N 24°26' E 117°52'70410221.9
2018-Apr-26 17:24N 35°60' E 120°12'3331822.6
2018-Apr-26 17:13N 30°43' E 122°14'5178163.3
2018-Apr-26 17:09N 22°59' E 117°58'8726062.1
2018-Apr-26 17:00N 37°25' E 119°54'406112386.9
2018-Apr-26 17:00N 30°52' E 121°54'10613682290.4
2018-Apr-26 16:59N 26°55' W 080°05'106377658891.6
2018-Apr-26 16:59N 30°44' E 122°14'444133195.8
2018-Apr-26 16:59N 24°26' E 117°52'5911233853.4
2018-Apr-26 16:58N 49°18' W 122°58'598119310.7
2018-Apr-26 16:39N 22°59' E 117°58'1077766890.5
2018-Apr-26 16:29N 26°55' W 080°05'107057707731.8
2018-Apr-26 16:29N 24°26' E 117°52'5911212806.5
2018-Apr-26 16:28N 49°18' W 122°58'59811435430.5
2018-Apr-26 16:27N 22°59' E 117°58'5229299.5
2018-Apr-26 16:24N 30°48' E 122°14'17784.4
2018-Apr-26 16:23N 30°52' E 121°54'0 3.6
2018-Apr-26 16:22N 30°52' E 121°54'0 0.2
2018-Apr-26 16:00N 30°52' E 121°54'518266313.1
2018-Apr-26 16:00N 22°59' E 117°58'8719651.7
2018-Apr-26 16:00N 24°26' E 117°52'5914118950.8
2018-Apr-26 15:57N 49°18' W 122°54'5388116159.1
2018-Apr-26 15:54N 30°51' E 122°14'10631659836.3
2018-Apr-26 15:53N 26°55' W 080°05'1061327627.1
2018-Apr-26 15:30N 30°52' E 121°54'10613682291.3
2018-Apr-26 15:29N 26°55' W 080°05'10705819971.5
2018-Apr-26 15:29N 24°26' E 117°52'820113501.9
2018-Apr-26 15:28N 37°52' E 120°44'4241789.6
2018-Apr-26 15:14N 30°55' E 122°13'4241885.5
2018-Apr-26 15:00N 37°52' E 120°43'42580444.5
2018-Apr-26 15:00N 30°52' E 121°54'10613830614.8
2018-Apr-26 14:59N 26°55' W 080°05'10705575203.9
2018-Apr-26 14:58N 24°26' E 117°52'4554842.1
2018-Apr-26 14:53N 30°57' E 122°13'31910746.7
2018-Apr-26 14:51N 36°02' E 120°18'320942.8
2018-Apr-26 14:30N 30°52' E 121°54'44266247.0
2018-Apr-26 14:30N 24°26' E 117°52'10705172819.1
2018-Apr-26 14:26N 26°55' W 080°05'10621735322.5
2018-Apr-26 14:25N 30°59' E 122°10'43813247.0
2018-Apr-26 14:23N 24°32' E 118°19'69613391.5
2018-Apr-26 14:20N 35°60' E 120°20'318958.3
2018-Apr-26 14:00N 30°52' E 121°54'316113716.4
2018-Apr-26 14:00N 35°58' E 120°22'694131523.8
2018-Apr-26 14:00N 24°32' E 118°19'253930.0
2018-Apr-26 14:00N 24°26' E 117°52'107052569243.9
2018-Apr-26 13:59N 26°55' W 080°05'1072422163.0
2018-Apr-26 13:30N 24°32' E 118°19'42537314.3
2018-Apr-26 13:30N 30°52' E 121°54'442122308.0
2018-Apr-26 13:29N 24°26' E 117°52'107059634664.7
2018-Apr-26 13:29N 26°55' W 080°05'1070522186.9
2018-Apr-26 13:00N 24°26' E 117°52'252054.4
2018-Apr-26 13:00N 24°32' E 118°19'425509962.6
2018-Apr-26 13:00N 30°52' E 121°54'106132388002.3
2018-Apr-26 12:59N 26°55' W 080°05'10275119708.0
2018-Apr-26 12:54N 35°58' E 120°22'316793.0
2018-Apr-26 12:30N 30°52' E 121°54'425169990.7
2018-Apr-26 12:30N 24°32' E 118°19'10724804330.4
2018-Apr-26 12:29N 26°55' W 080°05'107056423109.8
2018-Apr-26 12:29N 24°26' E 117°52'2552.1
2018-Apr-26 12:00N 24°32' E 118°19'425169990.7
2018-Apr-26 12:00N 30°52' E 121°54'442227151.3
2018-Apr-26 12:00N 24°26' E 117°52'10705963467.0
2018-Apr-26 11:59N 26°55' W 080°05'1027570591.2
2018-Apr-26 11:51N 35°58' E 120°22'301902.0
2018-Apr-26 11:31N 31°07' E 121°55'455409777.9
2018-Apr-26 11:31N 24°26' E 117°52'455102446.8
2018-Apr-26 11:30N 31°08' E 121°55'167972.6
2018-Apr-26 11:30N 30°52' E 121°54'10613796001.9
2018-Apr-26 11:29N 26°55' W 080°05'1027552467.8
2018-Apr-26 11:18N 35°58' E 120°22'3161095.5
2018-Apr-26 11:00N 30°52' E 121°54'442265013.0
2018-Apr-26 11:00N 24°26' E 117°52'256456.7
2018-Apr-26 11:00N 24°32' E 118°19'107241072440.6
2018-Apr-26 10:59N 26°55' W 080°05'1027541986.1
2018-Apr-26 10:45N 35°58' E 120°22'7042955.1
2018-Apr-26 10:30N 24°26' E 117°52'44258893.2
2018-Apr-26 10:30N 30°52' E 121°54'106131091663.6
2018-Apr-26 10:29N 26°55' W 080°05'10275107216.7
2018-Apr-26 10:24N 35°58' E 120°22'7041743.8
2018-Apr-26 09:59N 24°26' E 117°52'1070519269329.5
2018-Apr-26 09:59N 26°55' W 080°05'106131819441.0
2018-Apr-26 09:59N 30°52' E 121°54'3163509.8
2018-Apr-26 09:54N 35°58' E 120°22'7041818.9
2018-Apr-26 09:30N 24°26' E 117°52'442106003.9
2018-Apr-26 09:30N 30°52' E 121°54'10613931909.3
2018-Apr-26 09:29N 26°55' W 080°05'1027562907.8
2018-Apr-26 09:20N 35°58' E 120°22'7042176.4
2018-Apr-26 09:00N 24°26' E 117°52'44234564.5
2018-Apr-26 08:59N 30°52' E 121°54'106137641618.1
2018-Apr-26 08:59N 26°55' W 080°05'1027590663.6
2018-Apr-26 08:53N 35°57' E 120°21'7021859.4
2018-Apr-26 08:30N 24°26' E 117°52'10705181786.1
2018-Apr-26 08:26N 26°55' W 080°05'106131123766.8
2018-Apr-26 08:26N 30°52' E 121°54'3122867.7
2018-Apr-26 08:19N 35°54' E 120°17'3121000.2
2018-Apr-26 08:01N 30°52' E 121°54'44253001.4
2018-Apr-26 08:00N 24°26' E 117°52'10705963466.5
2018-Apr-26 07:59N 26°55' W 080°05'10704263923.4
2018-Apr-26 07:57N 24°26' E 117°50'1723461.3
2018-Apr-26 07:54N 22°36' E 120°14'5041288.3
2018-Apr-26 07:30N 30°52' E 121°54'44249767.3
2018-Apr-26 07:30N 24°26' E 117°50'2519.0
2018-Apr-26 07:30N 24°26' E 117°52'1714805.1
2018-Apr-26 07:28N 22°36' E 120°14'1091864012.1
2018-Apr-26 07:17N 26°55' W 080°05'10580170039.9
2018-Apr-26 07:14N 31°04' E 121°28'5003208.7
2018-Apr-26 07:04N 23°24' E 117°49'62858.1
2018-Apr-26 07:00N 24°26' E 117°50'44254915.7
2018-Apr-26 06:59N 30°52' E 121°54'106139552069.9
2018-Apr-26 06:59N 26°55' W 080°05'107491488341.2
2018-Apr-26 06:59N 23°24' E 117°49'26343.4
2018-Apr-26 06:54N 23°46' E 118°05'2151376.3
2018-Apr-26 06:45N 25°13' E 121°41'2 6.3
2018-Apr-26 06:30N 25°14' E 121°42'214384584.2
2018-Apr-26 06:30N 23°49' E 118°06'3946699.6
2018-Apr-26 06:30N 24°26' E 117°52'10705676116.8
2018-Apr-26 06:29N 26°55' W 080°05'10744568796.2
2018-Apr-26 06:28N 23°28' E 117°46'1466656.6
2018-Apr-26 06:27N 22°36' E 120°14'50443220.0
2018-Apr-26 06:26N 30°52' E 121°54'4426319.6
2018-Apr-26 06:22N 24°26' E 117°50'4421208.3
2018-Apr-26 06:00N 30°52' E 121°54'494197738.7
2018-Apr-26 06:00N 23°31' E 117°43'556237.0
2018-Apr-26 05:59N 24°26' E 117°50'2167.9
2018-Apr-26 05:59N 24°26' E 117°52'222159533.2
2018-Apr-26 05:59N 25°09' E 121°51'2178579.2
2018-Apr-26 05:57N 23°55' E 118°08'10743743751.8
2018-Apr-26 05:56N 26°55' W 080°05'1057727083.2
2018-Apr-26 05:33N 31°07' E 121°28'3578577.0
2018-Apr-26 05:30N 25°10' E 121°47'218130700.0
2018-Apr-26 05:30N 24°26' E 117°52'5313639.2
2018-Apr-26 05:30N 23°34' E 117°40'49343271.0
2018-Apr-26 05:29N 30°52' E 121°54'106139552069.9
2018-Apr-26 05:29N 26°55' W 080°05'101471014651.1
2018-Apr-26 05:29N 38°07' E 120°02'4241514.5
2018-Apr-26 05:12N 31°09' E 121°27'4592539.7
2018-Apr-26 05:01N 24°04' E 118°09'272207.9
2018-Apr-26 05:00N 24°26' E 117°52'5025931.9
2018-Apr-26 05:00N 23°37' E 117°37'879351402.6
2018-Apr-26 05:00N 38°06' E 120°07'44379802.9
2018-Apr-26 05:00N 30°52' E 121°54'4534503.4
2018-Apr-26 04:54N 24°05' E 118°10'4604899.0
2018-Apr-26 04:48N 31°11' E 121°28'4552793.5
2018-Apr-26 04:38N 24°10' E 118°10'8426410.1
2018-Apr-26 04:30N 38°06' E 120°12'8433034292.7
2018-Apr-26 04:30N 24°09' E 118°10'2328054.7
2018-Apr-26 04:30N 24°26' E 117°52'4734184.2
2018-Apr-26 04:30N 23°41' E 117°35'48914660.1
2018-Apr-26 04:28N 30°52' E 121°54'50453389.4
2018-Apr-26 04:28N 22°36' E 120°14'520312183.7
2018-Apr-26 04:28N 31°12' E 121°29'45686342.4
2018-Apr-26 04:27N 24°12' E 118°10'2274.8
2018-Apr-26 04:10N 24°32' E 118°19'0 0.0
2018-Apr-26 04:01N 24°32' E 118°19'1832640.9
2018-Apr-26 04:00N 24°16' E 118°10'4431595245.4
2018-Apr-26 04:00N 30°52' E 121°54'440792825.1
2018-Apr-26 04:00N 38°05' E 120°18'41583053.6
2018-Apr-26 04:00N 31°14' E 121°29'45124608.1
2018-Apr-26 03:59N 24°26' E 117°52'442409.5
2018-Apr-26 03:58N 23°45' E 117°35'10721414990.0
2018-Apr-26 03:56N 26°55' W 080°05'1070428972.1
2018-Apr-26 03:34N 24°26' E 117°50'27429.9
2018-Apr-26 03:31N 24°32' E 118°19'1658123.0
2018-Apr-26 03:31N 24°20' E 118°07'4654700.0
2018-Apr-26 03:30N 23°45' E 117°35'4851745907.3
2018-Apr-26 03:30N 30°52' E 121°54'441793961.9
2018-Apr-26 03:30N 24°19' E 118°08'1629007.8
2018-Apr-26 03:30N 24°26' E 117°52'829186496.7
2018-Apr-26 03:30N 38°05' E 120°23'10167892686.4
2018-Apr-26 03:29N 26°55' W 080°05'107043853283.3
2018-Apr-26 03:29N 24°26' E 117°50'4691083.8
2018-Apr-26 03:03N 31°33' E 121°31'46810146.4
2018-Apr-26 03:01N 24°22' E 118°06'831598650.8
2018-Apr-26 03:00N 38°04' E 120°29'438197060.7
2018-Apr-26 03:00N 30°52' E 121°54'425101994.4
2018-Apr-26 03:00N 24°32' E 118°19'254519.7
2018-Apr-26 03:00N 24°26' E 117°52'107052266979.9
2018-Apr-26 02:59N 26°55' W 080°05'1070438532832.9
2018-Apr-26 02:59N 24°26' E 117°50'4692315.3
2018-Apr-26 02:47N 31°34' E 121°29'4681679.9
2018-Apr-26 02:31N 24°22' E 118°06'4655216.3
2018-Apr-26 02:30N 23°45' E 117°35'46164939.6
2018-Apr-26 02:30N 24°25' E 118°00'75363.6
2018-Apr-26 02:30N 24°26' E 117°52'829497304.5
2018-Apr-26 02:30N 38°03' E 120°34'10177718403.3
2018-Apr-26 02:29N 26°55' W 080°05'10613308131.3
2018-Apr-26 02:27N 30°52' E 121°54'440982.5
2018-Apr-26 02:01N 24°22' E 118°06'4682866.6
2018-Apr-26 02:00N 23°45' E 117°35'8713136875.2
2018-Apr-26 02:00N 38°02' E 120°40'829745807.0
2018-Apr-26 02:00N 24°26' E 117°52'4798.8
2018-Apr-26 02:00N 24°24' E 117°55'10710940381.0
2018-Apr-26 01:59N 26°55' W 080°05'10613597004.4
2018-Apr-26 01:58N 30°52' E 121°54'438941.7
2018-Apr-26 01:30N 24°24' E 118°04'8282981542.3
2018-Apr-26 01:30N 38°01' E 120°45'82841424.0
2018-Apr-26 01:29N 24°26' E 117°52'4423732.6
2018-Apr-26 01:22N 30°52' E 121°54'4851340.8
2018-Apr-26 01:00N 23°45' E 117°35'871104541.5
2018-Apr-26 01:00N 38°00' E 120°51'431194085.6
2018-Apr-26 01:00N 30°52' E 121°54'44263599.4
2018-Apr-26 00:59N 24°26' E 117°52'1047.6
2018-Apr-26 00:47N 24°26' E 118°03'48176.9
2018-Apr-26 00:30N 23°45' E 117°35'8713136424.8
2018-Apr-26 00:30N 37°59' E 120°57'82846601.9
2018-Apr-26 00:29N 24°26' E 117°52'10705218969.7
2018-Apr-26 00:26N 26°55' W 080°05'10613707560.7
2018-Apr-26 00:26N 30°52' E 121°54'0 0.0
2018-Apr-26 00:00N 30°52' E 121°54'4261535001.2
2018-Apr-26 00:00N 37°56' E 121°01'82669153.9
2018-Apr-26 00:00N 24°26' E 117°52'431798.6
2018-Apr-25 23:58N 23°46' E 117°35'1072059466.1
2018-Apr-25 23:47N 26°55' W 080°05'1021136004.7
2018-Apr-25 23:30N 37°52' E 121°03'822211490.4
2018-Apr-25 23:30N 24°26' E 117°52'44299374.1
2018-Apr-25 23:30N 30°52' E 121°54'48529585.5
2018-Apr-25 23:29N 23°45' E 117°35'86038714.6
2018-Apr-25 23:28N 37°50' E 120°44'10196509821.2
2018-Apr-25 23:26N 26°55' W 080°05'1021723592.5
2018-Apr-25 23:00N 37°48' E 121°06'819184281.5
2018-Apr-25 23:00N 24°26' E 117°52'432143.5
2018-Apr-25 22:59N 23°46' E 117°35'10720257289.8
2018-Apr-25 22:56N 26°55' W 080°05'1061319104149.2
2018-Apr-25 22:56N 30°52' E 121°54'4841117.2
2018-Apr-25 22:30N 23°47' E 117°35'8573086878.0
2018-Apr-25 22:30N 37°44' E 121°08'414114686.8
2018-Apr-25 22:30N 30°52' E 121°54'442144550.8
2018-Apr-25 22:30N 24°26' E 117°52'10705180087.3
2018-Apr-25 22:26N 26°55' W 080°05'1071824734.4
2018-Apr-25 22:00N 23°48' E 117°35'482192946.3
2018-Apr-25 22:00N 30°52' E 121°54'10613734775.0
2018-Apr-25 21:59N 26°55' W 080°05'10705592902.7
2018-Apr-25 21:58N 24°26' E 117°52'5915120992.1
2018-Apr-25 21:55N 49°18' W 122°54'5403117884.5
2018-Apr-25 21:53N 30°52' E 121°54'0 0.0
2018-Apr-25 21:30N 30°52' E 121°54'442227156.7
2018-Apr-25 21:30N 24°26' E 117°52'411412.6
2018-Apr-25 21:28N 23°48' E 117°35'85415225.9
2018-Apr-25 21:25N 37°43' E 121°07'41326542.2
2018-Apr-25 21:24N 30°52' E 121°54'4421107.3
2018-Apr-25 21:00N 24°26' E 117°52'442106001.5
2018-Apr-25 21:00N 30°52' E 121°54'4821736402.7
2018-Apr-25 21:00N 23°48' E 117°35'85427217.9
2018-Apr-25 20:58N 37°43' E 121°07'509271046.0
2018-Apr-25 20:53N 49°18' W 122°58'539913923.6
2018-Apr-25 20:30N 30°52' E 121°54'44288334.6
2018-Apr-25 20:30N 24°26' E 117°52'412322.5
2018-Apr-25 20:29N 23°48' E 117°35'595731493.0
2018-Apr-25 20:17N 49°18' W 122°58'5092176249.0
2018-Apr-25 20:16N 37°43' E 121°07'4074776.7
2018-Apr-25 20:11N 30°59' E 122°14'4572633.9
2018-Apr-25 20:00N 24°26' E 117°52'415952.6
2018-Apr-25 20:00N 23°48' E 117°35'483144861.6
2018-Apr-25 20:00N 30°52' E 121°54'53992159697.3
2018-Apr-25 19:59N 49°18' W 122°58'537942934.9
2018-Apr-25 19:52N 30°58' E 122°15'409105126.0
2018-Apr-25 19:52N 37°43' E 121°07'8552415.7
2018-Apr-25 19:30N 23°48' E 117°35'5958363509.1
2018-Apr-25 19:29N 49°18' W 122°58'5911608018.1
2018-Apr-25 19:29N 24°26' E 117°52'81441878.5
2018-Apr-25 19:28N 37°43' E 121°07'4138847.6
2018-Apr-25 19:25N 30°52' E 121°54'3092.1
2018-Apr-25 19:05N 31°16' E 121°33'30372.9
2018-Apr-25 19:00N 30°52' E 121°54'442397510.1
2018-Apr-25 19:00N 24°26' E 117°52'414137.7
2018-Apr-25 19:00N 23°48' E 117°35'595756588.4
2018-Apr-25 18:53N 49°18' W 122°58'539571938.2
2018-Apr-25 18:49N 31°16' E 121°33'3883742.7
2018-Apr-25 18:43N 37°43' E 121°07'4132016.8
2018-Apr-25 18:30N 30°52' E 121°54'442265009.9
2018-Apr-25 18:30N 24°26' E 117°52'5911147782.1
2018-Apr-25 18:28N 49°18' W 122°58'509293999.3
2018-Apr-25 18:25N 37°43' E 121°07'388279206.6
2018-Apr-25 18:25N 31°16' E 121°33'3074.7
2018-Apr-25 18:00N 30°52' E 121°54'442530019.7
2018-Apr-25 18:00N 24°26' E 117°52'4611894.8
2018-Apr-25 18:00N 23°43' E 117°35'5967536988.1
2018-Apr-25 17:59N 49°18' W 122°53'5400161994.6
2018-Apr-25 17:57N 31°16' E 121°33'3881577.4
2018-Apr-25 17:43N 37°43' E 121°07'509825035.7
2018-Apr-25 17:31N 49°17' W 122°51'59707164487.0
2018-Apr-25 17:30N 23°40' E 117°35'4901763936.9
2018-Apr-25 17:30N 30°52' E 121°54'44269127.3
2018-Apr-25 17:30N 24°26' E 117°52'8145863.0
2018-Apr-25 17:22N 37°43' E 121°07'4221601.4
2018-Apr-25 17:06N 30°45' E 122°17'4965131.5
2018-Apr-25 17:00N 23°37' E 117°35'492221521.1
2018-Apr-25 17:00N 30°52' E 121°54'44215000.6
2018-Apr-25 16:58N 24°26' E 117°52'8147536.0
2018-Apr-25 16:52N 37°43' E 121°07'42322743.6
2018-Apr-25 16:51N 30°44' E 122°17'539079517.4
2018-Apr-25 16:47N 49°18' W 122°58'5395101163.0
2018-Apr-25 16:43N 31°16' E 121°33'4542100.6
2018-Apr-25 16:30N 24°26' E 117°52'81418554.4
2018-Apr-25 16:28N 37°43' E 121°07'5092179703.9
2018-Apr-25 16:26N 49°18' W 122°58'5399747599.2
2018-Apr-25 16:26N 30°52' E 121°54'4922645.9
2018-Apr-25 16:14N 23°37' E 117°35'50526357.4
2018-Apr-25 16:13N 31°16' E 121°33'5052361.9
2018-Apr-25 16:00N 23°37' E 117°35'492177283.0
2018-Apr-25 16:00N 30°52' E 121°54'442113567.7
2018-Apr-25 16:00N 24°26' E 117°52'45465370.4
2018-Apr-25 16:00N 31°16' E 121°33'3894761.1
2018-Apr-25 15:55N 37°44' E 121°08'509028587.3
2018-Apr-25 15:44N 49°18' W 122°58'539937235.7
2018-Apr-25 15:35N 30°52' E 121°54'4425317.9
2018-Apr-25 15:30N 24°26' E 117°52'5212370.9
2018-Apr-25 15:30N 23°37' E 117°35'49259098.0
2018-Apr-25 15:30N 30°52' E 121°54'41613369.9
2018-Apr-25 15:28N 37°46' E 121°11'39116366.6
2018-Apr-25 15:26N 31°16' E 121°33'539956014.5
2018-Apr-25 15:21N 49°18' W 122°54'511518983.8
2018-Apr-25 15:04N 38°06' E 120°13'87912973.0
2018-Apr-25 15:00N 23°37' E 117°35'50529815.1
2018-Apr-25 14:59N 31°16' E 121°33'45437142.2
2018-Apr-25 14:59N 24°26' E 117°52'82829820.8
2018-Apr-25 14:57N 38°05' E 120°15'4419563.7
2018-Apr-25 14:54N 30°52' E 121°54'4162985.2
2018-Apr-25 14:46N 37°47' E 121°15'8203231.6
2018-Apr-25 14:31N 24°26' E 117°52'44216562.9
2018-Apr-25 14:29N 30°52' E 121°54'49246657.3
2018-Apr-25 14:28N 23°37' E 117°35'87187065.5
2018-Apr-25 14:28N 37°47' E 121°15'46713.7
2018-Apr-25 14:24N 38°04' E 120°22'1016649521.9
2018-Apr-25 14:12N 26°55' W 080°05'10724689426.1
2018-Apr-25 14:11N 24°32' E 118°19'8194808.0
2018-Apr-25 14:00N 38°04' E 120°27'879452208.2
2018-Apr-25 14:00N 23°37' E 117°35'6812956.5
2018-Apr-25 14:00N 24°32' E 118°19'255317.0
2018-Apr-25 14:00N 24°26' E 117°52'44218929.5
2018-Apr-25 13:58N 30°52' E 121°54'41643999.0
2018-Apr-25 13:58N 37°46' E 121°15'10227146678.1
2018-Apr-25 13:54N 26°55' W 080°05'1017726394.5
2018-Apr-25 13:30N 38°03' E 120°33'819420959.6
2018-Apr-25 13:30N 24°32' E 118°19'10724897857.6
2018-Apr-25 13:30N 26°55' W 080°05'107276436213.9
2018-Apr-25 13:29N 23°37' E 117°35'49325329.9
2018-Apr-25 13:28N 30°52' E 121°54'44299382.2
2018-Apr-25 13:28N 24°26' E 117°52'102643.4
2018-Apr-25 13:28N 24°26' E 118°03'817735116.9
2018-Apr-25 13:28N 37°45' E 121°16'3372.7
2018-Apr-25 13:00N 38°02' E 120°40'828993754.6
2018-Apr-25 13:00N 24°26' E 117°52'2530131.5
2018-Apr-25 13:00N 24°32' E 118°19'6822384.3
2018-Apr-25 13:00N 23°37' E 117°35'107271170221.7
2018-Apr-25 13:00N 26°55' W 080°05'10613489849.5
2018-Apr-25 12:58N 30°52' E 121°54'41244921.1
2018-Apr-25 12:58N 37°43' E 121°20'4121709.8
2018-Apr-25 12:43N 30°52' E 121°54'4322016.0
2018-Apr-25 12:30N 38°01' E 120°47'8281490838.4
2018-Apr-25 12:30N 24°26' E 117°52'5246436.6
2018-Apr-25 12:30N 23°37' E 117°35'6827371.4
2018-Apr-25 12:30N 24°32' E 118°19'4251529830.3
2018-Apr-25 12:30N 30°52' E 121°54'106131157821.5
2018-Apr-25 12:30N 26°55' W 080°05'1024177941.6
2018-Apr-25 12:22N 37°39' E 121°25'8652444.9
2018-Apr-25 12:00N 23°37' E 117°35'493886653.2
2018-Apr-25 12:00N 30°52' E 121°54'430774803.1
2018-Apr-25 12:00N 37°59' E 120°53'8281490540.7
2018-Apr-25 12:00N 24°26' E 117°52'2522598.6
2018-Apr-25 12:00N 24°32' E 118°19'80118718.2
2018-Apr-25 11:58N 37°37' E 121°27'10244526857.3
2018-Apr-25 11:57N 26°55' W 080°05'1072424638.1
2018-Apr-25 11:30N 23°39' E 117°34'49160931.1
2018-Apr-25 11:30N 30°52' E 121°54'106132010954.1
2018-Apr-25 11:30N 26°55' W 080°05'107052266981.1
2018-Apr-25 11:29N 24°26' E 117°52'2518078.9
2018-Apr-25 11:29N 24°32' E 118°19'79831209.5
2018-Apr-25 11:28N 37°34' E 121°25'30332.6
2018-Apr-25 11:22N 37°56' E 120°60'1303248.7
2018-Apr-25 11:20N 35°51' E 120°14'7013142.8
2018-Apr-25 11:07N 24°19' E 118°10'4414312.2
2018-Apr-25 11:00N 30°52' E 121°54'489160160.2
2018-Apr-25 11:00N 23°41' E 117°34'4834658.3
2018-Apr-25 11:00N 24°26' E 117°52'252739.2
2018-Apr-25 11:00N 24°32' E 118°19'17976.7
2018-Apr-25 10:59N 24°17' E 118°10'81457433.8
2018-Apr-25 10:58N 37°34' E 121°25'10246147537.7
2018-Apr-25 10:54N 26°55' W 080°05'102112827630.0
2018-Apr-25 10:53N 37°52' E 121°02'1232058.6
2018-Apr-25 10:50N 35°54' E 120°18'6985532.1
2018-Apr-25 10:42N 24°26' E 118°02'4373896.1
2018-Apr-25 10:35N 30°52' E 121°54'0 0.1
2018-Apr-25 10:30N 30°52' E 121°54'437786350.4
2018-Apr-25 10:30N 24°26' E 118°03'8172942921.8
2018-Apr-25 10:30N 37°49' E 121°05'864518437.5
2018-Apr-25 10:30N 23°44' E 117°34'85319947.4
2018-Apr-25 10:28N 37°34' E 121°25'10246542420.6
2018-Apr-25 10:27N 26°55' W 080°05'1072124629.4
2018-Apr-25 10:00N 23°45' E 117°35'485873250.8
2018-Apr-25 10:00N 30°52' E 121°54'437787439.2
2018-Apr-25 10:00N 24°24' E 118°06'1323994.7
2018-Apr-25 10:00N 24°26' E 117°52'81648945.3
2018-Apr-25 09:59N 37°44' E 121°08'17638.7
2018-Apr-25 09:58N 37°34' E 121°25'10246148130.9
2018-Apr-25 09:54N 26°55' W 080°05'10270143858.5
2018-Apr-25 09:49N 36°01' E 120°19'3191016.0
2018-Apr-25 09:30N 30°52' E 121°54'438394616.7
2018-Apr-25 09:30N 24°22' E 118°09'1628696.3
2018-Apr-25 09:30N 24°26' E 117°52'4439346.2
2018-Apr-25 09:30N 23°45' E 117°35'10721173068.1
2018-Apr-25 09:27N 26°55' W 080°05'10246126751.2
2018-Apr-25 09:22N 37°34' E 121°25'4021136.0
2018-Apr-25 09:00N 30°52' E 121°54'439316432.7
2018-Apr-25 09:00N 24°20' E 118°11'4824536.4
2018-Apr-25 09:00N 23°45' E 117°35'446841.9
2018-Apr-25 09:00N 24°26' E 117°52'107052141036.6
2018-Apr-25 09:00N 26°55' W 080°05'10246323549.0
2018-Apr-25 08:58N 37°34' E 121°25'111608.1
2018-Apr-25 08:47N 35°60' E 120°12'3191175.6
2018-Apr-25 08:30N 30°52' E 121°54'442318185.5
2018-Apr-25 08:30N 24°17' E 118°11'711159871.4
2018-Apr-25 08:30N 35°60' E 120°12'704422471.5
2018-Apr-25 08:30N 24°26' E 117°52'446556.9
2018-Apr-25 08:30N 23°45' E 117°35'1072138594170.2
2018-Apr-25 08:30N 26°55' W 080°05'10246326412.2
2018-Apr-25 08:28N 37°34' E 121°25'402885.4
2018-Apr-25 08:00N 30°52' E 121°54'442317989.5
2018-Apr-25 08:00N 24°26' E 117°52'21841.3
2018-Apr-25 07:59N 24°14' E 118°11'442466.8
2018-Apr-25 07:58N 23°45' E 117°35'8521022037.8
2018-Apr-25 07:58N 37°34' E 121°25'1112655.2
2018-Apr-25 07:55N 35°60' E 120°12'10265373276.6
2018-Apr-25 07:54N 26°55' W 080°05'1072127805.6
2018-Apr-25 07:30N 23°45' E 117°35'4851746482.7
2018-Apr-25 07:30N 30°52' E 121°54'442530019.7
2018-Apr-25 07:30N 24°26' E 117°52'2310481.7
2018-Apr-25 07:30N 24°11' E 118°12'10734990853.9
2018-Apr-25 07:30N 26°55' W 080°05'10246326412.2
2018-Apr-25 07:28N 37°34' E 121°25'1764.5
2018-Apr-25 07:12N 37°43' E 121°07'4132155.1
2018-Apr-25 07:00N 30°52' E 121°54'414165453.4
2018-Apr-25 07:00N 37°44' E 121°07'8581544894.6
2018-Apr-25 07:00N 23°45' E 117°35'446561.1
2018-Apr-25 07:00N 24°26' E 117°52'107052408666.2
2018-Apr-25 07:00N 26°55' W 080°05'107351104154.7
2018-Apr-25 06:59N 24°10' E 118°12'82037381.3
2018-Apr-25 06:58N 37°34' E 121°25'111358.5
2018-Apr-25 06:39N 35°60' E 120°12'7475132.2
2018-Apr-25 06:30N 23°45' E 117°35'48587330.8
2018-Apr-25 06:30N 30°52' E 121°54'448322377.9
2018-Apr-25 06:30N 24°10' E 118°12'244082.0
2018-Apr-25 06:30N 24°26' E 117°52'107057707731.8
2018-Apr-25 06:30N 26°55' W 080°05'102231840208.5
2018-Apr-25 06:29N 37°47' E 121°12'17638.0
2018-Apr-25 06:28N 37°34' E 121°25'111531.8
2018-Apr-25 06:15N 35°60' E 120°12'7473038.8
2018-Apr-25 06:00N 23°45' E 117°35'446301.0
2018-Apr-25 06:00N 24°26' E 117°52'247795.5
2018-Apr-25 06:00N 24°10' E 118°12'15736.7
2018-Apr-25 05:59N 24°24' E 118°06'80850137.0
2018-Apr-25 05:58N 37°34' E 121°25'165717.0
2018-Apr-25 05:58N 37°48' E 121°16'10226669337.2
2018-Apr-25 05:57N 26°55' W 080°05'1026553402.3
2018-Apr-25 05:45N 35°60' E 120°12'7473070.0
2018-Apr-25 05:30N 23°45' E 117°35'4210056.1
2018-Apr-25 05:30N 24°10' E 118°12'248577.9
2018-Apr-25 05:30N 24°26' E 117°52'80820938.2
2018-Apr-25 05:28N 37°34' E 121°25'10246148728.1
2018-Apr-25 05:24N 26°55' W 080°05'1072127765.7
2018-Apr-25 05:00N 23°45' E 117°35'4452501.9
2018-Apr-25 05:00N 24°26' E 117°52'247799.4
2018-Apr-25 05:00N 24°10' E 118°12'717215124.7
2018-Apr-25 05:00N 35°60' E 120°12'102651539765.8
2018-Apr-25 05:00N 26°55' W 080°05'10246332293.4
2018-Apr-25 04:58N 37°34' E 121°25'1635.0
2018-Apr-25 04:31N 37°48' E 121°16'8641555328.0
2018-Apr-25 04:30N 23°45' E 117°35'429427.6
2018-Apr-25 04:30N 24°10' E 118°12'107351136634.2
2018-Apr-25 04:30N 26°55' W 080°05'107059634664.7
2018-Apr-25 04:30N 24°26' E 117°52'25324.0
2018-Apr-25 04:25N 24°32' E 118°19'79714950.7
2018-Apr-25 04:22N 37°34' E 121°25'1132.4
2018-Apr-25 04:01N 37°44' E 121°19'861221306.2
2018-Apr-25 04:00N 23°45' E 117°35'4230165.7
2018-Apr-25 04:00N 24°10' E 118°12'249535.8
2018-Apr-25 04:00N 24°26' E 117°52'107051482256.1
2018-Apr-25 04:00N 26°55' W 080°05'107241930393.0
2018-Apr-25 03:59N 24°32' E 118°19'79730537.6
2018-Apr-25 03:58N 37°34' E 121°25'8521874.3
2018-Apr-25 03:30N 23°45' E 117°35'6222285.0
2018-Apr-25 03:30N 24°32' E 118°19'2316620.1
2018-Apr-25 03:30N 24°10' E 118°12'827270520.8
2018-Apr-25 03:30N 37°40' E 121°23'102381602495.7
2018-Apr-25 03:30N 26°55' W 080°05'10246326412.1
2018-Apr-25 03:28N 37°34' E 121°25'80814408.0
2018-Apr-25 03:24N 24°26' E 117°52'8122039.0
2018-Apr-25 03:01N 37°37' E 121°26'812417419.8
2018-Apr-25 03:00N 24°26' E 117°52'2515065.7
2018-Apr-25 03:00N 24°32' E 118°19'235935.7
2018-Apr-25 03:00N 24°10' E 118°12'82021246.9
2018-Apr-25 02:58N 37°34' E 121°25'1024660765.3
2018-Apr-25 02:48N 26°55' W 080°05'1072137470.4
2018-Apr-25 02:30N 23°45' E 117°35'426284.5
2018-Apr-25 02:30N 24°10' E 118°12'247165.3
2018-Apr-25 02:30N 24°26' E 117°52'80822737.8
2018-Apr-25 02:28N 37°34' E 121°25'21413.1
2018-Apr-25 02:28N 37°36' E 121°25'10244154303.6
2018-Apr-25 02:24N 26°55' W 080°05'1026573322.2
2018-Apr-25 02:15N 35°60' E 120°12'3337501.8
2018-Apr-25 02:13N 30°42' E 122°13'3331606.8
2018-Apr-25 02:00N 35°60' E 120°12'7472689347.7
2018-Apr-25 02:00N 23°45' E 117°35'4431507.2
2018-Apr-25 02:00N 24°26' E 117°52'443265934.8
2018-Apr-25 02:00N 30°44' E 122°14'448107579.1
2018-Apr-25 02:00N 24°10' E 118°12'107359661443.3
2018-Apr-25 02:00N 26°55' W 080°05'10246317970.4
2018-Apr-25 01:58N 37°34' E 121°25'21766.3
2018-Apr-25 01:58N 37°36' E 121°25'8541885.4
2018-Apr-25 01:30N 23°45' E 117°35'8521022147.7
2018-Apr-25 01:30N 37°34' E 121°25'8091455300.2
2018-Apr-25 01:30N 24°26' E 117°52'10705875878.6
2018-Apr-25 01:30N 26°55' W 080°05'106341664390.6
2018-Apr-25 01:29N 30°48' E 122°14'41015050.6
2018-Apr-25 01:28N 37°36' E 121°25'1121934.9
2018-Apr-25 01:24N 35°60' E 120°12'7471892.6
2018-Apr-25 01:00N 23°45' E 117°35'493591773.5
2018-Apr-25 01:00N 30°52' E 122°14'10630850438.3
2018-Apr-25 01:00N 26°55' W 080°05'10244682926.7
2018-Apr-25 00:59N 37°34' E 121°23'80947718.3
2018-Apr-25 00:58N 24°26' E 117°52'810364666.2
2018-Apr-25 00:58N 37°36' E 121°25'112536.3
2018-Apr-25 00:45N 35°60' E 120°12'112464.3
2018-Apr-25 00:31N 37°36' E 121°25'854614633.5
2018-Apr-25 00:30N 23°45' E 117°35'4971788055.0
2018-Apr-25 00:30N 30°55' E 122°15'4531632094.9
2018-Apr-25 00:30N 24°26' E 117°52'10705875878.6
2018-Apr-25 00:30N 26°55' W 080°05'10244670509.9
2018-Apr-25 00:29N 37°34' E 121°23'110688.3
2018-Apr-25 00:19N 35°60' E 120°12'112362.0
2018-Apr-25 00:01N 37°36' E 121°25'854768281.3
2018-Apr-25 00:00N 23°45' E 117°35'499898338.1
2018-Apr-25 00:00N 30°59' E 122°13'45668359.0
2018-Apr-25 00:00N 24°26' E 117°52'107051926932.9
2018-Apr-25 00:00N 26°55' W 080°05'10244635828.3
2018-Apr-24 23:59N 37°34' E 121°23'109341.5
2018-Apr-24 23:40N 36°01' E 120°13'111736.1
2018-Apr-24 23:31N 37°36' E 121°25'810324147.8
2018-Apr-24 23:30N 24°26' E 117°52'4411240.3
2018-Apr-24 23:30N 23°45' E 117°35'501600643.8
2018-Apr-24 23:30N 31°02' E 122°10'3945457.0
2018-Apr-24 23:26N 37°34' E 121°23'1074534.8
2018-Apr-24 23:24N 36°02' E 120°15'10266972557.4
2018-Apr-24 23:24N 26°55' W 080°05'1062328286.2
2018-Apr-24 23:01N 30°43' E 121°57'41338157.2
2018-Apr-24 23:01N 37°36' E 121°25'394236368.2
2018-Apr-24 23:00N 31°03' E 122°07'500200012.8
2018-Apr-24 23:00N 23°45' E 117°35'478286995.3
2018-Apr-24 23:00N 30°43' E 121°57'106231233643.7
2018-Apr-24 23:00N 26°55' W 080°05'10244658536.8
2018-Apr-24 22:59N 37°34' E 121°23'80929108.2
2018-Apr-24 22:57N 24°26' E 117°52'70718441.4
2018-Apr-24 22:55N 36°01' E 120°20'108266.7
2018-Apr-24 22:31N 37°36' E 121°25'393282606.5
2018-Apr-24 22:30N 31°04' E 122°03'456547199.5
2018-Apr-24 22:30N 24°26' E 117°52'449829.0
2018-Apr-24 22:30N 23°45' E 117°35'107211543764.3
2018-Apr-24 22:30N 26°55' W 080°05'10244658536.8
2018-Apr-24 22:29N 37°34' E 121°23'1091370.0
2018-Apr-24 22:24N 35°57' E 120°21'303774.3
2018-Apr-24 22:01N 31°06' E 121°59'499138168.9
2018-Apr-24 22:00N 23°45' E 117°35'107211043085.7
2018-Apr-24 22:00N 26°55' W 080°05'10244646983.2
2018-Apr-24 21:59N 37°34' E 121°23'1131303.1
2018-Apr-24 21:54N 35°54' E 120°18'115299.6
2018-Apr-24 21:31N 37°36' E 121°25'8541536499.3
2018-Apr-24 21:30N 23°45' E 117°35'499138125.8
2018-Apr-24 21:30N 31°07' E 121°56'29718436.0
2018-Apr-24 21:29N 35°52' E 120°15'11613064.2
2018-Apr-24 21:29N 37°34' E 121°23'1024455455.7
2018-Apr-24 21:18N 26°55' W 080°05'1024435804.4
2018-Apr-24 21:01N 37°36' E 121°25'8541536499.3
2018-Apr-24 21:00N 23°45' E 117°35'499598974.2
2018-Apr-24 21:00N 31°09' E 121°53'38613622.8
2018-Apr-24 20:59N 37°34' E 121°23'10244302279.0
2018-Apr-24 20:57N 26°55' W 080°05'1024423459.6
2018-Apr-24 20:30N 37°36' E 121°25'8541536488.8
2018-Apr-24 20:30N 23°45' E 117°35'10721839003.3
2018-Apr-24 20:30N 26°55' W 080°05'105937626659.2
2018-Apr-24 20:30N 31°12' E 121°49'3835916.9
2018-Apr-24 20:26N 37°34' E 121°23'2 4.9
2018-Apr-24 20:00N 37°36' E 121°25'8543073061.9
2018-Apr-24 20:00N 23°45' E 117°35'502150588.0
2018-Apr-24 20:00N 31°15' E 121°46'38014537.3
2018-Apr-24 19:59N 37°34' E 121°23'2 4.4
2018-Apr-24 19:30N 37°36' E 121°25'270.3
2018-Apr-24 19:29N 37°34' E 121°23'8521808.1
2018-Apr-24 19:00N 23°45' E 117°35'85230063.7
2018-Apr-24 18:59N 37°34' E 121°23'3711203.7
2018-Apr-24 18:40N 31°23' E 121°35'5053096.0
2018-Apr-24 18:30N 23°45' E 117°35'8543073146.3
2018-Apr-24 18:30N 37°36' E 121°25'37244651.1
2018-Apr-24 18:30N 31°24' E 121°33'105682377863.2
2018-Apr-24 18:30N 26°55' W 080°05'10705433018.6
2018-Apr-24 18:28N 24°26' E 117°52'8098874.4
2018-Apr-24 18:23N 37°34' E 121°23'2 5.5
2018-Apr-24 18:00N 37°36' E 121°25'810583466.0
2018-Apr-24 18:00N 24°26' E 117°52'10705939967.3
2018-Apr-24 18:00N 26°55' W 080°05'107219648579.3
2018-Apr-24 18:00N 23°45' E 117°35'85260130.3
2018-Apr-24 17:59N 37°34' E 121°23'8521803.9
2018-Apr-24 17:30N 23°45' E 117°35'4439378.9
2018-Apr-24 17:30N 24°26' E 117°52'10705963466.5
2018-Apr-24 17:30N 26°55' W 080°05'10244635828.7
2018-Apr-24 17:29N 37°34' E 121°23'379807.8
2018-Apr-24 17:01N 31°15' E 121°33'497223700.1
2018-Apr-24 17:00N 23°45' E 117°35'854768307.5
2018-Apr-24 17:00N 37°36' E 121°25'810132605.9
2018-Apr-24 17:00N 24°26' E 117°52'80938300.2
2018-Apr-24 16:59N 37°34' E 121°23'379136419.7
2018-Apr-24 16:59N 31°15' E 121°32'4501079.8
2018-Apr-24 16:34N 24°26' E 118°03'80915087.0
2018-Apr-24 16:30N 37°36' E 121°25'10244921963.9
2018-Apr-24 16:30N 26°55' W 080°05'10705727144.5
2018-Apr-24 16:29N 24°26' E 117°52'809363852.3
2018-Apr-24 16:29N 37°34' E 121°23'852613333.6
2018-Apr-24 16:29N 23°45' E 117°35'49441378.1
2018-Apr-24 16:28N 31°13' E 121°30'4471647.5
2018-Apr-24 16:12N 24°26' E 118°02'8084311.2
2018-Apr-24 16:00N 37°36' E 121°25'809181919.9
2018-Apr-24 16:00N 24°26' E 118°03'48172562.3
2018-Apr-24 16:00N 23°45' E 117°35'107211608107.4
2018-Apr-24 16:00N 26°55' W 080°05'10244625051.6
2018-Apr-24 15:59N 37°34' E 121°23'809223909.1
2018-Apr-24 15:59N 24°26' E 117°52'4478203.9
2018-Apr-24 15:55N 31°10' E 121°28'4901187.2
2018-Apr-24 15:30N 23°45' E 117°35'487447.6
2018-Apr-24 15:30N 24°27' E 118°00'72208.7
2018-Apr-24 15:30N 24°26' E 117°52'107054282073.2
2018-Apr-24 15:30N 26°55' W 080°05'10244604558.1
2018-Apr-24 15:29N 37°34' E 121°23'211.9
2018-Apr-24 15:18N 37°36' E 121°25'7997777.1
2018-Apr-24 15:12N 24°32' E 118°19'1785.5
2018-Apr-24 15:00N 24°26' E 118°02'1715084.8
2018-Apr-24 15:00N 24°32' E 118°19'7992877497.4
2018-Apr-24 15:00N 37°36' E 121°25'854122929.2
2018-Apr-24 15:00N 23°45' E 117°35'107212756755.5
2018-Apr-24 15:00N 26°55' W 080°05'10244614634.0
2018-Apr-24 14:59N 37°34' E 121°23'8092910818.7
2018-Apr-24 14:59N 24°26' E 117°52'1124.1
2018-Apr-24 14:30N 24°25' E 118°04'1526654.9
2018-Apr-24 14:30N 24°32' E 118°19'2545194.5
2018-Apr-24 14:30N 24°26' E 117°52'444501.0
2018-Apr-24 14:30N 23°45' E 117°35'107219648640.3
2018-Apr-24 14:30N 26°55' W 080°05'10244154949.8
2018-Apr-24 14:26N 37°34' E 121°23'8522021.5
2018-Apr-24 14:00N 23°45' E 117°35'48173578.5
2018-Apr-24 14:00N 24°23' E 118°07'810416642.5
2018-Apr-24 14:00N 37°36' E 121°25'799411071.1
2018-Apr-24 14:00N 24°32' E 118°19'2545197.2
2018-Apr-24 14:00N 24°26' E 117°52'80910942.8
2018-Apr-24 13:56N 37°34' E 121°23'10244307317.2
2018-Apr-24 13:54N 26°55' W 080°05'1072127626.7
2018-Apr-24 13:30N 23°45' E 117°35'6274246.3
2018-Apr-24 13:30N 24°32' E 118°19'145066.7
2018-Apr-24 13:30N 24°21' E 118°09'107241331310.5
2018-Apr-24 13:30N 26°55' W 080°05'107051675593.9
2018-Apr-24 13:29N 24°26' E 117°52'81024515.4
2018-Apr-24 13:27N 37°36' E 121°25'211.6
2018-Apr-24 13:17N 37°34' E 121°23'8092985.4
2018-Apr-24 13:01N 24°26' E 117°52'4452528.8
2018-Apr-24 13:00N 23°45' E 117°35'47168718.4
2018-Apr-24 13:00N 24°19' E 118°11'1518560.7
2018-Apr-24 13:00N 24°32' E 118°19'799719379.7
2018-Apr-24 13:00N 37°36' E 121°25'276.3
2018-Apr-24 12:59N 37°34' E 121°23'10244123338.0
2018-Apr-24 12:54N 26°55' W 080°05'1072727624.4
2018-Apr-24 12:30N 24°19' E 118°10'4718640.5
2018-Apr-24 12:30N 23°45' E 117°35'107211169531.8
2018-Apr-24 12:30N 26°55' W 080°05'107241286929.9
2018-Apr-24 12:29N 24°32' E 118°19'253930.0
2018-Apr-24 12:29N 24°26' E 117°52'8106511.9
2018-Apr-24 12:21N 37°36' E 121°25'276.3
2018-Apr-24 12:20N 37°34' E 121°23'8122519.3
2018-Apr-24 12:00N 24°19' E 118°10'1833037.4
2018-Apr-24 12:00N 24°26' E 117°52'4426252.6
2018-Apr-24 12:00N 23°45' E 117°35'6255680.6
2018-Apr-24 12:00N 24°32' E 118°19'107241378853.4
2018-Apr-24 12:00N 26°55' W 080°05'10244614635.0
2018-Apr-24 11:59N 37°34' E 121°23'289.3
2018-Apr-24 11:57N 37°36' E 121°25'8541902.9
2018-Apr-24 11:30N 23°45' E 117°35'47167948.7
2018-Apr-24 11:30N 24°19' E 118°10'814325698.9
2018-Apr-24 11:30N 37°36' E 121°25'799719374.4
2018-Apr-24 11:30N 24°32' E 118°19'252915.9
2018-Apr-24 11:30N 24°26' E 117°52'80951065.5
2018-Apr-24 11:29N 37°34' E 121°23'1024443902.3
2018-Apr-24 11:15N 26°55' W 080°05'1072144981.7
2018-Apr-24 11:00N 23°45' E 117°35'852306645.9
2018-Apr-24 11:00N 37°34' E 121°23'81248743.1
2018-Apr-24 10:59N 24°19' E 118°10'184399.7
2018-Apr-24 10:59N 24°26' E 117°52'81028601.3
2018-Apr-24 10:57N 37°36' E 121°25'102441084663.9
2018-Apr-24 10:57N 26°55' W 080°05'107241754903.6
2018-Apr-24 10:56N 24°32' E 118°19'7981846.9
2018-Apr-24 10:30N 37°34' E 121°24'8521533728.8
2018-Apr-24 10:30N 23°45' E 117°35'46165100.5
2018-Apr-24 10:30N 24°17' E 118°11'205083.8
2018-Apr-24 10:30N 24°26' E 117°52'8108194.7
2018-Apr-24 10:24N 37°36' E 121°25'1024494560.4
2018-Apr-24 10:18N 26°55' W 080°05'1070536914.4
2018-Apr-24 10:00N 24°26' E 117°52'810583466.0
2018-Apr-24 10:00N 37°36' E 121°25'818736320.1
2018-Apr-24 10:00N 24°15' E 118°11'4422774.4
2018-Apr-24 10:00N 23°45' E 117°35'107212144121.5
2018-Apr-24 10:00N 26°55' W 080°05'10244945575.7
2018-Apr-24 09:59N 37°37' E 121°26'2 3.9
2018-Apr-24 09:30N 37°36' E 121°25'53637.2
2018-Apr-24 09:30N 37°41' E 121°24'815488936.5
2018-Apr-24 09:30N 24°26' E 117°52'446291.3
2018-Apr-24 09:30N 23°45' E 117°35'10721107207.2
2018-Apr-24 09:24N 26°55' W 080°05'1023226293.1
2018-Apr-24 09:00N 37°44' E 121°20'94761.9
2018-Apr-24 09:00N 37°36' E 121°25'8541024262.1
2018-Apr-24 09:00N 23°45' E 117°35'442419.7
2018-Apr-24 08:59N 24°26' E 117°52'10705265783.9
2018-Apr-24 08:57N 26°55' W 080°05'1073363761.5
2018-Apr-24 08:47N 24°11' E 118°11'42154.3
2018-Apr-24 08:30N 23°45' E 117°35'4148943.2
2018-Apr-24 08:30N 24°10' E 118°10'833499786.1
2018-Apr-24 08:30N 37°48' E 121°16'102261269468.3
2018-Apr-24 08:30N 26°55' W 080°05'107056423109.8
2018-Apr-24 08:30N 24°26' E 117°52'81143575.4
2018-Apr-24 08:29N 37°36' E 121°26'8261748.3
2018-Apr-24 08:00N 24°07' E 118°10'3917462.8
2018-Apr-24 08:00N 23°45' E 117°35'107212031296.1
2018-Apr-24 08:00N 26°55' W 080°05'102404607904.7
2018-Apr-24 08:00N 37°39' E 121°24'814108525.7
2018-Apr-24 07:59N 24°26' E 117°52'8218278.5
2018-Apr-24 07:53N 37°48' E 121°16'8642270.7
2018-Apr-24 07:30N 23°45' E 117°35'10721989605.8
2018-Apr-24 07:30N 26°55' W 080°05'107057707731.8
2018-Apr-24 07:30N 24°26' E 117°52'81794830.5
2018-Apr-24 07:29N 37°43' E 121°21'8365040.5
2018-Apr-24 07:19N 24°03' E 118°09'8403614.4
2018-Apr-24 07:05N 37°48' E 121°16'86410727.0
2018-Apr-24 07:00N 23°45' E 117°35'4431460.8
2018-Apr-24 07:00N 24°26' E 117°52'107051133490.0
2018-Apr-24 07:00N 26°55' W 080°05'1073919330398.9
2018-Apr-24 07:00N 24°01' E 118°09'842101073.4
2018-Apr-24 06:59N 37°48' E 121°16'0 0.4
2018-Apr-24 06:31N 37°48' E 121°16'864777848.0
2018-Apr-24 06:30N 23°45' E 117°35'446554.3
2018-Apr-24 06:30N 24°26' E 117°52'314022.5
2018-Apr-24 06:30N 23°58' E 118°08'10741111431.4
2018-Apr-24 06:24N 26°55' W 080°05'1070527410.1
2018-Apr-24 06:00N 24°26' E 117°52'4410486.9
2018-Apr-24 06:00N 23°45' E 117°35'864518483.6
2018-Apr-24 06:00N 37°49' E 121°12'848436269.4
2018-Apr-24 06:00N 23°56' E 118°08'107429668227.2
2018-Apr-24 06:00N 26°55' W 080°05'1021124105.5
2018-Apr-24 05:34N 37°55' E 121°06'456.0
2018-Apr-24 05:30N 37°51' E 121°07'8531534765.2
2018-Apr-24 05:30N 23°53' E 118°07'368607.4
2018-Apr-24 05:30N 24°26' E 117°52'8275070.1
2018-Apr-24 05:20N 37°56' E 121°04'10208235580.7
2018-Apr-24 05:18N 26°55' W 080°05'1020935371.3
2018-Apr-24 05:01N 37°55' E 121°03'10209967125.8
2018-Apr-24 05:00N 26°55' W 080°05'107054282073.2
2018-Apr-24 05:00N 24°26' E 117°52'4426217.3
2018-Apr-24 05:00N 23°45' E 117°35'291233.6
2018-Apr-24 04:58N 23°50' E 118°06'8613742.3
2018-Apr-24 04:44N 37°58' E 120°58'1 2.5
2018-Apr-24 04:30N 37°57' E 120°58'33035.0
2018-Apr-24 04:30N 37°59' E 120°55'828212804.9
2018-Apr-24 04:30N 24°26' E 117°52'4426217.3
2018-Apr-24 04:30N 23°45' E 117°35'284861.8
2018-Apr-24 04:30N 23°49' E 118°06'10746219797.3
2018-Apr-24 04:27N 26°55' W 080°05'1072451614.8
2018-Apr-24 04:14N 24°32' E 118°19'0 0.0
2018-Apr-24 04:01N 24°32' E 118°19'8172940804.2
2018-Apr-24 04:01N 37°59' E 120°52'21712.4
2018-Apr-24 04:00N 37°60' E 120°49'871348296.4
2018-Apr-24 04:00N 23°45' E 117°35'2850947.0
2018-Apr-24 04:00N 23°49' E 118°06'3970353.0
2018-Apr-24 04:00N 24°26' E 117°52'10705100886.5
2018-Apr-24 03:54N 26°55' W 080°05'1019026220.6
2018-Apr-24 03:31N 37°60' E 120°46'870783180.0
2018-Apr-24 03:30N 23°45' E 117°35'8711044950.4
2018-Apr-24 03:30N 38°01' E 120°43'863282304.4
2018-Apr-24 03:30N 23°49' E 118°06'4514736.7
2018-Apr-24 03:30N 24°32' E 118°19'107244289762.2
2018-Apr-24 03:30N 26°55' W 080°05'107053853865.9
2018-Apr-24 03:30N 24°26' E 117°52'4489.7
2018-Apr-24 03:00N 23°45' E 117°35'2825474.2
2018-Apr-24 03:00N 23°49' E 118°06'3970363.3
2018-Apr-24 03:00N 24°26' E 117°52'2545197.2
2018-Apr-24 03:00N 24°32' E 118°19'817294280.2
2018-Apr-24 03:00N 38°01' E 120°39'101831929467.9
2018-Apr-24 03:00N 26°55' W 080°05'101801357389.6
2018-Apr-24 02:59N 38°02' E 120°37'3 5.6
2018-Apr-24 02:31N 38°02' E 120°33'8701044064.2
2018-Apr-24 02:30N 23°45' E 117°35'8711567529.3
2018-Apr-24 02:30N 38°03' E 120°31'8631553330.6
2018-Apr-24 02:30N 23°49' E 118°06'39140747.0
2018-Apr-24 02:30N 24°26' E 117°52'8863190390.3
2018-Apr-24 02:30N 38°52' E 121°32'9291865.0
2018-Apr-24 02:00N 23°45' E 117°35'2833966.6
2018-Apr-24 02:00N 23°49' E 118°06'3970373.5
2018-Apr-24 02:00N 24°26' E 117°52'827248215.2
2018-Apr-24 02:00N 38°03' E 120°27'283.2
2018-Apr-24 01:58N 38°04' E 120°25'3 5.5
2018-Apr-24 01:30N 38°04' E 120°22'870241030.8
2018-Apr-24 01:30N 23°45' E 117°35'2825475.0
2018-Apr-24 01:30N 23°49' E 118°06'396702.2
2018-Apr-24 01:30N 24°26' E 117°52'4732735.8
2018-Apr-24 01:19N 31°60' E 120°22'3661699.7
2018-Apr-24 01:06N 38°06' E 120°15'220.0
2018-Apr-24 01:01N 38°04' E 120°16'870783230.8
2018-Apr-24 01:00N 23°45' E 117°35'4439346.2
2018-Apr-24 01:00N 24°26' E 117°52'393804.0
2018-Apr-24 01:00N 23°49' E 118°06'50741500.7
2018-Apr-24 00:59N 32°01' E 120°24'3658374.6
2018-Apr-24 00:56N 38°06' E 120°13'3 5.8
2018-Apr-24 00:31N 38°05' E 120°10'8701044338.0
2018-Apr-24 00:30N 23°45' E 117°35'4439363.8
2018-Apr-24 00:30N 24°26' E 117°52'47681667.9
2018-Apr-24 00:30N 32°02' E 120°28'50938177.9
2018-Apr-24 00:29N 23°49' E 118°06'8657573.7
2018-Apr-24 00:22N 38°07' E 120°07'2 5.5
2018-Apr-24 00:00N 38°05' E 120°07'870284676.2
2018-Apr-24 00:00N 23°45' E 117°35'4426185.4
2018-Apr-24 00:00N 24°26' E 117°52'47711442.2
2018-Apr-23 23:58N 32°02' E 120°32'5095252.8
2018-Apr-23 23:52N 23°49' E 118°06'213596.2
2018-Apr-23 23:30N 25°13' E 121°41'213255862.3
2018-Apr-23 23:30N 24°26' E 117°52'4325899.0
2018-Apr-23 23:30N 23°46' E 117°35'2851192.3
2018-Apr-23 23:30N 23°49' E 118°06'863207227.6
2018-Apr-23 23:30N 38°06' E 120°04'84428136.9
2018-Apr-23 23:28N 24°08' E 118°10'8441830.3
2018-Apr-23 23:01N 38°07' E 119°58'828426012.4
2018-Apr-23 23:00N 24°26' E 117°52'4124472.6
2018-Apr-23 23:00N 23°48' E 117°35'415843.2
2018-Apr-23 23:00N 24°12' E 118°11'20427246.5
2018-Apr-23 22:59N 25°13' E 121°45'2185573.4
2018-Apr-23 22:57N 23°47' E 118°05'3169.8
2018-Apr-23 22:30N 24°17' E 118°10'4339048.8
2018-Apr-23 22:30N 23°48' E 117°35'24738661.7
2018-Apr-23 22:30N 25°12' E 121°50'221795562.8
2018-Apr-23 22:30N 24°26' E 117°52'4563105.4
2018-Apr-23 22:21N 31°09' E 121°54'4971446.6
2018-Apr-23 22:00N 23°48' E 117°35'4532680.8
2018-Apr-23 22:00N 24°21' E 118°09'21227198.5
2018-Apr-23 22:00N 25°12' E 121°55'225405657.1
2018-Apr-23 22:00N 24°26' E 117°52'6982518.2
2018-Apr-23 21:43N 35°53' E 120°16'7383469.0
2018-Apr-23 21:30N 23°48' E 117°35'4627539.4
2018-Apr-23 21:30N 24°24' E 118°06'13900.6
2018-Apr-23 21:30N 24°26' E 117°52'7022508.6
2018-Apr-23 21:13N 35°56' E 120°20'7515864.1
2018-Apr-23 21:05N 23°35' E 118°03'29371.1
2018-Apr-23 21:00N 23°47' E 117°35'4633246.2
2018-Apr-23 21:00N 24°26' E 118°02'91152.2
2018-Apr-23 21:00N 24°26' E 117°52'70416889.9
2018-Apr-23 20:57N 35°58' E 120°21'7562644.6
2018-Apr-23 20:40N 23°32' E 118°02'29180.3
2018-Apr-23 20:30N 23°47' E 117°35'4554144.1
2018-Apr-23 20:30N 24°27' E 117°58'5373.7
2018-Apr-23 20:30N 24°26' E 117°52'70717918.1
2018-Apr-23 20:27N 36°01' E 120°18'3142768.8
2018-Apr-23 20:20N 31°01' E 122°07'4971481.6
2018-Apr-23 20:00N 23°47' E 117°35'423500.8
2018-Apr-23 20:00N 24°26' E 117°52'5913174468.1
2018-Apr-23 19:58N 49°18' W 122°57'5211605156.3
2018-Apr-23 19:57N 36°06' E 120°15'3213888.1
2018-Apr-23 19:52N 30°59' E 122°10'38266.6
2018-Apr-23 19:44N 31°12' E 121°29'1057550025.4
2018-Apr-23 19:31N 26°55' W 080°05'107191429168.8
2018-Apr-23 19:30N 23°47' E 117°35'422787.7
2018-Apr-23 19:30N 24°26' E 117°52'107054817321.8
2018-Apr-23 19:29N 26°55' W 080°05'10575115014.0
2018-Apr-23 19:24N 31°13' E 121°30'540036539.2
2018-Apr-23 19:15N 49°18' W 122°58'539921911.0
2018-Apr-23 19:00N 31°15' E 121°30'494197524.4
2018-Apr-23 19:00N 23°47' E 117°35'422747.6
2018-Apr-23 18:59N 24°26' E 117°52'5911163695.7
2018-Apr-23 18:57N 49°18' W 122°58'596013452.8
2018-Apr-23 18:30N 23°45' E 117°35'4411432.7
2018-Apr-23 18:30N 24°26' E 117°52'5909303895.5
2018-Apr-23 18:29N 49°18' W 123°01'5903303563.1
2018-Apr-23 18:28N 24°27' E 117°60'3 7.0
2018-Apr-23 18:00N 24°26' E 118°03'5237145.5
2018-Apr-23 18:00N 23°41' E 117°35'4734182.9
2018-Apr-23 18:00N 24°26' E 117°52'1326.7
2018-Apr-23 17:31N 24°24' E 118°06'557870.1
2018-Apr-23 17:30N 23°38' E 117°35'51308.6
2018-Apr-23 17:20N 24°26' E 117°52'1648.7
2018-Apr-23 17:01N 24°22' E 118°09'5415050.9
2018-Apr-23 17:00N 23°37' E 117°35'5130893.6
2018-Apr-23 17:00N 24°26' E 117°52'51103.8
2018-Apr-23 16:30N 23°37' E 117°35'5312806.8
2018-Apr-23 16:30N 24°19' E 118°11'191800.7
2018-Apr-23 16:30N 24°26' E 117°52'51105.9
2018-Apr-23 16:00N 23°37' E 117°35'51183312.3
2018-Apr-23 16:00N 24°16' E 118°11'206577.6
2018-Apr-23 16:00N 24°26' E 117°52'51103.6
2018-Apr-23 15:30N 23°37' E 117°35'4834911.6
2018-Apr-23 15:30N 24°13' E 118°11'228765.6
2018-Apr-23 15:30N 24°26' E 117°52'2558.1
2018-Apr-23 15:04N 24°32' E 118°19'0 0.0
2018-Apr-23 15:00N 24°32' E 118°19'252582.7
2018-Apr-23 15:00N 24°26' E 117°52'470141078.6
2018-Apr-23 15:00N 31°44' E 121°08'266578.4
2018-Apr-23 14:32N 36°06' E 120°15'70126013.4
2018-Apr-23 14:30N 24°32' E 118°19'252443.1
2018-Apr-23 14:30N 24°26' E 117°52'46912994.1
2018-Apr-23 14:28N 31°42' E 121°10'268935.3
2018-Apr-23 14:10N 36°06' E 120°15'7624548.4
2018-Apr-23 14:00N 23°37' E 117°35'520468210.5
2018-Apr-23 14:00N 31°40' E 121°12'455545414.4
2018-Apr-23 14:00N 24°32' E 118°19'2515065.7
2018-Apr-23 14:00N 24°26' E 117°52'7112084.1
2018-Apr-23 13:40N 36°06' E 120°15'7014546.9
2018-Apr-23 13:31N 24°32' E 118°19'6818905.2
2018-Apr-23 13:30N 23°37' E 117°35'51917809.6
2018-Apr-23 13:29N 31°39' E 121°14'46818722.6
2018-Apr-23 13:27N 24°26' E 117°52'7112948.7
2018-Apr-23 13:13N 36°06' E 120°15'7013476.2
2018-Apr-23 13:00N 24°32' E 118°19'68245750.6
2018-Apr-23 13:00N 23°37' E 117°35'519373366.2
2018-Apr-23 13:00N 31°37' E 121°16'467168193.4
2018-Apr-23 13:00N 24°26' E 117°52'51103.8
2018-Apr-23 12:30N 23°37' E 117°35'517465572.8
2018-Apr-23 12:30N 31°35' E 121°18'451541548.6
2018-Apr-23 12:30N 24°32' E 118°19'253615.6
2018-Apr-23 12:30N 24°26' E 117°52'2551.2
2018-Apr-23 12:01N 24°32' E 118°19'450231387.9
2018-Apr-23 12:00N 31°33' E 121°21'46557686.3
2018-Apr-23 12:00N 24°26' E 117°52'526871.3
2018-Apr-23 11:59N 23°37' E 117°35'5076065.4
2018-Apr-23 11:54N 31°09' E 121°53'2 5.5
2018-Apr-23 11:30N 31°08' E 121°55'3531653.7
2018-Apr-23 11:30N 31°31' E 121°24'449539273.2
2018-Apr-23 11:30N 24°32' E 118°19'25547.8
2018-Apr-23 11:28N 24°26' E 117°52'512470.7
2018-Apr-23 11:26N 23°37' E 117°35'0 0.0
2018-Apr-23 11:00N 23°37' E 117°35'515308925.9
2018-Apr-23 11:00N 31°29' E 121°27'449538294.5
2018-Apr-23 11:00N 24°32' E 118°19'25844.8
2018-Apr-23 10:59N 24°26' E 117°52'7112376.5
2018-Apr-23 10:41N 36°06' E 120°15'7584495.5
2018-Apr-23 10:30N 23°41' E 117°35'481789.0
2018-Apr-23 10:29N 24°26' E 117°52'7104571.9
2018-Apr-23 10:20N 36°05' E 120°16'7532346.0
2018-Apr-23 10:00N 23°45' E 117°35'4431388.2
2018-Apr-23 10:00N 24°26' E 117°52'4387.5
2018-Apr-23 09:30N 23°46' E 117°35'432081.8
2018-Apr-23 09:29N 24°26' E 117°52'0 0.0
2018-Apr-23 08:59N 24°26' E 117°52'432439.6
2018-Apr-23 08:58N 23°46' E 117°35'0 0.0
2018-Apr-23 08:30N 23°46' E 117°35'432138.8
2018-Apr-23 08:29N 24°26' E 117°52'0 0.0
2018-Apr-23 08:01N 24°26' E 117°52'4326019.2
2018-Apr-23 08:00N 23°46' E 117°35'7472064.6
2018-Apr-23 07:39N 35°60' E 120°12'7475419.7
2018-Apr-23 07:30N 23°46' E 117°35'431346.0
2018-Apr-23 07:29N 24°26' E 117°52'7043906.3
2018-Apr-23 07:18N 35°60' E 120°12'7472548.1
2018-Apr-23 07:00N 23°46' E 117°35'747103392.1
2018-Apr-23 07:00N 35°60' E 120°12'704126759.0
2018-Apr-23 06:59N 24°26' E 117°52'466098.1
2018-Apr-23 06:59N 23°43' E 117°35'5021161.7
2018-Apr-23 06:33N 31°09' E 121°53'50010396.2
2018-Apr-23 06:30N 23°46' E 117°35'50024977.8
2018-Apr-23 06:29N 31°09' E 121°53'45674675.6
2018-Apr-23 06:29N 24°26' E 117°52'7048623.1
2018-Apr-23 06:24N 35°60' E 120°12'305787.0
2018-Apr-23 06:00N 31°08' E 121°56'499199698.9
2018-Apr-23 06:00N 23°46' E 117°35'4339033.8
2018-Apr-23 06:00N 24°26' E 117°52'7042726.0
2018-Apr-23 05:45N 35°60' E 120°12'7473140.4
2018-Apr-23 05:30N 23°46' E 117°35'499898272.2
2018-Apr-23 05:30N 31°06' E 121°59'4561641187.1
2018-Apr-23 05:30N 24°26' E 117°52'70458957.7
2018-Apr-23 05:30N 35°60' E 120°12'309627.2
2018-Apr-23 05:00N 31°05' E 122°02'45624142.7
2018-Apr-23 04:59N 24°26' E 117°52'70417852.9
2018-Apr-23 04:57N 35°60' E 120°12'74779062.5
2018-Apr-23 04:56N 23°46' E 117°35'4399.8
2018-Apr-23 04:30N 24°26' E 117°52'4312010.4
2018-Apr-23 04:30N 23°46' E 117°35'7474914.3
2018-Apr-23 04:21N 35°60' E 120°12'6949577.0
2018-Apr-23 04:16N 24°32' E 118°19'4408803.2
2018-Apr-23 04:13N 31°04' E 122°06'4402028.9
2018-Apr-23 04:00N 24°32' E 118°19'440226471.0
2018-Apr-23 04:00N 31°03' E 122°08'457182900.1
2018-Apr-23 04:00N 24°26' E 117°52'436246.2
2018-Apr-23 04:00N 23°46' E 117°35'7472993.5
2018-Apr-23 03:45N 35°60' E 120°12'7473155.4
2018-Apr-23 03:30N 23°46' E 117°35'4331265.2
2018-Apr-23 03:30N 24°26' E 117°52'253930.2
2018-Apr-23 03:30N 24°32' E 118°19'69471416.4
2018-Apr-23 03:29N 35°60' E 120°12'3143283.7
2018-Apr-23 03:24N 31°02' E 122°11'4401131.0
2018-Apr-23 03:00N 24°32' E 118°19'62110996.5
2018-Apr-23 03:00N 23°45' E 117°35'436521.6
2018-Apr-23 03:00N 24°26' E 117°52'457137039.0
2018-Apr-23 03:00N 31°01' E 122°12'3164162.6
2018-Apr-23 02:55N 36°00' E 120°13'7471792.3
2018-Apr-23 02:30N 23°45' E 117°35'431863.5
2018-Apr-23 02:29N 24°26' E 117°52'7054396.6
2018-Apr-23 02:19N 36°00' E 120°13'7052255.0
2018-Apr-23 02:00N 24°26' E 117°52'4352179.4
2018-Apr-23 02:00N 23°45' E 117°35'7472236.3
2018-Apr-23 01:40N 36°00' E 120°13'7474567.6
2018-Apr-23 01:30N 23°45' E 117°35'4331307.6
2018-Apr-23 01:30N 24°26' E 117°52'7055177.2
2018-Apr-23 01:22N 36°00' E 120°13'7472064.7
2018-Apr-23 01:00N 23°45' E 117°35'434230.8
2018-Apr-23 01:00N 24°26' E 117°52'7053963.8
2018-Apr-23 00:49N 36°00' E 120°13'7472393.5
2018-Apr-23 00:30N 23°45' E 117°35'4331307.6
2018-Apr-23 00:30N 24°26' E 117°52'7052446.3
2018-Apr-23 00:13N 36°00' E 120°13'7473549.2
2018-Apr-23 00:00N 23°45' E 117°35'4326089.7
2018-Apr-23 00:00N 24°26' E 117°52'70518653.2
2018-Apr-22 23:58N 36°00' E 120°13'7471621.6
2018-Apr-22 23:30N 23°45' E 117°35'436522.4
2018-Apr-22 23:30N 24°26' E 117°52'7058717.6
2018-Apr-22 23:25N 36°00' E 120°13'3173690.2
2018-Apr-22 23:20N 30°60' E 122°13'712532224.3
2018-Apr-22 23:07N 05°37' E 000°01'712666629.9
2018-Apr-22 23:00N 30°59' E 122°13'499128296.3
2018-Apr-22 23:00N 23°46' E 117°35'4339112.1
2018-Apr-22 23:00N 24°26' E 117°52'7053849.5
2018-Apr-22 22:49N 36°00' E 120°13'3216276.5
2018-Apr-22 22:46N 30°56' E 122°14'4951889.4
2018-Apr-22 22:30N 23°47' E 117°35'4311770.6
2018-Apr-22 22:30N 24°26' E 117°52'454163533.3
2018-Apr-22 22:30N 30°57' E 122°14'130.7
2018-Apr-22 22:28N 30°57' E 122°13'3191595.4
2018-Apr-22 22:16N 36°00' E 120°13'7052676.0
2018-Apr-22 22:00N 24°26' E 117°52'452813486.1
2018-Apr-22 22:00N 30°54' E 122°14'6264.5
2018-Apr-22 21:59N 30°59' E 122°11'496148654.2
2018-Apr-22 21:59N 23°49' E 117°35'74476554.5
2018-Apr-22 21:58N 36°00' E 120°13'7441598.7
2018-Apr-22 21:30N 23°49' E 117°35'414305.7
2018-Apr-22 21:30N 24°26' E 117°52'455818811.9
2018-Apr-22 21:30N 31°01' E 122°07'11333.2
2018-Apr-22 21:28N 30°51' E 122°14'3257312.9
2018-Apr-22 21:25N 36°00' E 120°13'7051693.5
2018-Apr-22 21:00N 24°26' E 117°52'4471609722.7
2018-Apr-22 21:00N 30°49' E 122°13'488438808.8
2018-Apr-22 21:00N 23°49' E 117°35'4961569.3
2018-Apr-22 20:41N 31°03' E 122°03'20110.6
2018-Apr-22 20:30N 30°46' E 122°13'485291164.1
2018-Apr-22 20:30N 23°48' E 117°35'412048.1
2018-Apr-22 20:29N 24°26' E 117°52'45526005.4
2018-Apr-22 20:28N 31°04' E 122°01'4961080.2
2018-Apr-22 20:00N 23°48' E 117°35'415910.5
2018-Apr-22 20:00N 24°26' E 117°52'4411343.1
2018-Apr-22 19:40N 30°42' E 122°13'33463251.8
2018-Apr-22 19:40N 36°00' E 120°13'30652533.4
2018-Apr-22 19:40N 31°06' E 121°57'4552932.4
2018-Apr-22 19:30N 24°26' E 117°52'436394.4
2018-Apr-22 19:30N 23°46' E 117°35'49823275.4
2018-Apr-22 19:29N 31°07' E 121°57'3062808.7
2018-Apr-22 19:22N 36°00' E 120°13'2792995.6
2018-Apr-22 19:17N 31°30' E 121°35'5464455.7
2018-Apr-22 19:09N 23°14' E 117°18'5343674.1
2018-Apr-22 19:01N 31°08' E 121°54'53451946.7
2018-Apr-22 19:00N 23°15' E 117°16'334559.0
2018-Apr-22 18:59N 23°43' E 117°35'4627561.8
2018-Apr-22 18:59N 24°26' E 117°52'4373161.8
2018-Apr-22 18:51N 30°38' E 122°11'33710637.0
2018-Apr-22 18:49N 36°00' E 120°13'7532396.6
2018-Apr-22 18:30N 23°40' E 117°35'332684.6
2018-Apr-22 18:30N 23°16' E 117°11'80863.9
2018-Apr-22 18:24N 24°26' E 117°52'7056248.4
2018-Apr-22 18:17N 36°00' E 120°13'7792769.3
2018-Apr-22 18:00N 23°18' E 117°06'3323409.6
2018-Apr-22 18:00N 23°36' E 117°35'521967.8
2018-Apr-22 17:59N 24°26' E 117°52'7073545.5
2018-Apr-22 17:47N 36°02' E 120°15'7792829.5
2018-Apr-22 17:30N 23°22' E 117°02'333253.0
2018-Apr-22 17:30N 23°36' E 117°35'522877.0
2018-Apr-22 17:29N 24°26' E 117°52'7113315.2
2018-Apr-22 17:16N 36°06' E 120°16'7622913.7
2018-Apr-22 17:00N 23°36' E 117°35'523399.4
2018-Apr-22 16:59N 24°26' E 117°52'52109.0
2018-Apr-22 16:30N 23°36' E 117°35'5231157.6
2018-Apr-22 16:30N 24°26' E 117°52'0 0.0
2018-Apr-22 15:59N 24°26' E 117°52'5237376.8
2018-Apr-22 15:59N 23°37' E 117°35'0 0.0
2018-Apr-22 15:30N 23°36' E 117°35'5211682.8
2018-Apr-22 15:30N 24°26' E 117°52'1664150.9
2018-Apr-22 15:28N 22°39' E 120°10'154340.6
2018-Apr-22 15:00N 23°37' E 117°35'158189698.2
2018-Apr-22 15:00N 22°38' E 120°14'16919680.4
2018-Apr-22 15:00N 24°26' E 117°52'172350.6
2018-Apr-22 14:30N 22°36' E 120°17'16134079.6
2018-Apr-22 14:30N 23°37' E 117°35'514106.2
2018-Apr-22 14:29N 24°26' E 117°52'51106.5
2018-Apr-22 14:00N 23°37' E 117°35'16157913.7
2018-Apr-22 14:00N 22°36' E 120°17'1728380.3
2018-Apr-22 13:59N 24°26' E 117°52'25105.4
2018-Apr-22 13:45N 24°32' E 118°19'68283.3
2018-Apr-22 13:30N 23°37' E 117°35'6822325.9
2018-Apr-22 13:30N 24°32' E 118°19'15915440.3
2018-Apr-22 13:30N 22°36' E 120°17'81053987.7
2018-Apr-22 13:29N 36°06' E 120°16'71147408.8
2018-Apr-22 13:28N 24°26' E 117°52'51113.3
2018-Apr-22 13:00N 23°37' E 117°35'161289617.0
2018-Apr-22 13:00N 22°36' E 120°17'1729843.5
2018-Apr-22 12:59N 24°26' E 117°52'7114112.5
2018-Apr-22 12:49N 36°05' E 120°18'7012241.7
2018-Apr-22 12:30N 24°32' E 118°19'15911425.9
2018-Apr-22 12:29N 22°36' E 120°17'17228188.3
2018-Apr-22 12:29N 24°26' E 117°52'5110892.4
2018-Apr-22 12:29N 23°37' E 117°35'0 0.1
2018-Apr-22 12:00N 23°37' E 117°35'16164374.5
2018-Apr-22 12:00N 22°36' E 120°17'17247703.2
2018-Apr-22 12:00N 24°26' E 117°52'7113700.7
2018-Apr-22 11:49N 36°06' E 120°20'7622532.0
2018-Apr-22 11:30N 23°37' E 117°35'5137075.2
2018-Apr-22 11:30N 24°26' E 117°52'172620141.7
2018-Apr-22 11:30N 22°36' E 120°17'15995215.4
2018-Apr-22 11:30N 24°32' E 118°19'68136.0
2018-Apr-22 11:00N 23°38' E 117°35'6822125.5
2018-Apr-22 11:00N 24°32' E 118°19'256456.7
2018-Apr-22 11:00N 24°26' E 117°52'17212656.0
2018-Apr-22 10:59N 22°36' E 120°17'171520.9
2018-Apr-22 10:39N 23°15' E 117°16'79519.1
2018-Apr-22 10:30N 24°26' E 117°52'4610336.6
2018-Apr-22 10:30N 23°43' E 117°35'1639974.0
2018-Apr-22 10:29N 22°36' E 120°17'1703211.0
2018-Apr-22 10:26N 23°14' E 117°17'3787.2
2018-Apr-22 10:00N 23°48' E 117°35'412700.1
2018-Apr-22 09:59N 24°26' E 117°52'1728495.1
2018-Apr-22 09:58N 22°36' E 120°17'1685357.7
2018-Apr-22 09:56N 23°13' E 117°19'168391.1
2018-Apr-22 09:30N 22°36' E 120°17'166596225.9
2018-Apr-22 09:30N 23°49' E 117°35'4148811.1
2018-Apr-22 09:30N 24°26' E 117°52'791151.0
2018-Apr-22 09:26N 23°12' E 117°21'3989.8
2018-Apr-22 09:00N 23°49' E 117°35'4129290.6
2018-Apr-22 09:00N 24°26' E 117°52'7919058.1
2018-Apr-22 09:00N 23°11' E 117°23'16412283.5
2018-Apr-22 08:59N 22°36' E 120°17'8096293.6
2018-Apr-22 08:52N 36°06' E 120°20'7512131.0
2018-Apr-22 08:30N 23°48' E 117°35'7511352133.8
2018-Apr-22 08:30N 36°06' E 120°20'809264893.8
2018-Apr-22 08:30N 22°36' E 120°15'16082115.9
2018-Apr-22 08:30N 23°10' E 117°26'160320.9
2018-Apr-22 08:00N 22°36' E 120°15'16549400.0
2018-Apr-22 08:00N 23°48' E 117°35'413266.0
2018-Apr-22 07:59N 24°26' E 117°52'801963.9
2018-Apr-22 07:57N 23°09' E 117°28'2 4.4
2018-Apr-22 07:30N 23°08' E 117°30'156140140.4
2018-Apr-22 07:30N 22°36' E 120°15'16598767.1
2018-Apr-22 07:30N 23°48' E 117°35'414198.0
2018-Apr-22 07:30N 24°26' E 117°52'80165.0
2018-Apr-22 07:00N 23°08' E 117°32'4014353.6
2018-Apr-22 07:00N 23°47' E 117°35'16445481.2
2018-Apr-22 07:00N 22°36' E 120°15'17261782.6
2018-Apr-22 07:00N 24°26' E 117°52'7111876.1
2018-Apr-22 06:37N 36°06' E 120°20'8107236.2
2018-Apr-22 06:30N 22°36' E 120°15'15268276.3
2018-Apr-22 06:30N 23°07' E 117°34'39138695.9
2018-Apr-22 06:30N 23°45' E 117°35'44699.0
2018-Apr-22 06:27N 24°26' E 117°52'7112130.1
2018-Apr-22 06:06N 36°06' E 120°20'7587533.9
2018-Apr-22 06:00N 23°42' E 117°35'16212122.2
2018-Apr-22 06:00N 22°36' E 120°16'150538556.7
2018-Apr-22 06:00N 23°06' E 117°36'822553.9
2018-Apr-22 05:58N 24°26' E 117°52'71128429.4
2018-Apr-22 05:56N 36°05' E 120°19'8101890.1
2018-Apr-22 05:31N 22°36' E 120°15'14715613.2
2018-Apr-22 05:30N 23°05' E 117°39'3411000.4
2018-Apr-22 05:30N 23°38' E 117°35'504122.0
2018-Apr-22 05:29N 24°26' E 117°52'7075930.4
2018-Apr-22 05:22N 36°02' E 120°15'335980.0
2018-Apr-22 05:01N 30°37' E 121°53'48928403.2
2018-Apr-22 05:00N 22°36' E 120°15'160191776.1
2018-Apr-22 05:00N 23°37' E 117°35'47930265.6
2018-Apr-22 04:59N 30°37' E 121°53'506455795.4
2018-Apr-22 04:59N 23°04' E 117°41'834594.6
2018-Apr-22 04:58N 24°26' E 117°52'70419500.2
2018-Apr-22 04:56N 35°60' E 120°12'0 0.1
2018-Apr-22 04:31N 35°60' E 120°12'755906248.1
2018-Apr-22 04:30N 23°37' E 117°35'16010856.0
2018-Apr-22 04:30N 22°36' E 120°15'492126548.0
2018-Apr-22 04:29N 30°40' E 121°55'43112133.6
2018-Apr-22 04:27N 24°26' E 117°52'841633.2
2018-Apr-22 04:24N 23°02' E 117°44'95740.7
2018-Apr-22 04:16N 24°32' E 118°19'95487.3
2018-Apr-22 04:05N 22°59' E 117°59'951315.6
2018-Apr-22 04:00N 24°32' E 118°19'417136589.9
2018-Apr-22 04:00N 30°42' E 121°57'4951781387.8
2018-Apr-22 04:00N 22°36' E 120°15'14142181.6
2018-Apr-22 04:00N 23°02' E 117°46'1214740.4
2018-Apr-22 04:00N 22°59' E 117°59'8728577.3
2018-Apr-22 04:00N 24°26' E 117°52'527133.2
2018-Apr-22 03:59N 23°37' E 117°35'7553688.7
2018-Apr-22 03:47N 35°60' E 120°12'7552740.7
2018-Apr-22 03:30N 23°37' E 117°35'5211602.8
2018-Apr-22 03:30N 24°26' E 117°52'8661736.2
2018-Apr-22 03:30N 23°00' E 117°48'515264803.0
2018-Apr-22 03:30N 30°44' E 121°60'497357646.1
2018-Apr-22 03:30N 22°36' E 120°15'8046907.4
2018-Apr-22 03:23N 35°60' E 120°12'78912629.2
2018-Apr-22 03:19N 22°59' E 117°59'128412.9
2018-Apr-22 03:01N 22°36' E 120°15'13697592.6
2018-Apr-22 03:00N 22°59' E 117°51'9758068.3
2018-Apr-22 03:00N 24°32' E 118°19'42237076.7
2018-Apr-22 03:00N 30°45' E 122°03'328831.6
2018-Apr-22 02:36N 35°60' E 120°12'3273582.2
2018-Apr-22 02:31N 30°46' E 122°06'492136341.9
2018-Apr-22 02:30N 23°37' E 117°35'5246365.0
2018-Apr-22 02:30N 24°26' E 117°52'17217164.6
2018-Apr-22 02:30N 22°36' E 120°15'15837983.1
2018-Apr-22 02:29N 24°32' E 118°19'6944825.1
2018-Apr-22 02:21N 35°60' E 120°12'8042368.5
2018-Apr-22 02:00N 22°36' E 120°15'160115118.7
2018-Apr-22 02:00N 23°37' E 117°35'5212374.9
2018-Apr-22 02:00N 24°26' E 117°52'44472710.7
2018-Apr-22 02:00N 30°48' E 122°07'3262036.9
2018-Apr-22 01:50N 35°60' E 120°12'7924338.6
2018-Apr-22 01:39N 22°57' E 117°55'0 0.0
2018-Apr-22 01:30N 22°57' E 117°55'13127790.0
2018-Apr-22 01:30N 22°36' E 120°15'160115150.8
2018-Apr-22 01:30N 23°37' E 117°35'755453142.4
2018-Apr-22 01:30N 35°60' E 120°12'32461483.4
2018-Apr-22 01:30N 30°50' E 122°09'4477767.7
2018-Apr-22 01:26N 24°26' E 117°52'172399.7
2018-Apr-22 01:00N 22°36' E 120°15'160575737.7
2018-Apr-22 01:00N 23°37' E 117°35'500299796.0
2018-Apr-22 01:00N 30°53' E 122°10'449202044.7
2018-Apr-22 01:00N 24°26' E 117°52'7043806.1
2018-Apr-22 00:49N 35°60' E 120°12'8042561.3
2018-Apr-22 00:30N 22°36' E 120°15'510262172.0
2018-Apr-22 00:30N 30°55' E 122°10'50254762.3
2018-Apr-22 00:30N 23°37' E 117°35'52591.8
2018-Apr-22 00:24N 24°26' E 117°52'70413066.4
2018-Apr-22 00:21N 35°60' E 120°12'7927462.1
2018-Apr-22 00:15N 22°57' E 117°55'89371.0
2018-Apr-22 00:00N 24°26' E 117°52'4541632719.7
2018-Apr-22 00:00N 30°58' E 122°10'50453392.2
2018-Apr-22 00:00N 23°37' E 117°35'16026169.5
2018-Apr-21 23:59N 22°36' E 120°15'13152469.7
2018-Apr-21 23:59N 22°57' E 117°55'7924474.9
2018-Apr-21 23:49N 35°60' E 120°12'7552489.9
2018-Apr-21 23:30N 23°37' E 117°35'160115144.3
2018-Apr-21 23:30N 22°36' E 120°15'514925790.3
2018-Apr-21 23:30N 31°00' E 122°08'533639982.9
2018-Apr-21 23:30N 22°57' E 117°55'8913373.4
2018-Apr-21 23:30N 24°26' E 117°52'7043722.3
2018-Apr-21 23:19N 35°60' E 120°12'3131031.9
2018-Apr-21 23:00N 31°02' E 122°06'51554571.1
2018-Apr-21 23:00N 22°36' E 120°15'16130509.7
2018-Apr-21 22:59N 23°39' E 117°34'505266.4
2018-Apr-21 22:59N 24°26' E 117°52'70427553.1
2018-Apr-21 22:57N 35°60' E 120°12'7921918.2
2018-Apr-21 22:33N 22°57' E 117°55'1313524.1
2018-Apr-21 22:30N 22°36' E 120°15'16341886.8
2018-Apr-21 22:30N 23°44' E 117°35'511642.2
2018-Apr-21 22:28N 22°57' E 117°55'899440.7
2018-Apr-21 22:28N 24°26' E 117°52'7044348.0
2018-Apr-21 22:18N 35°60' E 120°12'8042738.2
2018-Apr-21 22:00N 22°36' E 120°15'16539523.2
2018-Apr-21 22:00N 23°49' E 117°35'322016.9
2018-Apr-21 21:59N 23°27' E 118°01'601285.8
2018-Apr-21 21:56N 24°26' E 117°52'7044702.9
2018-Apr-21 21:47N 35°60' E 120°12'8042845.9
2018-Apr-21 21:30N 22°36' E 120°15'17214371.3
2018-Apr-21 21:30N 24°26' E 117°52'54549.9
2018-Apr-21 21:24N 23°33' E 118°01'7556583.7
2018-Apr-21 21:17N 35°60' E 120°12'7442696.6
2018-Apr-21 21:00N 23°48' E 117°35'412818.7
2018-Apr-21 21:00N 24°26' E 117°52'17221309.2
2018-Apr-21 20:59N 22°36' E 120°15'13710951.6
2018-Apr-21 20:58N 23°37' E 118°02'7523844.0
2018-Apr-21 20:47N 36°00' E 120°13'7928643.0
2018-Apr-21 20:41N 22°57' E 117°55'131728.8
2018-Apr-21 20:30N 22°36' E 120°15'16528226.0
2018-Apr-21 20:30N 23°48' E 117°35'281500.9
2018-Apr-21 20:29N 23°41' E 118°04'46312.8
2018-Apr-21 20:20N 24°26' E 117°52'892182.5
2018-Apr-21 20:18N 22°57' E 117°55'79630147.0
2018-Apr-21 20:16N 36°03' E 120°15'8073125.1
2018-Apr-21 20:01N 22°36' E 120°15'16417929.3
2018-Apr-21 20:00N 23°48' E 117°35'4210681.5
2018-Apr-21 20:00N 24°26' E 117°52'41400.6
2018-Apr-21 19:54N 23°47' E 118°06'74717939.4
2018-Apr-21 19:51N 36°05' E 120°18'7512189.3
2018-Apr-21 19:30N 23°48' E 117°35'16449304.0
2018-Apr-21 19:30N 22°36' E 120°15'1723613.7
2018-Apr-21 19:27N 24°26' E 117°52'4421075.5
2018-Apr-21 19:03N 30°43' E 122°13'48411925.6
2018-Apr-21 19:00N 23°48' E 117°35'16439441.2
2018-Apr-21 19:00N 22°36' E 120°15'49994559.7
2018-Apr-21 19:00N 30°44' E 122°13'336811.1
2018-Apr-21 18:35N 36°06' E 120°20'73618797.9
2018-Apr-21 18:33N 23°58' E 118°08'311272.4
2018-Apr-21 18:31N 24°26' E 117°52'17211234.7
2018-Apr-21 18:30N 22°36' E 120°15'16426892.6
2018-Apr-21 18:30N 23°48' E 117°35'54381.7
2018-Apr-21 18:21N 22°57' E 117°55'892392.8
2018-Apr-21 18:19N 24°26' E 117°52'71118422.3
2018-Apr-21 18:17N 36°06' E 120°20'7334032.5
2018-Apr-21 18:06N 24°02' E 118°10'1441605.8
2018-Apr-21 18:00N 22°36' E 120°15'1319637.8
2018-Apr-21 18:00N 22°57' E 117°55'6780586.8
2018-Apr-21 18:00N 24°03' E 118°10'3614232.6
2018-Apr-21 17:59N 23°48' E 117°35'4917041.0
2018-Apr-21 17:55N 30°51' E 122°14'32813437.4
2018-Apr-21 17:54N 36°06' E 120°20'7112712.6
2018-Apr-21 17:38N 24°26' E 117°52'1721357.9
2018-Apr-21 17:30N 22°36' E 120°15'164591579.7
2018-Apr-21 17:30N 23°48' E 117°35'4249840.4
2018-Apr-21 17:30N 24°26' E 117°52'8953407.3
2018-Apr-21 17:30N 22°57' E 117°55'79924163.0
2018-Apr-21 17:28N 36°06' E 120°20'3252631.7
2018-Apr-21 17:21N 30°56' E 122°14'5111499.1
2018-Apr-21 17:00N 22°36' E 120°15'131473034.0
2018-Apr-21 17:00N 22°57' E 117°55'8979825.7
2018-Apr-21 17:00N 24°26' E 117°52'455163893.3
2018-Apr-21 17:00N 30°58' E 122°14'497297963.5
2018-Apr-21 17:00N 23°48' E 117°35'41214.5
2018-Apr-21 16:49N 24°12' E 118°10'4603020.1
2018-Apr-21 16:40N 30°59' E 122°12'4993288.6
2018-Apr-21 16:30N 23°45' E 117°35'163147084.6
2018-Apr-21 16:30N 22°36' E 120°15'51597538.9
2018-Apr-21 16:30N 31°00' E 122°11'458412511.9
2018-Apr-21 16:30N 24°15' E 118°10'204257.5
2018-Apr-21 16:30N 24°26' E 117°52'8912279.2
2018-Apr-21 16:29N 22°57' E 117°55'48100.8
2018-Apr-21 16:00N 23°42' E 117°35'4810862.1
2018-Apr-21 16:00N 24°18' E 118°10'181371.1
2018-Apr-21 15:59N 24°26' E 117°52'45720820.9
2018-Apr-21 15:58N 31°02' E 122°09'454987.9
2018-Apr-21 15:31N 24°22' E 118°08'15794479.1
2018-Apr-21 15:30N 22°36' E 120°15'16182545.6
2018-Apr-21 15:30N 23°39' E 117°35'504950.7
2018-Apr-21 15:30N 24°26' E 117°52'4566625.4
2018-Apr-21 15:26N 31°04' E 122°05'5171232.2
2018-Apr-21 15:00N 22°36' E 120°15'16248537.5
2018-Apr-21 15:00N 24°25' E 118°05'554522.2
2018-Apr-21 14:59N 23°37' E 117°35'507140287.4
2018-Apr-21 14:59N 31°04' E 122°02'456164065.3
2018-Apr-21 14:59N 24°26' E 117°52'891399.9
2018-Apr-21 14:55N 22°57' E 117°55'97562.9
2018-Apr-21 14:45N 24°32' E 118°19'158661.0
2018-Apr-21 14:31N 22°36' E 120°15'160143906.8
2018-Apr-21 14:30N 23°37' E 117°35'5246400.6
2018-Apr-21 14:30N 24°26' E 117°52'2510043.8
2018-Apr-21 14:30N 24°32' E 118°19'43922894.3
2018-Apr-21 14:29N 31°06' E 121°58'4524116.6
2018-Apr-21 14:23N 24°27' E 117°59'892237.0
2018-Apr-21 14:20N 22°57' E 117°55'44133.0
2018-Apr-21 14:00N 23°37' E 117°35'68246051.5
2018-Apr-21 14:00N 24°32' E 118°19'439527153.3
2018-Apr-21 14:00N 31°08' E 121°54'520468034.6
2018-Apr-21 14:00N 22°36' E 120°15'17223767.4
2018-Apr-21 14:00N 24°26' E 117°52'89872.6
2018-Apr-21 13:54N 22°57' E 117°55'131338.0
2018-Apr-21 13:30N 22°36' E 120°15'16063916.9
2018-Apr-21 13:30N 23°37' E 117°35'445059.4
2018-Apr-21 13:30N 22°57' E 117°55'8913308.5
2018-Apr-21 13:29N 24°26' E 117°52'25837.0
2018-Apr-21 13:28N 24°32' E 118°19'158350.2
2018-Apr-21 13:00N 22°36' E 120°15'160575362.4
2018-Apr-21 13:00N 23°37' E 117°35'6811192.9
2018-Apr-21 13:00N 24°32' E 118°19'251255.4
2018-Apr-21 12:59N 24°26' E 117°52'8963915.5
2018-Apr-21 12:59N 22°57' E 117°55'131278.0
2018-Apr-21 12:30N 22°36' E 120°15'158569762.6
2018-Apr-21 12:30N 24°32' E 118°19'9819510.1
2018-Apr-21 12:30N 22°57' E 117°55'448263.6
2018-Apr-21 12:30N 23°37' E 117°35'527146.5
2018-Apr-21 12:29N 24°26' E 117°52'172356.6
2018-Apr-21 12:00N 22°36' E 120°15'160287760.9
2018-Apr-21 12:00N 23°37' E 117°35'44156758.0
2018-Apr-21 12:00N 22°57' E 117°54'98176076.2
2018-Apr-21 12:00N 24°32' E 118°19'257532.9
2018-Apr-21 12:00N 24°26' E 117°52'52104.1
2018-Apr-21 11:30N 23°37' E 117°35'6882149.2
2018-Apr-21 11:30N 24°32' E 118°19'9844016.4
2018-Apr-21 11:30N 22°57' E 117°54'89160056.9
2018-Apr-21 11:30N 24°26' E 117°52'17212874.0
2018-Apr-21 11:29N 22°36' E 120°15'163697.4
2018-Apr-21 11:15N 24°26' E 118°04'163658.4
2018-Apr-21 11:00N 22°36' E 120°15'160287844.6
2018-Apr-21 11:00N 23°37' E 117°35'5292975.2
2018-Apr-21 11:00N 24°26' E 117°52'126027.2
2018-Apr-21 11:00N 24°25' E 118°05'1223.6
2018-Apr-21 10:30N 24°26' E 117°52'144490.0
2018-Apr-21 10:30N 24°24' E 118°07'1608460.6
2018-Apr-21 10:29N 22°36' E 120°15'1609594.6
2018-Apr-21 10:28N 23°37' E 117°35'44477.1
2018-Apr-21 10:23N 22°57' E 117°55'53428682.5
2018-Apr-21 10:21N 31°03' E 122°03'4521288.3
2018-Apr-21 10:00N 24°22' E 118°09'1628625.2
2018-Apr-21 10:00N 24°26' E 117°52'172205979.3
2018-Apr-21 10:00N 22°36' E 120°15'517620385.6
2018-Apr-21 10:00N 31°04' E 122°01'53415634.3
2018-Apr-21 09:58N 22°57' E 117°55'445458.9
2018-Apr-21 09:58N 23°37' E 117°35'54117.6
2018-Apr-21 09:30N 24°19' E 118°10'54193006.0
2018-Apr-21 09:30N 23°37' E 117°35'525814.1
2018-Apr-21 09:30N 24°26' E 117°52'71115152.2
2018-Apr-21 09:27N 36°06' E 120°20'31110451.8
2018-Apr-21 09:25N 31°06' E 121°57'4551097.0
2018-Apr-21 09:00N 24°18' E 118°10'154554868.7
2018-Apr-21 09:00N 22°36' E 120°15'16215307.6
2018-Apr-21 09:00N 23°40' E 117°34'4959073.7
2018-Apr-21 09:00N 24°26' E 117°52'45529790.6
2018-Apr-21 08:59N 31°07' E 121°56'3103909.8
2018-Apr-21 08:54N 36°06' E 120°20'7181822.5
2018-Apr-21 08:30N 24°17' E 118°10'153110154.4
2018-Apr-21 08:30N 22°36' E 120°15'163146851.5
2018-Apr-21 08:30N 23°44' E 117°34'4553604.8
2018-Apr-21 08:30N 24°26' E 117°52'45515456.3
2018-Apr-21 08:28N 31°08' E 121°54'306981.2
2018-Apr-21 08:10N 36°03' E 120°16'8075235.5
2018-Apr-21 08:00N 22°36' E 120°15'163587572.7
2018-Apr-21 08:00N 23°46' E 117°35'4377970.3
2018-Apr-21 08:00N 24°15' E 118°10'2071681.9
2018-Apr-21 08:00N 24°26' E 117°52'7067586.9
2018-Apr-21 07:55N 36°01' E 120°14'7481839.5
2018-Apr-21 07:30N 23°47' E 117°35'4351012.6
2018-Apr-21 07:30N 24°26' E 117°52'17216698.0
2018-Apr-21 07:30N 22°36' E 120°15'1503600.6
2018-Apr-21 07:27N 24°12' E 118°10'71612390.4
2018-Apr-21 07:24N 36°00' E 120°13'8042068.6
2018-Apr-21 07:00N 22°36' E 120°15'1653275.0
2018-Apr-21 06:57N 23°49' E 117°35'7456585.5
2018-Apr-21 06:51N 36°00' E 120°13'8042379.7
2018-Apr-21 06:30N 22°36' E 120°15'96771071.3
2018-Apr-21 06:30N 38°40' E 121°40'91686799.0
2018-Apr-21 06:29N 23°49' E 117°35'41762.3
2018-Apr-21 06:26N 24°26' E 117°52'7053844.7
2018-Apr-21 06:15N 36°00' E 120°13'7479087.3
2018-Apr-21 06:10N 23°46' E 117°35'1641046.5
2018-Apr-21 06:00N 22°36' E 120°16'16520447.4
2018-Apr-21 06:00N 23°49' E 117°35'416656.1
2018-Apr-21 06:00N 24°26' E 117°52'7057208.9
2018-Apr-21 05:54N 36°00' E 120°13'7051800.9
2018-Apr-21 05:30N 24°26' E 117°52'17247535.7
2018-Apr-21 05:30N 22°36' E 120°16'16517425.4
2018-Apr-21 05:29N 23°48' E 117°35'7455187.3
2018-Apr-21 05:21N 36°00' E 120°13'7462196.9
2018-Apr-21 05:00N 23°47' E 117°35'421004.6
2018-Apr-21 04:58N 24°26' E 117°52'4522759.9
2018-Apr-21 04:48N 31°15' E 121°31'2935292.2
2018-Apr-21 04:45N 36°00' E 120°13'8043367.5
2018-Apr-21 04:30N 22°36' E 120°16'16365057.8
2018-Apr-21 04:30N 23°43' E 117°35'461951.2
2018-Apr-21 04:29N 24°26' E 117°52'45118653.4
2018-Apr-21 04:27N 31°13' E 121°30'511431.7
2018-Apr-21 04:25N 30°36' E 122°12'33915243.1
2018-Apr-21 04:24N 36°00' E 120°13'7531922.3
2018-Apr-21 04:00N 23°40' E 117°35'16110961.2
2018-Apr-21 04:00N 22°36' E 120°16'494111247.3
2018-Apr-21 03:59N 30°39' E 122°12'4394713.5
2018-Apr-21 03:54N 24°26' E 117°52'25541.3
2018-Apr-21 03:51N 24°32' E 118°19'6952301.7
2018-Apr-21 03:33N 36°00' E 120°13'75619031.8
2018-Apr-21 03:30N 23°37' E 117°34'52185965.1
2018-Apr-21 03:30N 24°26' E 117°52'172154474.0
2018-Apr-21 03:30N 22°36' E 120°15'49833831.5
2018-Apr-21 03:29N 30°43' E 122°13'42428833.5
2018-Apr-21 03:29N 24°32' E 118°19'43913272.8
2018-Apr-21 03:27N 31°08' E 121°54'5061162.3
2018-Apr-21 03:00N 23°37' E 117°34'16036053.9
2018-Apr-21 03:00N 22°36' E 120°15'17234326.8
2018-Apr-21 03:00N 24°26' E 117°52'445320600.7
2018-Apr-21 03:00N 30°46' E 122°13'4289937.2
2018-Apr-21 02:57N 24°32' E 118°19'6952249.9
2018-Apr-21 02:39N 36°00' E 120°13'3262376.0
2018-Apr-21 02:30N 30°50' E 122°14'499898694.0
2018-Apr-21 02:30N 23°37' E 117°34'160576902.4
2018-Apr-21 02:30N 22°36' E 120°15'17229423.6
2018-Apr-21 02:30N 24°26' E 117°52'4575516.3
2018-Apr-21 02:25N 31°12' E 121°49'2994162.9
2018-Apr-21 02:21N 36°00' E 120°13'7562232.7
2018-Apr-21 02:00N 23°37' E 117°34'5237209.4
2018-Apr-21 02:00N 24°26' E 117°52'172154474.0
2018-Apr-21 02:00N 22°36' E 120°15'15837981.0
2018-Apr-21 02:00N 24°32' E 118°19'695147170.8
2018-Apr-21 02:00N 36°00' E 120°13'319651.9
2018-Apr-21 01:30N 30°58' E 122°13'513205095.7
2018-Apr-21 01:30N 22°36' E 120°15'158142432.6
2018-Apr-21 01:30N 24°32' E 118°19'6927467.2
2018-Apr-21 01:30N 23°37' E 117°34'756136091.4
2018-Apr-21 01:30N 36°00' E 120°13'7051440.1
2018-Apr-21 01:00N 24°26' E 117°52'455327305.0
2018-Apr-21 01:00N 30°60' E 122°09'438121180.6
2018-Apr-21 01:00N 24°32' E 118°19'15871218.3
2018-Apr-21 01:00N 22°36' E 120°15'160576974.1
2018-Apr-21 01:00N 23°37' E 117°34'75614250.8
2018-Apr-21 00:57N 36°00' E 120°13'312706.6
2018-Apr-21 00:30N 31°02' E 122°04'45574436.6
2018-Apr-21 00:30N 24°26' E 117°52'17268659.8
2018-Apr-21 00:30N 22°36' E 120°15'16064107.4
2018-Apr-21 00:30N 23°37' E 117°34'7565135.8
2018-Apr-21 00:21N 36°00' E 120°13'7562232.9
2018-Apr-21 00:00N 23°37' E 117°34'5262118.3
2018-Apr-21 00:00N 24°26' E 117°52'172154488.0
2018-Apr-21 00:00N 22°36' E 120°15'5188110.3
2018-Apr-20 23:57N 31°06' E 121°58'3071574.0
2018-Apr-20 23:45N 36°00' E 120°13'8053348.3
2018-Apr-20 23:30N 22°36' E 120°15'17268661.3
2018-Apr-20 23:30N 24°26' E 117°52'523213.0
2018-Apr-20 23:29N 23°37' E 117°34'50714141.7
2018-Apr-20 23:27N 31°08' E 121°53'30468314.0
2018-Apr-20 23:27N 36°00' E 120°13'8051829.6
2018-Apr-20 23:00N 22°36' E 120°15'160288483.4
2018-Apr-20 23:00N 23°37' E 117°34'5262132.0
2018-Apr-20 23:00N 24°26' E 117°52'45713154.5
2018-Apr-20 22:58N 31°12' E 121°49'2992389.9
2018-Apr-20 22:51N 36°00' E 120°13'8052379.8
2018-Apr-20 22:31N 22°36' E 120°15'16041225.0
2018-Apr-20 22:30N 23°37' E 117°34'525826.8
2018-Apr-20 22:30N 24°26' E 117°52'45934398.0
2018-Apr-20 22:29N 31°15' E 121°46'5261107.8
2018-Apr-20 22:00N 22°36' E 120°15'17219311.0
2018-Apr-20 22:00N 24°26' E 117°52'5210969.3
2018-Apr-20 22:00N 23°37' E 117°34'52105.1
2018-Apr-20 21:30N 24°26' E 117°52'5210361.0
2018-Apr-20 21:30N 23°37' E 117°34'16024047.3
2018-Apr-20 21:29N 22°36' E 120°15'162335.7
2018-Apr-20 21:00N 23°40' E 117°34'162145533.2
2018-Apr-20 21:00N 22°36' E 120°15'1724175.3
2018-Apr-20 20:58N 24°26' E 117°52'4495.8
2018-Apr-20 20:30N 23°45' E 117°35'16336738.3
2018-Apr-20 20:30N 22°36' E 120°15'1726305.5
2018-Apr-20 20:28N 24°26' E 117°52'7065546.0
2018-Apr-20 20:21N 36°01' E 120°14'7452201.4
2018-Apr-20 20:00N 23°48' E 117°35'1659261.8
2018-Apr-20 19:59N 22°36' E 120°15'17210654.1
2018-Apr-20 19:58N 24°26' E 117°52'7075185.3
2018-Apr-20 19:50N 36°02' E 120°19'8062452.9
2018-Apr-20 19:31N 22°36' E 120°15'16545597.9
2018-Apr-20 19:30N 23°49' E 117°35'416646.2
2018-Apr-20 19:30N 24°26' E 117°52'7051704.0
2018-Apr-20 19:05N 35°59' E 120°21'3325970.3
2018-Apr-20 19:02N 30°38' E 122°03'49220827.0
2018-Apr-20 19:00N 22°36' E 120°15'17217654.6
2018-Apr-20 19:00N 24°26' E 117°52'43312581.7
2018-Apr-20 18:58N 30°38' E 122°03'47431007.1
2018-Apr-20 18:57N 23°49' E 117°35'4931583.0
2018-Apr-20 18:38N 31°15' E 121°31'4933874.4
2018-Apr-20 18:30N 23°49' E 117°35'4921772770.9
2018-Apr-20 18:30N 31°15' E 121°30'523941786.5
2018-Apr-20 18:30N 22°36' E 120°15'17215071.0
2018-Apr-20 18:30N 24°26' E 117°52'43316422.7
2018-Apr-20 18:28N 30°38' E 122°03'3321421.6
2018-Apr-20 18:14N 35°59' E 120°21'7053075.4
2018-Apr-20 18:00N 24°26' E 117°52'172617895.9
2018-Apr-20 18:00N 22°36' E 120°15'492442582.1
2018-Apr-20 18:00N 30°38' E 122°03'474853802.2
2018-Apr-20 18:00N 23°48' E 117°35'74510815.7
2018-Apr-20 17:56N 35°59' E 120°21'7461741.4
2018-Apr-20 17:30N 23°47' E 117°35'426574.0
2018-Apr-20 17:30N 24°26' E 117°52'17232520.8
2018-Apr-20 17:30N 22°36' E 120°15'4925257.1
2018-Apr-20 17:24N 30°39' E 122°01'33118047.9
2018-Apr-20 17:23N 35°59' E 120°21'7491991.1
2018-Apr-20 17:00N 23°44' E 117°35'16348804.2
2018-Apr-20 17:00N 22°36' E 120°15'80327535.2
2018-Apr-20 16:59N 35°59' E 120°21'70572491.8
2018-Apr-20 16:58N 24°26' E 117°52'172374.9
2018-Apr-20 16:30N 22°36' E 120°15'16164352.7
2018-Apr-20 16:30N 23°40' E 117°35'4834714.0
2018-Apr-20 16:30N 24°26' E 117°52'7052879.9
2018-Apr-20 16:16N 35°59' E 120°21'7563007.0
2018-Apr-20 16:00N 23°37' E 117°35'525805.0
2018-Apr-20 16:00N 24°26' E 117°52'172308955.0
2018-Apr-20 16:00N 22°36' E 120°15'160325.8
2018-Apr-20 15:30N 23°37' E 117°35'16031960.3
2018-Apr-20 15:30N 22°36' E 120°15'172205974.7
2018-Apr-20 15:30N 24°26' E 117°52'172348.1
2018-Apr-20 15:01N 22°36' E 120°15'16044255.9
2018-Apr-20 15:00N 23°37' E 117°35'521175.1
2018-Apr-20 14:58N 24°26' E 117°52'52111.7
2018-Apr-20 14:30N 23°37' E 117°35'160575150.5
2018-Apr-20 14:30N 22°36' E 120°15'17222886.1
2018-Apr-20 14:29N 24°26' E 117°52'25139.5
2018-Apr-20 14:19N 24°32' E 118°19'6952321.9
2018-Apr-20 14:01N 35°59' E 120°21'803722789.1
2018-Apr-20 14:01N 22°36' E 120°15'160287587.5
2018-Apr-20 14:00N 23°37' E 117°35'6915448.0
2018-Apr-20 14:00N 24°32' E 118°19'695113665.9
2018-Apr-20 14:00N 35°59' E 120°21'70520795.9
2018-Apr-20 13:58N 24°26' E 117°52'52113.9
2018-Apr-20 13:30N 23°37' E 117°35'6949440.6
2018-Apr-20 13:30N 24°32' E 118°19'158569762.6
2018-Apr-20 13:30N 22°36' E 120°15'1726644.5
2018-Apr-20 13:29N 24°26' E 117°52'4341424.1
2018-Apr-20 13:11N 30°39' E 122°01'4842882.9
2018-Apr-20 13:00N 23°37' E 117°35'16095849.2
2018-Apr-20 13:00N 22°36' E 120°15'15856977.9
2018-Apr-20 13:00N 24°32' E 118°19'251076.1
2018-Apr-20 12:59N 24°26' E 117°52'7054814.1
2018-Apr-20 12:50N 35°59' E 120°21'3301595.3
2018-Apr-20 12:38N 30°39' E 122°01'4854066.2
2018-Apr-20 12:30N 23°36' E 117°35'5218708.3
2018-Apr-20 12:30N 24°26' E 117°52'251221.5
2018-Apr-20 12:29N 24°32' E 118°19'6953492.5
2018-Apr-20 12:17N 35°59' E 120°21'33034956.1
2018-Apr-20 12:17N 30°39' E 122°01'4841805.3
2018-Apr-20 12:00N 23°37' E 117°34'6949459.6
2018-Apr-20 12:00N 24°32' E 118°19'158569794.6
2018-Apr-20 12:00N 22°36' E 120°15'1725107.2
2018-Apr-20 11:58N 24°26' E 117°52'7052991.8
2018-Apr-20 11:44N 35°59' E 120°21'7563298.9
2018-Apr-20 11:30N 23°37' E 117°34'6961837.6
2018-Apr-20 11:30N 24°32' E 118°19'15828488.1
2018-Apr-20 11:30N 22°36' E 120°15'1723168.9
2018-Apr-20 11:27N 24°26' E 117°52'70561879.8
2018-Apr-20 11:26N 35°59' E 120°21'7561768.5
2018-Apr-20 11:00N 23°37' E 117°34'16096198.3
2018-Apr-20 11:00N 22°36' E 120°15'15811869.7
2018-Apr-20 11:00N 24°32' E 118°19'25961.6
2018-Apr-20 10:58N 24°26' E 117°52'2554.2
2018-Apr-20 10:30N 24°32' E 118°19'158569746.6
2018-Apr-20 10:30N 22°36' E 120°15'16013423.2
2018-Apr-20 10:29N 23°37' E 117°34'523801.9
2018-Apr-20 10:29N 24°26' E 117°52'7053666.3
2018-Apr-20 10:17N 35°59' E 120°21'3167525.7
2018-Apr-20 10:15N 30°57' E 122°12'5122168.6
2018-Apr-20 10:00N 22°36' E 120°15'17213433.4
2018-Apr-20 10:00N 24°26' E 117°52'5293280.6
2018-Apr-20 10:00N 23°37' E 117°34'1590.4
2018-Apr-20 09:49N 23°29' E 117°20'1548.4
2018-Apr-20 09:30N 23°37' E 117°34'16030406.6
2018-Apr-20 09:30N 22°36' E 120°15'16827493.4
2018-Apr-20 09:30N 23°31' E 117°23'7644694.9
2018-Apr-20 09:20N 35°59' E 120°21'8032452.3
2018-Apr-20 09:00N 22°36' E 120°15'160115554.9
2018-Apr-20 09:00N 23°37' E 117°34'5223309.9
2018-Apr-20 09:00N 24°26' E 117°52'584318.9
2018-Apr-20 08:59N 23°33' E 117°28'761124532.8
2018-Apr-20 08:59N 35°59' E 120°21'7521570.8
2018-Apr-20 08:30N 23°41' E 117°34'61683.5
2018-Apr-20 08:30N 23°36' E 117°32'16236461.1
2018-Apr-20 08:30N 22°36' E 120°15'17236350.1
2018-Apr-20 08:30N 24°26' E 117°52'70523936.0
2018-Apr-20 08:28N 35°59' E 120°21'8031770.5
2018-Apr-20 08:01N 22°36' E 120°15'164147343.6
2018-Apr-20 08:00N 23°46' E 117°35'438637.7
2018-Apr-20 08:00N 24°26' E 117°52'502031.4
2018-Apr-20 07:59N 23°39' E 117°36'7545333.5
2018-Apr-20 07:50N 35°59' E 120°21'3311023.3
2018-Apr-20 07:31N 30°38' E 122°02'43386638.8
2018-Apr-20 07:30N 24°26' E 117°52'172308962.0
2018-Apr-20 07:30N 22°36' E 120°15'15851633.7
2018-Apr-20 07:30N 23°42' E 117°40'8426.2
2018-Apr-20 07:29N 23°48' E 117°35'7453723.2
2018-Apr-20 07:17N 35°59' E 120°21'33216616.8
2018-Apr-20 07:16N 30°37' E 122°02'4552099.4
2018-Apr-20 07:03N 38°05' E 120°23'92922296.2
2018-Apr-20 07:00N 22°36' E 120°15'9293344112.1
2018-Apr-20 07:00N 38°05' E 120°23'868115784.4
2018-Apr-20 07:00N 23°48' E 117°35'745223394.8
2018-Apr-20 07:00N 35°59' E 120°21'705149249.0
2018-Apr-20 06:59N 24°26' E 117°52'4184.3
2018-Apr-20 06:30N 23°48' E 117°35'165592333.0
2018-Apr-20 06:30N 22°36' E 120°15'928107749.4
2018-Apr-20 06:30N 38°04' E 120°30'829175448.4
2018-Apr-20 06:30N 24°26' E 117°52'70511377.7
2018-Apr-20 06:26N 35°59' E 120°21'7451753.6
2018-Apr-20 06:00N 23°48' E 117°35'8683125356.8
2018-Apr-20 06:00N 38°02' E 120°36'927196255.3
2018-Apr-20 06:00N 22°36' E 120°15'172617924.0
2018-Apr-20 06:00N 24°26' E 117°52'7054235.8
2018-Apr-20 05:50N 35°59' E 120°21'7452270.0
2018-Apr-20 05:30N 23°48' E 117°35'8693127257.2
2018-Apr-20 05:30N 38°01' E 120°42'82838722.4
2018-Apr-20 05:29N 24°26' E 117°52'17214712.8
2018-Apr-20 05:28N 22°36' E 120°15'9251980.8
2018-Apr-20 05:00N 38°00' E 120°49'925416203.5
2018-Apr-20 05:00N 22°36' E 120°15'16348946.5
2018-Apr-20 05:00N 23°44' E 117°35'45435.8
2018-Apr-20 04:54N 24°26' E 117°52'8282111.1
2018-Apr-20 04:30N 37°59' E 120°55'924166330.0
2018-Apr-20 04:30N 22°36' E 120°16'17236355.7
2018-Apr-20 04:30N 24°26' E 117°52'7056951.3
2018-Apr-20 04:24N 35°59' E 120°21'11446864.2
2018-Apr-20 04:14N 19°42' E 109°08'6462889.4
2018-Apr-20 04:00N 22°36' E 120°15'16152553.4
2018-Apr-20 04:00N 23°38' E 117°34'52578729.4
2018-Apr-20 04:00N 19°42' E 109°10'561134659.4
2018-Apr-20 03:59N 24°26' E 117°52'82723821.7
2018-Apr-20 03:57N 37°57' E 121°00'81739733.7
2018-Apr-20 03:56N 24°32' E 118°19'6952298.5
2018-Apr-20 03:38N 35°59' E 120°21'8036368.5
2018-Apr-20 03:30N 22°36' E 120°15'15829986.7
2018-Apr-20 03:30N 24°32' E 118°19'6920596.1
2018-Apr-20 03:30N 23°37' E 117°34'87710454.9
2018-Apr-20 03:25N 37°55' E 121°06'9202255.1
2018-Apr-20 03:00N 22°36' E 120°15'16072105.8
2018-Apr-20 03:00N 23°37' E 117°34'528862.3
2018-Apr-20 03:00N 24°26' E 117°52'2510043.8
2018-Apr-20 03:00N 24°32' E 118°19'158323.7
2018-Apr-20 02:30N 22°36' E 120°15'160576878.6
2018-Apr-20 02:30N 23°37' E 117°34'5218602.7
2018-Apr-20 02:30N 24°26' E 117°52'8213423.8
2018-Apr-20 02:16N 37°48' E 121°14'8213194.3
2018-Apr-20 02:00N 24°26' E 117°52'17277240.5
2018-Apr-20 02:00N 22°36' E 120°15'1604006.3
2018-Apr-20 01:58N 23°37' E 117°34'87194981.5
2018-Apr-20 01:57N 37°47' E 121°16'1161111.7
2018-Apr-20 01:51N 35°59' E 120°21'2744081.0
2018-Apr-20 01:47N 31°29' E 121°24'4673093.0
2018-Apr-20 01:38N 24°11' E 118°20'29230.9
2018-Apr-20 01:31N 24°26' E 117°52'817490278.0
2018-Apr-20 01:30N 37°44' E 121°19'869183927.1
2018-Apr-20 01:30N 23°37' E 117°34'51520377.3
2018-Apr-20 01:29N 31°31' E 121°21'467280213.6
2018-Apr-20 01:29N 24°12' E 118°21'143102881.0
2018-Apr-20 01:28N 22°36' E 120°15'8036410.5
2018-Apr-20 01:21N 35°59' E 120°21'113330.6
2018-Apr-20 01:00N 37°41' E 121°22'866445524.6
2018-Apr-20 01:00N 23°37' E 117°34'593271.9
2018-Apr-20 00:59N 24°15' E 118°24'1426410.4
2018-Apr-20 00:58N 22°36' E 120°15'8032144.7
2018-Apr-20 00:35N 35°59' E 120°21'8039767.3
2018-Apr-20 00:30N 22°36' E 120°15'172617938.0
2018-Apr-20 00:30N 24°26' E 117°52'812974825.7
2018-Apr-20 00:30N 37°38' E 121°25'86484052.0
2018-Apr-20 00:30N 23°37' E 117°34'7564725.1
2018-Apr-20 00:20N 35°59' E 120°21'8032439.8
2018-Apr-20 00:00N 22°36' E 120°15'160576592.7
2018-Apr-20 00:00N 23°37' E 117°35'527143.8
2018-Apr-20 00:00N 24°26' E 117°52'80921260.1
2018-Apr-19 23:58N 37°34' E 121°25'1081515.1
2018-Apr-19 23:53N 35°59' E 120°21'7561975.0
2018-Apr-19 23:30N 23°37' E 117°34'5220678.8
2018-Apr-19 23:30N 24°26' E 117°52'17221308.7
2018-Apr-19 23:30N 22°36' E 120°15'90025129.1
2018-Apr-19 23:28N 37°34' E 121°25'108272.6
2018-Apr-19 23:04N 35°59' E 120°21'80314172.6
2018-Apr-19 23:00N 22°36' E 120°15'17261795.2
2018-Apr-19 23:00N 24°26' E 117°52'5293105.8
2018-Apr-19 23:00N 23°37' E 117°34'86119988.0
2018-Apr-19 22:58N 37°34' E 121°25'108734.8
2018-Apr-19 22:49N 35°59' E 120°21'7562465.3
2018-Apr-19 22:30N 23°37' E 117°34'160288415.9
2018-Apr-19 22:30N 22°36' E 120°15'17216262.3
2018-Apr-19 22:30N 24°26' E 117°52'80923117.0
2018-Apr-19 22:28N 37°34' E 121°25'1084528.5
2018-Apr-19 22:26N 35°59' E 120°21'8031868.9
2018-Apr-19 22:00N 22°36' E 120°15'160288415.9
2018-Apr-19 22:00N 23°37' E 117°34'86118663.8
2018-Apr-19 21:58N 37°34' E 121°25'108871.3
2018-Apr-19 21:50N 35°59' E 120°21'7542287.0
2018-Apr-19 21:30N 23°39' E 117°34'5025661.6
2018-Apr-19 21:30N 24°26' E 117°52'17234331.4
2018-Apr-19 21:30N 22°36' E 120°15'90022991.5
2018-Apr-19 21:28N 37°34' E 121°25'108695.4
2018-Apr-19 21:18N 35°59' E 120°21'8032689.6
2018-Apr-19 21:00N 22°36' E 120°15'17277244.0
2018-Apr-19 21:00N 24°26' E 117°52'45161642.4
2018-Apr-19 21:00N 23°44' E 117°35'85419697.5
2018-Apr-19 20:58N 37°34' E 121°25'108261.7
2018-Apr-19 20:33N 35°59' E 120°21'33259719.0
2018-Apr-19 20:33N 30°38' E 122°03'47413647.9
2018-Apr-19 20:30N 23°48' E 117°35'849179854.8
2018-Apr-19 20:30N 37°34' E 121°25'809970961.6
2018-Apr-19 20:30N 24°26' E 117°52'4331204.7
2018-Apr-19 20:09N 30°38' E 122°03'3323890.5
2018-Apr-19 20:03N 35°59' E 120°21'80316521.9
2018-Apr-19 20:01N 22°36' E 120°15'17251497.2
2018-Apr-19 20:00N 24°26' E 117°52'413494.3
2018-Apr-19 20:00N 23°48' E 117°35'850203892.5
2018-Apr-19 19:59N 37°35' E 121°23'4188805.3
2018-Apr-19 19:57N 30°38' E 122°03'540938480.0
2018-Apr-19 19:48N 49°18' W 122°54'5215722048.9
2018-Apr-19 19:48N 35°59' E 120°21'7452548.2
2018-Apr-19 19:30N 23°48' E 117°35'4116304.4
2018-Apr-19 19:30N 24°26' E 117°52'80980941.2
2018-Apr-19 19:29N 37°35' E 121°23'901648814.9
2018-Apr-19 19:29N 22°36' E 120°15'5633821.7
2018-Apr-19 19:20N 31°58' E 120°25'2414865.0
2018-Apr-19 19:17N 35°59' E 120°21'521357927.1
2018-Apr-19 19:12N 49°18' W 122°55'595930779.7
2018-Apr-19 19:00N 23°48' E 117°35'417722.1
2018-Apr-19 19:00N 24°26' E 117°52'172617938.0
2018-Apr-19 19:00N 22°36' E 120°15'90169023.3
2018-Apr-19 18:59N 37°35' E 121°23'1087933.1
2018-Apr-19 18:59N 35°59' E 120°21'240172934.9
2018-Apr-19 18:58N 31°59' E 120°26'541044060.5
2018-Apr-19 18:51N 49°18' W 122°58'595817326.3
2018-Apr-19 18:30N 23°47' E 117°35'16431126.2
2018-Apr-19 18:30N 22°36' E 120°15'589821231617.2
2018-Apr-19 18:30N 49°18' W 122°54'54133247740.6
2018-Apr-19 18:30N 31°59' E 120°26'34030555.3
2018-Apr-19 18:29N 37°35' E 121°23'809126690.6
2018-Apr-19 18:29N 24°26' E 117°52'7013778.5
2018-Apr-19 18:18N 35°55' E 120°19'7012378.9
2018-Apr-19 18:00N 24°26' E 117°52'42150040.9
2018-Apr-19 18:00N 23°47' E 117°35'16459139.7
2018-Apr-19 18:00N 22°36' E 120°15'90185369.8
2018-Apr-19 17:59N 37°35' E 121°23'1153497.5
2018-Apr-19 17:57N 35°53' E 120°17'522327855.4
2018-Apr-19 17:46N 49°18' W 122°54'589822611.0
2018-Apr-19 17:30N 22°36' E 120°15'16428160.9
2018-Apr-19 17:30N 23°47' E 117°35'85163787.7
2018-Apr-19 17:29N 37°35' E 121°23'34015872.9
2018-Apr-19 17:28N 31°59' E 120°26'541383273.3
2018-Apr-19 17:24N 49°18' W 122°54'596115102.9
2018-Apr-19 17:00N 23°47' E 117°35'164591180.4
2018-Apr-19 17:00N 22°36' E 120°15'90148418.1
2018-Apr-19 16:59N 37°35' E 121°23'5091458149.0
2018-Apr-19 16:59N 49°18' W 122°54'591588727.2
2018-Apr-19 16:55N 24°26' E 117°52'42103.3
2018-Apr-19 16:30N 23°47' E 117°35'424055.7
2018-Apr-19 16:30N 24°26' E 117°52'80991058.9
2018-Apr-19 16:29N 37°35' E 121°23'5090188923.6
2018-Apr-19 16:28N 49°18' W 122°54'589713001.2
2018-Apr-19 16:00N 22°36' E 120°15'16358814.4
2018-Apr-19 16:00N 23°45' E 117°35'4415852.7
2018-Apr-19 16:00N 24°26' E 117°52'5915851771.0
2018-Apr-19 16:00N 49°18' W 122°54'5090704837.2
2018-Apr-19 15:59N 37°35' E 121°23'7981872.5
2018-Apr-19 15:34N 24°32' E 118°19'641189.2
2018-Apr-19 15:30N 23°42' E 117°35'6446382.5
2018-Apr-19 15:30N 24°32' E 118°19'253615.8
2018-Apr-19 15:30N 24°26' E 117°52'17219932.1
2018-Apr-19 15:29N 22°36' E 120°15'901360448.0
2018-Apr-19 15:29N 37°35' E 121°23'80778556.9
2018-Apr-19 15:29N 24°26' E 118°03'5907373053.1
2018-Apr-19 15:28N 49°17' W 122°54'596913143.4
2018-Apr-19 15:00N 23°38' E 117°35'6716163.3
2018-Apr-19 15:00N 24°32' E 118°19'15837981.0
2018-Apr-19 15:00N 22°36' E 120°15'17221306.8
2018-Apr-19 14:59N 24°26' E 117°52'809242823.7
2018-Apr-19 14:59N 37°35' E 121°23'8091675.6
2018-Apr-19 14:30N 24°26' E 117°52'52186068.2
2018-Apr-19 14:30N 23°37' E 117°35'16020594.8
2018-Apr-19 14:30N 22°36' E 120°15'90198304.6
2018-Apr-19 14:29N 37°35' E 121°23'79816424.1
2018-Apr-19 14:26N 24°32' E 118°19'4601879.9
2018-Apr-19 14:12N 31°58' E 120°27'5632931.7
2018-Apr-19 14:00N 22°36' E 120°15'160288331.5
2018-Apr-19 14:00N 23°37' E 117°35'5210337.1
2018-Apr-19 14:00N 24°26' E 117°52'472113382.7
2018-Apr-19 14:00N 31°58' E 120°27'34067953.2
2018-Apr-19 13:59N 37°35' E 121°23'79853226.3
2018-Apr-19 13:58N 24°32' E 118°19'4621343.1
2018-Apr-19 13:38N 32°00' E 120°27'4623840.1
2018-Apr-19 13:31N 24°32' E 118°19'4611660226.2
2018-Apr-19 13:31N 31°59' E 120°27'564289928.0
2018-Apr-19 13:30N 22°36' E 120°15'172123582.0
2018-Apr-19 13:30N 24°26' E 117°52'80946252.1
2018-Apr-19 13:29N 37°35' E 121°23'86181553.2
2018-Apr-19 13:29N 23°37' E 117°34'52419859.9
2018-Apr-19 13:27N 31°58' E 120°27'5581452.5
2018-Apr-19 13:04N 22°57' E 117°54'891533.7
2018-Apr-19 13:00N 24°26' E 117°52'52185944.6
2018-Apr-19 13:00N 23°37' E 117°34'6941160.1
2018-Apr-19 13:00N 24°32' E 118°19'15811171.2
2018-Apr-19 13:00N 22°36' E 120°15'901202753.3
2018-Apr-19 12:59N 37°35' E 121°23'89723736.3
2018-Apr-19 12:57N 22°57' E 117°54'98221.7
2018-Apr-19 12:30N 24°32' E 118°19'98118043.4
2018-Apr-19 12:30N 22°57' E 117°54'132474578.9
2018-Apr-19 12:30N 22°36' E 120°15'16019890.4
2018-Apr-19 12:30N 23°37' E 117°34'86188548.9
2018-Apr-19 12:29N 37°35' E 121°23'80930998.8
2018-Apr-19 12:28N 24°26' E 117°52'90197.7
2018-Apr-19 12:00N 22°57' E 117°54'13211574.4
2018-Apr-19 12:00N 22°36' E 120°15'15894955.1
2018-Apr-19 12:00N 24°32' E 118°19'798102650.8
2018-Apr-19 11:59N 37°35' E 121°23'809194258.9
2018-Apr-19 11:59N 24°26' E 117°52'172360.5
2018-Apr-19 11:30N 22°36' E 120°15'13267790.6
2018-Apr-19 11:30N 22°56' E 117°54'9870884.9
2018-Apr-19 11:30N 24°32' E 118°19'251673.9
2018-Apr-19 11:29N 24°26' E 117°52'809485633.4
2018-Apr-19 11:29N 37°35' E 121°23'86112106.8
2018-Apr-19 11:25N 23°37' E 117°34'52127.0
2018-Apr-19 11:00N 24°26' E 117°52'2512913.5
2018-Apr-19 11:00N 24°32' E 118°19'798319191.5
2018-Apr-19 11:00N 37°34' E 121°25'896230514.9
2018-Apr-19 11:00N 22°56' E 117°54'13222596.3
2018-Apr-19 11:00N 22°36' E 120°15'132271.2
2018-Apr-19 10:30N 22°56' E 117°54'4414536.3
2018-Apr-19 10:30N 23°37' E 117°34'160144299.7
2018-Apr-19 10:30N 22°36' E 120°15'17244139.4
2018-Apr-19 10:30N 24°26' E 117°52'80966194.3
2018-Apr-19 10:29N 37°34' E 121°25'3393055.4
2018-Apr-19 10:23N 31°58' E 120°25'118.0
2018-Apr-19 10:18N 31°59' E 120°26'1 2.6
2018-Apr-19 10:00N 31°58' E 120°26'5632025824.5
2018-Apr-19 10:00N 22°36' E 120°15'132237159.2
2018-Apr-19 10:00N 22°56' E 117°54'447995.0
2018-Apr-19 10:00N 23°37' E 117°34'529808.2
2018-Apr-19 10:00N 24°26' E 117°52'809121357.1
2018-Apr-19 09:59N 37°34' E 121°25'3393425.5
2018-Apr-19 09:53N 31°59' E 120°26'5251376.5
2018-Apr-19 09:30N 23°37' E 117°34'16033952.4
2018-Apr-19 09:30N 22°36' E 120°15'563289415.8
2018-Apr-19 09:30N 31°58' E 120°26'47251516.9
2018-Apr-19 09:29N 24°26' E 117°52'809182036.9
2018-Apr-19 09:29N 37°34' E 121°25'8966266.4
2018-Apr-19 09:21N 22°56' E 117°54'90266.7
2018-Apr-19 09:00N 24°26' E 117°52'52186334.4
2018-Apr-19 09:00N 23°37' E 117°34'16022200.3
2018-Apr-19 09:00N 22°36' E 120°15'563225103.6
2018-Apr-19 09:00N 31°58' E 120°26'33930534.2
2018-Apr-19 08:59N 37°34' E 121°25'89689644.9
2018-Apr-19 08:59N 22°56' E 117°54'5335330.5
2018-Apr-19 08:53N 31°14' E 121°30'4511222.4
2018-Apr-19 08:30N 24°26' E 117°52'452135642.1
2018-Apr-19 08:30N 31°15' E 121°30'7042001.0
2018-Apr-19 08:30N 31°58' E 120°26'563675296.4
2018-Apr-19 08:30N 22°36' E 120°15'90058936.2
2018-Apr-19 08:29N 37°34' E 121°25'8965711.9
2018-Apr-19 08:20N 22°56' E 117°54'132409.6
2018-Apr-19 08:00N 22°36' E 120°15'161581321.8
2018-Apr-19 08:00N 23°41' E 117°35'520312160.8
2018-Apr-19 08:00N 31°58' E 120°26'55980431.7
2018-Apr-19 08:00N 22°56' E 117°55'89770170.1
2018-Apr-19 07:59N 37°34' E 121°25'339719.0
2018-Apr-19 07:31N 31°59' E 120°26'47363048.7
2018-Apr-19 07:30N 24°26' E 117°52'4479605.8
2018-Apr-19 07:30N 23°45' E 117°35'16348988.9
2018-Apr-19 07:30N 22°36' E 120°15'90051450.5
2018-Apr-19 07:29N 37°34' E 121°25'3396822.4
2018-Apr-19 07:26N 31°58' E 120°26'1 5.1
2018-Apr-19 07:18N 31°59' E 120°26'4731646.4
2018-Apr-19 07:01N 24°26' E 117°52'4148959.7
2018-Apr-19 07:00N 23°48' E 117°35'16542301.4
2018-Apr-19 07:00N 22°36' E 120°15'90052279.3
2018-Apr-19 06:59N 37°34' E 121°25'3395066.8
2018-Apr-19 06:55N 31°58' E 120°26'1 4.7
2018-Apr-19 06:46N 31°59' E 120°26'4731795.8
2018-Apr-19 06:30N 24°26' E 117°52'17224721.9
2018-Apr-19 06:30N 22°36' E 120°16'16516015.0
2018-Apr-19 06:29N 23°48' E 117°35'849436744.1
2018-Apr-19 06:29N 37°34' E 121°25'33812686.5
2018-Apr-19 06:28N 31°59' E 120°27'0 5.2
2018-Apr-19 06:22N 31°59' E 120°26'5131420.8
2018-Apr-19 06:00N 23°48' E 117°35'4118366.9
2018-Apr-19 06:00N 24°26' E 117°52'80942208.7
2018-Apr-19 05:59N 37°34' E 121°25'900147329.7
2018-Apr-19 05:59N 22°36' E 120°15'56314587.0
2018-Apr-19 05:56N 31°59' E 120°26'115278.0
2018-Apr-19 05:32N 30°38' E 122°03'43323994.3
2018-Apr-19 05:31N 24°26' E 117°52'4137071.9
2018-Apr-19 05:30N 23°48' E 117°35'16439466.5
2018-Apr-19 05:30N 22°36' E 120°15'90052279.0
2018-Apr-19 05:29N 37°34' E 121°25'33987084.0
2018-Apr-19 05:29N 31°59' E 120°26'11541495.2
2018-Apr-19 05:29N 30°38' E 122°03'4921044.9
2018-Apr-19 05:01N 22°36' E 120°15'172308948.0
2018-Apr-19 05:00N 24°26' E 117°52'810364553.6
2018-Apr-19 05:00N 37°35' E 121°25'851235684.0
2018-Apr-19 05:00N 23°48' E 117°35'5147945.3
2018-Apr-19 04:56N 31°59' E 120°26'48249.3
2018-Apr-19 04:45N 31°37' E 121°17'4532250.6
2018-Apr-19 04:33N 24°32' E 118°19'601581.5
2018-Apr-19 04:30N 23°48' E 117°35'164118352.0
2018-Apr-19 04:30N 22°36' E 120°15'17218173.4
2018-Apr-19 04:30N 24°26' E 117°52'81071154.4
2018-Apr-19 04:29N 37°36' E 121°25'799130795.3
2018-Apr-19 04:29N 24°32' E 118°19'4614186.4
2018-Apr-19 04:22N 31°59' E 120°26'89342.8
2018-Apr-19 04:06N 31°09' E 121°53'4984990.9
2018-Apr-19 04:00N 23°48' E 117°35'4981791309.7
2018-Apr-19 04:00N 31°09' E 121°54'520374736.4
2018-Apr-19 04:00N 22°36' E 120°15'172205970.0
2018-Apr-19 04:00N 24°26' E 117°52'2545197.2
2018-Apr-19 04:00N 24°32' E 118°19'79936891.0
2018-Apr-19 03:59N 37°36' E 121°25'3616429.7
2018-Apr-19 03:56N 31°35' E 121°19'516512.9
2018-Apr-19 03:55N 31°59' E 120°26'5161255.3
2018-Apr-19 03:30N 23°46' E 117°35'16465450.6
2018-Apr-19 03:30N 22°36' E 120°15'172617909.9
2018-Apr-19 03:30N 24°26' E 117°52'2545197.2
2018-Apr-19 03:30N 24°32' E 118°19'79936424.0
2018-Apr-19 03:29N 37°36' E 121°25'36215880.1
2018-Apr-19 03:28N 31°34' E 121°20'4426213.2
2018-Apr-19 03:27N 31°06' E 121°59'536160667.0
2018-Apr-19 03:27N 22°57' E 117°55'55910586.9
2018-Apr-19 03:24N 31°59' E 120°26'120694.5
2018-Apr-19 03:14N 30°40' E 122°12'71562.6
2018-Apr-19 03:06N 31°37' E 121°23'5165398.3
2018-Apr-19 03:00N 23°42' E 117°35'162291510.6
2018-Apr-19 03:00N 22°36' E 120°15'54074810.7
2018-Apr-19 03:00N 31°33' E 121°20'450324096.7
2018-Apr-19 03:00N 24°32' E 118°19'45586144.7
2018-Apr-19 03:00N 31°37' E 121°23'35933107.6
2018-Apr-19 02:59N 37°36' E 121°25'39217653.9
2018-Apr-19 02:58N 31°05' E 122°03'241442.8
2018-Apr-19 02:57N 30°41' E 122°12'51813526.0
2018-Apr-19 02:54N 22°57' E 117°55'5597648.4
2018-Apr-19 02:50N 31°59' E 120°26'4731460.0
2018-Apr-19 02:30N 24°26' E 117°52'5089801.5
2018-Apr-19 02:30N 23°39' E 117°35'16125147.7
2018-Apr-19 02:30N 22°36' E 120°15'51750344.6
2018-Apr-19 02:29N 31°03' E 122°08'39445745.9
2018-Apr-19 02:29N 37°36' E 121°25'34025506.6
2018-Apr-19 02:28N 31°59' E 120°26'11810349.9
2018-Apr-19 02:27N 30°43' E 122°12'5201257.8
2018-Apr-19 02:03N 22°57' E 117°55'1313429.2
2018-Apr-19 02:00N 22°36' E 120°15'17256176.2
2018-Apr-19 02:00N 24°26' E 117°52'528857.5
2018-Apr-19 02:00N 23°37' E 117°35'441057.7
2018-Apr-19 01:57N 22°57' E 117°55'89838465.6
2018-Apr-19 01:56N 37°36' E 121°25'41219007.3
2018-Apr-19 01:55N 30°46' E 122°13'141874.5
2018-Apr-19 01:54N 30°60' E 122°13'108558.3
2018-Apr-19 01:43N 31°59' E 120°26'5252474.9
2018-Apr-19 01:30N 23°37' E 117°35'160288351.7
2018-Apr-19 01:30N 22°36' E 120°15'172102987.3
2018-Apr-19 01:30N 24°26' E 117°52'81063420.2
2018-Apr-19 01:29N 37°36' E 121°25'40121548.1
2018-Apr-19 01:28N 30°57' E 122°14'1114594.2
2018-Apr-19 01:26N 31°59' E 120°26'5631304.8
2018-Apr-19 01:00N 22°36' E 120°15'17222886.6
2018-Apr-19 01:00N 24°26' E 117°52'81044202.0
2018-Apr-19 00:59N 37°36' E 121°25'862193906.3
2018-Apr-19 00:59N 23°37' E 117°35'5258742.3
2018-Apr-19 00:55N 31°59' E 120°26'5594423.0
2018-Apr-19 00:47N 22°56' E 117°54'5297103.5
2018-Apr-19 00:43N 30°52' E 122°14'11529.9
2018-Apr-19 00:42N 31°01' E 122°07'5062691.4
2018-Apr-19 00:30N 23°37' E 117°35'16026212.0
2018-Apr-19 00:30N 22°36' E 120°15'17288276.9
2018-Apr-19 00:30N 24°26' E 117°52'452101683.7
2018-Apr-19 00:30N 30°54' E 122°14'40429679.1
2018-Apr-19 00:29N 37°36' E 121°25'89876957.7
2018-Apr-19 00:28N 22°56' E 117°54'55918636.6
2018-Apr-19 00:26N 31°59' E 120°26'5251176.0
2018-Apr-19 00:00N 23°37' E 117°34'160192263.5
2018-Apr-19 00:00N 22°36' E 120°15'17241194.9
2018-Apr-18 23:59N 24°26' E 117°52'810108049.3
2018-Apr-18 23:59N 37°36' E 121°25'4014426.0
2018-Apr-18 23:53N 30°57' E 122°14'533213369.9
2018-Apr-18 23:53N 22°56' E 117°54'55919355.8
2018-Apr-18 23:52N 31°59' E 120°26'108555.4
2018-Apr-18 23:40N 30°59' E 122°12'5063224.3
2018-Apr-18 23:30N 23°37' E 117°34'16044369.1
2018-Apr-18 23:30N 22°36' E 120°15'172102989.7
2018-Apr-18 23:30N 24°26' E 117°52'45632824.1
2018-Apr-18 23:29N 30°59' E 122°13'1214.1
2018-Apr-18 23:29N 30°58' E 122°12'399130661.9
2018-Apr-18 23:29N 37°36' E 121°25'34039494.7
2018-Apr-18 23:28N 31°59' E 120°26'5251128.2
2018-Apr-18 23:00N 23°37' E 117°34'160576766.2
2018-Apr-18 23:00N 22°36' E 120°15'51622666.2
2018-Apr-18 22:59N 31°02' E 122°10'395109507.8
2018-Apr-18 22:59N 37°36' E 121°25'81091166.6
2018-Apr-18 22:58N 24°26' E 117°52'52111.5
2018-Apr-18 22:30N 23°37' E 117°34'16032043.1
2018-Apr-18 22:30N 22°36' E 120°15'51764195.9
2018-Apr-18 22:30N 31°03' E 122°06'45782189.2
2018-Apr-18 22:29N 24°26' E 117°52'810100597.6
2018-Apr-18 22:29N 37°36' E 121°25'118378.6
2018-Apr-18 22:10N 35°52' E 120°15'7964923.9
2018-Apr-18 22:00N 22°36' E 120°15'17236349.3
2018-Apr-18 22:00N 24°26' E 117°52'52186519.3
2018-Apr-18 22:00N 23°37' E 117°34'86239782.4
2018-Apr-18 21:59N 37°36' E 121°25'3927427.4
2018-Apr-18 21:56N 31°05' E 122°01'30219748.3
2018-Apr-18 21:55N 35°54' E 120°17'7981970.1
2018-Apr-18 21:30N 22°36' E 120°15'90233470.6
2018-Apr-18 21:29N 37°36' E 121°25'810265211.8
2018-Apr-18 21:29N 24°26' E 117°52'4552368.1
2018-Apr-18 21:17N 31°07' E 121°55'92473.4
2018-Apr-18 21:05N 31°59' E 120°26'891076.0
2018-Apr-18 21:01N 31°08' E 121°53'507608291.5
2018-Apr-18 21:00N 23°37' E 117°34'160577381.7
2018-Apr-18 21:00N 22°36' E 120°15'90233819.5
2018-Apr-18 20:59N 37°36' E 121°25'81012105.2
2018-Apr-18 20:55N 24°26' E 117°52'707110584.3
2018-Apr-18 20:54N 36°01' E 120°19'7541887.6
2018-Apr-18 20:30N 23°41' E 117°35'16232315.9
2018-Apr-18 20:30N 22°36' E 120°15'17229425.6
2018-Apr-18 20:30N 24°26' E 117°52'81048622.5
2018-Apr-18 20:29N 37°36' E 121°25'1091423.0
2018-Apr-18 20:24N 36°02' E 120°15'3003520.2
2018-Apr-18 20:19N 31°12' E 121°49'5001609.8
2018-Apr-18 20:00N 23°46' E 117°35'435171.9
2018-Apr-18 20:00N 24°26' E 117°52'172123590.4
2018-Apr-18 20:00N 22°36' E 120°15'524269726.1
2018-Apr-18 20:00N 31°14' E 121°47'38223323.4
2018-Apr-18 19:59N 37°36' E 121°25'1121764.1
2018-Apr-18 19:55N 35°60' E 120°12'241732.5
2018-Apr-18 19:35N 31°59' E 120°26'4735751.2
2018-Apr-18 19:30N 24°26' E 117°52'41146644.0
2018-Apr-18 19:30N 23°48' E 117°35'16414098.5
2018-Apr-18 19:30N 22°36' E 120°15'90270577.9
2018-Apr-18 19:29N 37°36' E 121°25'34036010.5
2018-Apr-18 19:28N 31°59' E 120°26'2411096.0
2018-Apr-18 19:15N 35°60' E 120°12'7443026.2
2018-Apr-18 19:00N 23°48' E 117°35'165296138.1
2018-Apr-18 19:00N 22°36' E 120°15'17216701.0
2018-Apr-18 19:00N 24°26' E 117°52'47339590.6
2018-Apr-18 18:59N 31°59' E 120°26'340153039.5
2018-Apr-18 18:59N 37°36' E 121°25'1123706.1
2018-Apr-18 18:57N 35°60' E 120°12'8041822.6
2018-Apr-18 18:31N 22°36' E 120°15'164197375.5
2018-Apr-18 18:30N 23°48' E 117°35'413130.6
2018-Apr-18 18:30N 24°26' E 117°52'81055044.0
2018-Apr-18 18:29N 37°36' E 121°25'34016109.4
2018-Apr-18 18:28N 31°59' E 120°26'2412197.5
2018-Apr-18 18:21N 35°60' E 120°12'7584663.1
2018-Apr-18 18:11N 23°35' E 117°30'163909.5
2018-Apr-18 18:00N 22°36' E 120°15'17222067.2
2018-Apr-18 18:00N 24°26' E 117°52'4212462.7
2018-Apr-18 18:00N 23°48' E 117°35'51447464.9
2018-Apr-18 17:59N 31°59' E 120°26'34058300.8
2018-Apr-18 17:59N 37°36' E 121°25'8101710.0
2018-Apr-18 17:30N 24°26' E 117°52'4250005.3
2018-Apr-18 17:30N 23°48' E 117°35'164591761.8
2018-Apr-18 17:30N 22°36' E 120°16'804170246.1
2018-Apr-18 17:30N 35°60' E 120°12'1125533.8
2018-Apr-18 17:29N 37°36' E 121°25'34016771.4
2018-Apr-18 17:28N 31°59' E 120°26'4731048.9
2018-Apr-18 17:01N 24°26' E 117°52'4249978.7
2018-Apr-18 17:00N 23°48' E 117°35'16413150.7
2018-Apr-18 17:00N 22°36' E 120°16'14814842.9
2018-Apr-18 16:59N 24°10' E 118°11'823134608.2
2018-Apr-18 16:59N 37°36' E 121°25'34034008.8
2018-Apr-18 16:58N 31°59' E 120°26'5631223.5
2018-Apr-18 16:31N 22°36' E 120°15'172205932.6
2018-Apr-18 16:30N 24°26' E 117°52'2124637.6
2018-Apr-18 16:30N 24°14' E 118°10'81929468.6
2018-Apr-18 16:29N 37°36' E 121°25'34011549.9
2018-Apr-18 16:27N 31°59' E 120°26'5631275.9
2018-Apr-18 16:01N 22°36' E 120°15'154185130.5
2018-Apr-18 16:00N 24°18' E 118°10'4516044.4
2018-Apr-18 16:00N 23°48' E 117°35'422630.5
2018-Apr-18 15:59N 24°26' E 117°52'473283736.3
2018-Apr-18 15:59N 31°59' E 120°26'34040809.8
2018-Apr-18 15:59N 37°36' E 121°25'9021913.0
2018-Apr-18 15:30N 22°36' E 120°15'16465728.1
2018-Apr-18 15:30N 23°48' E 117°35'514185155.2
2018-Apr-18 15:30N 31°59' E 120°26'473567713.2
2018-Apr-18 15:30N 24°22' E 118°08'81236067.9
2018-Apr-18 15:29N 37°36' E 121°25'81085803.8
2018-Apr-18 15:28N 24°26' E 117°52'25129.7
2018-Apr-18 15:17N 24°32' E 118°19'60224.3
2018-Apr-18 15:00N 23°48' E 117°35'4221422.3
2018-Apr-18 15:00N 24°26' E 117°52'17225739.8
2018-Apr-18 15:00N 22°36' E 120°15'90245087.8
2018-Apr-18 14:59N 37°36' E 121°25'79947958.3
2018-Apr-18 14:58N 24°32' E 118°19'4617207.9
2018-Apr-18 14:54N 31°59' E 120°26'2413807.1
2018-Apr-18 14:50N 35°60' E 120°12'8042467.2
2018-Apr-18 14:31N 22°36' E 120°15'164147888.2
2018-Apr-18 14:30N 23°48' E 117°35'428329.8
2018-Apr-18 14:30N 24°26' E 117°52'704507008.4
2018-Apr-18 14:30N 35°60' E 120°12'24128000.1
2018-Apr-18 14:30N 31°59' E 120°26'461165786.5
2018-Apr-18 14:29N 24°32' E 118°19'79970183.4
2018-Apr-18 14:29N 37°36' E 121°25'8521808.6
2018-Apr-18 14:00N 23°47' E 117°35'6154615.3
2018-Apr-18 14:00N 24°32' E 118°19'15811865.7
2018-Apr-18 14:00N 22°36' E 120°15'90261251.8
2018-Apr-18 13:59N 37°36' E 121°25'1125459.0
2018-Apr-18 13:57N 35°60' E 120°12'2416200.2
2018-Apr-18 13:55N 31°59' E 120°26'47324320.0
2018-Apr-18 13:54N 24°26' E 117°52'45115.1
2018-Apr-18 13:30N 23°44' E 117°35'45162278.1
2018-Apr-18 13:30N 24°26' E 117°52'4731702397.0
2018-Apr-18 13:30N 31°59' E 120°26'461552607.8
2018-Apr-18 13:30N 24°32' E 118°19'15871206.3
2018-Apr-18 13:30N 22°36' E 120°15'90234908.1
2018-Apr-18 13:29N 37°36' E 121°25'112939.5
2018-Apr-18 13:22N 35°60' E 120°12'8042289.7
2018-Apr-18 13:00N 22°36' E 120°15'17268653.5
2018-Apr-18 13:00N 24°26' E 117°52'252658.5
2018-Apr-18 13:00N 24°32' E 118°19'79944961.2
2018-Apr-18 12:59N 37°36' E 121°25'3407652.0
2018-Apr-18 12:56N 31°59' E 120°26'2411850.8
2018-Apr-18 12:48N 35°60' E 120°12'3202082.0
2018-Apr-18 12:39N 30°56' E 122°14'5043556.7
2018-Apr-18 12:30N 23°37' E 117°35'160288312.3
2018-Apr-18 12:30N 22°36' E 120°15'158189910.2
2018-Apr-18 12:30N 24°32' E 118°19'2530131.5
2018-Apr-18 12:30N 24°26' E 117°52'81029173.5
2018-Apr-18 12:29N 37°36' E 121°25'1124867.3
2018-Apr-18 12:27N 35°60' E 120°12'2411561.2
2018-Apr-18 12:18N 31°59' E 120°26'4731618.2
2018-Apr-18 12:00N 24°26' E 117°52'47356745.2
2018-Apr-18 12:00N 31°59' E 120°26'46047365.2
2018-Apr-18 11:59N 24°32' E 118°19'79963944.9
2018-Apr-18 11:59N 37°36' E 121°25'86221853.3
2018-Apr-18 11:56N 23°37' E 117°35'16013706.3
2018-Apr-18 11:56N 22°36' E 120°15'8042941.4
2018-Apr-18 11:39N 35°60' E 120°12'6944654.6
2018-Apr-18 11:30N 24°32' E 118°19'695260.3
2018-Apr-18 11:29N 23°37' E 117°35'5223320.6
2018-Apr-18 11:29N 24°26' E 117°52'17234329.1
2018-Apr-18 11:29N 22°36' E 120°15'902141156.7
2018-Apr-18 11:29N 37°36' E 121°25'1121400.6
2018-Apr-18 11:24N 35°60' E 120°12'7561940.3
2018-Apr-18 11:00N 23°37' E 117°35'6919023.3
2018-Apr-18 11:00N 24°32' E 118°19'15827130.8
2018-Apr-18 11:00N 22°36' E 120°15'17236348.5
2018-Apr-18 11:00N 24°26' E 117°52'8916880.4
2018-Apr-18 10:59N 22°57' E 117°54'89780761.7
2018-Apr-18 10:59N 37°36' E 121°25'1091446.4
2018-Apr-18 10:54N 36°02' E 120°15'2432807.5
2018-Apr-18 10:49N 31°59' E 120°26'4731536.3
2018-Apr-18 10:30N 24°26' E 117°52'2530131.5
2018-Apr-18 10:30N 24°32' E 118°19'6941253.9
2018-Apr-18 10:30N 23°37' E 117°35'86230727.0
2018-Apr-18 10:29N 37°36' E 121°25'902360731.3
2018-Apr-18 10:28N 22°36' E 120°15'158338.3
2018-Apr-18 10:00N 24°32' E 118°19'2518078.9
2018-Apr-18 10:00N 24°26' E 117°52'17261793.8
2018-Apr-18 10:00N 22°36' E 120°15'160287979.1
2018-Apr-18 10:00N 23°37' E 117°35'8623103092.4
2018-Apr-18 10:00N 37°36' E 121°25'10930252.0
2018-Apr-18 10:00N 35°59' E 120°21'792407476.5
2018-Apr-18 10:00N 22°57' E 117°54'89182.5
2018-Apr-18 09:30N 24°26' E 117°52'524559.3
2018-Apr-18 09:30N 23°37' E 117°35'16048011.9
2018-Apr-18 09:30N 22°36' E 120°15'9007332.2
2018-Apr-18 09:22N 37°34' E 121°23'1076231.6
2018-Apr-18 09:21N 35°59' E 120°22'7136154.9
2018-Apr-18 09:14N 24°15' E 118°09'50211.7
2018-Apr-18 09:00N 23°37' E 117°34'525641.2
2018-Apr-18 09:00N 24°17' E 118°10'1917013.5
2018-Apr-18 08:59N 24°26' E 117°52'17241194.9
2018-Apr-18 08:59N 22°36' E 120°15'90053127.6
2018-Apr-18 08:58N 37°34' E 121°23'107482.3
2018-Apr-18 08:45N 35°59' E 120°22'8033357.7
2018-Apr-18 08:31N 22°36' E 120°15'160144174.0
2018-Apr-18 08:30N 23°37' E 117°35'756108853.4
2018-Apr-18 08:30N 35°59' E 120°22'1073512.2
2018-Apr-18 08:28N 37°34' E 121°23'80919025.2
2018-Apr-18 08:26N 24°26' E 117°52'0 0.0
2018-Apr-18 08:00N 24°26' E 117°52'17232521.6
2018-Apr-18 08:00N 22°36' E 120°15'16014065.3
2018-Apr-18 07:59N 23°37' E 117°35'86055286.6
2018-Apr-18 07:58N 37°34' E 121°23'808323147.6
2018-Apr-18 07:58N 24°24' E 118°06'70510394.4
2018-Apr-18 07:54N 35°59' E 120°22'3302213.8
2018-Apr-18 07:45N 30°43' E 122°14'4391793.6
2018-Apr-18 07:30N 24°25' E 118°01'16542314.4
2018-Apr-18 07:30N 22°36' E 120°15'803180682.6
2018-Apr-18 07:30N 35°59' E 120°22'1073824.9
2018-Apr-18 07:28N 37°34' E 121°23'41252919.1
2018-Apr-18 07:28N 30°45' E 122°14'118249.1
2018-Apr-18 06:59N 31°59' E 120°27'33817656.8
2018-Apr-18 06:58N 37°34' E 121°23'9003240850.8
2018-Apr-18 06:58N 22°36' E 120°15'8015160.2
2018-Apr-18 06:49N 35°57' E 120°21'130849.5
2018-Apr-18 06:40N 38°07' E 120°07'9316073.5
2018-Apr-18 06:30N 22°36' E 120°15'90023829.5
2018-Apr-18 06:28N 37°34' E 121°23'3389517.6
2018-Apr-18 06:26N 31°59' E 120°26'1141459.4
2018-Apr-18 06:21N 30°51' E 122°13'44725933.6
2018-Apr-18 06:20N 38°07' E 120°11'310.4
2018-Apr-18 06:00N 38°06' E 120°15'9301674291.7
2018-Apr-18 06:00N 22°36' E 120°16'50922349.0
2018-Apr-18 05:59N 30°54' E 122°13'40226337.5
2018-Apr-18 05:58N 37°34' E 121°23'3385366.7
2018-Apr-18 05:54N 31°59' E 120°26'366907.5
2018-Apr-18 05:30N 38°05' E 120°22'43892686.3
2018-Apr-18 05:30N 30°57' E 122°13'39913820.0
2018-Apr-18 05:28N 37°34' E 121°23'90061146.9
2018-Apr-18 05:27N 22°36' E 120°15'56310671.7
2018-Apr-18 05:24N 31°59' E 120°26'5131892.0
2018-Apr-18 05:08N 23°48' E 117°35'412533.1
2018-Apr-18 05:07N 24°26' E 117°52'652308.9
2018-Apr-18 05:05N 23°21' E 117°45'1461869.6
2018-Apr-18 05:00N 22°36' E 120°15'928167075.3
2018-Apr-18 05:00N 38°04' E 120°28'43313436.3
2018-Apr-18 04:58N 30°59' E 122°10'495127378.1
2018-Apr-18 04:58N 23°48' E 117°35'849152782.8
2018-Apr-18 04:58N 37°34' E 121°23'809415849.0
2018-Apr-18 04:58N 24°26' E 117°52'6419317.6
2018-Apr-18 04:57N 23°22' E 117°44'5363933.4
2018-Apr-18 04:49N 31°59' E 120°26'5631813.6
2018-Apr-18 04:30N 22°36' E 120°15'165592388.1
2018-Apr-18 04:30N 23°48' E 117°35'417736.6
2018-Apr-18 04:30N 24°26' E 117°52'810728870.7
2018-Apr-18 04:30N 37°35' E 121°26'87165310.1
2018-Apr-18 04:29N 23°26' E 117°42'5332671.1
2018-Apr-18 04:17N 31°59' E 120°26'5632009.5
2018-Apr-18 04:00N 22°36' E 120°15'165592369.4
2018-Apr-18 04:00N 23°48' E 117°35'869312686.0
2018-Apr-18 04:00N 38°02' E 120°42'829271224.9
2018-Apr-18 04:00N 24°26' E 117°52'8132927897.1
2018-Apr-18 04:00N 37°39' E 121°25'3432291.3
2018-Apr-18 03:51N 31°59' E 120°26'46131279.7
2018-Apr-18 03:50N 24°32' E 118°19'60182.0
2018-Apr-18 03:30N 23°48' E 117°35'8693127770.7
2018-Apr-18 03:30N 38°01' E 120°48'8823176692.0
2018-Apr-18 03:30N 23°34' E 117°38'156280753.5
2018-Apr-18 03:30N 22°36' E 120°15'15851793.7
2018-Apr-18 03:30N 24°32' E 118°19'805362251.5
2018-Apr-18 03:30N 37°42' E 121°22'81638149.1
2018-Apr-18 03:29N 24°26' E 117°52'4731458.8
2018-Apr-18 03:09N 31°59' E 120°26'3612445.6
2018-Apr-18 03:00N 37°60' E 120°54'869240602.6
2018-Apr-18 03:00N 23°48' E 117°35'6072008.4
2018-Apr-18 03:00N 24°32' E 118°19'251674.0
2018-Apr-18 02:59N 24°26' E 117°52'50181729.3
2018-Apr-18 02:59N 23°38' E 117°36'523471044.6
2018-Apr-18 02:59N 31°59' E 120°26'349125562.8
2018-Apr-18 02:59N 37°45' E 121°19'91160728.5
2018-Apr-18 02:58N 22°36' E 120°15'162347.9
2018-Apr-18 02:30N 23°42' E 117°35'621881.5
2018-Apr-18 02:30N 23°48' E 117°35'6053977.3
2018-Apr-18 02:30N 24°32' E 118°19'15851793.7
2018-Apr-18 02:30N 22°36' E 120°15'172154477.5
2018-Apr-18 02:30N 24°26' E 117°52'47322400.0
2018-Apr-18 02:29N 31°59' E 120°26'5631197.6
2018-Apr-18 02:00N 22°36' E 120°15'16449250.7
2018-Apr-18 02:00N 23°46' E 117°34'4319445.9
2018-Apr-18 02:00N 24°26' E 117°52'826270245.3
2018-Apr-18 02:00N 37°55' E 121°05'866155936.4
2018-Apr-18 02:00N 23°48' E 117°35'5145442.8
2018-Apr-18 01:54N 31°59' E 120°26'4731208.2
2018-Apr-18 01:30N 24°26' E 117°52'43155579.0
2018-Apr-18 01:30N 23°46' E 117°35'16473660.2
2018-Apr-18 01:30N 22°36' E 120°15'563184324.8
2018-Apr-18 01:30N 31°59' E 120°26'35521656.3
2018-Apr-18 01:29N 37°52' E 121°09'39759622.4
2018-Apr-18 01:29N 31°15' E 121°32'54298.1
2018-Apr-18 01:18N 30°27' E 121°60'4521617.3
2018-Apr-18 01:01N 37°57' E 121°03'10981.3
2018-Apr-18 01:00N 37°49' E 121°13'8671561325.3
2018-Apr-18 01:00N 23°42' E 117°35'873136612.2
2018-Apr-18 01:00N 37°57' E 121°03'35923079.8
2018-Apr-18 00:59N 31°59' E 120°26'563168969.8
2018-Apr-18 00:59N 22°36' E 120°15'5392649.0
2018-Apr-18 00:47N 31°32' E 121°20'4641715.0
2018-Apr-18 00:30N 24°26' E 117°52'5089290.0
2018-Apr-18 00:30N 23°39' E 117°35'869347404.8
2018-Apr-18 00:30N 37°46' E 121°16'43840421.1
2018-Apr-18 00:30N 30°30' E 122°06'45146436.1
2018-Apr-18 00:29N 37°58' E 120°57'3602150.9
2018-Apr-18 00:19N 31°59' E 120°26'71785.1
2018-Apr-18 00:14N 31°14' E 121°30'3901781.3
2018-Apr-18 00:00N 37°43' E 121°20'909218231.0
2018-Apr-18 00:00N 22°36' E 120°15'17241195.9
2018-Apr-18 00:00N 24°26' E 117°52'5214295.6
2018-Apr-18 00:00N 23°37' E 117°35'87931331.1
2018-Apr-17 23:58N 37°60' E 120°51'40620876.7
2018-Apr-17 23:57N 31°15' E 121°30'69566.0
2018-Apr-17 23:50N 31°59' E 120°26'4731461.3
2018-Apr-17 23:30N 24°26' E 117°52'52185924.4
2018-Apr-17 23:30N 23°37' E 117°35'8791582218.7
2018-Apr-17 23:30N 38°00' E 120°46'92590005.7
2018-Apr-17 23:29N 22°36' E 120°15'563144828.1
2018-Apr-17 23:29N 31°59' E 120°26'34418780.4
2018-Apr-17 23:28N 37°40' E 121°24'4 8.6
2018-Apr-17 23:00N 37°36' E 121°26'903361127.7
2018-Apr-17 23:00N 22°36' E 120°15'160288323.5
2018-Apr-17 23:00N 23°37' E 117°35'879243460.7
2018-Apr-17 23:00N 38°02' E 120°39'828119233.5
2018-Apr-17 23:00N 24°26' E 117°52'4737845.1
2018-Apr-17 22:56N 31°59' E 120°26'5251231.9
2018-Apr-17 22:30N 23°37' E 117°35'16064071.0
2018-Apr-17 22:30N 22°36' E 120°15'927222460.4
2018-Apr-17 22:30N 38°03' E 120°33'82866248.4
2018-Apr-17 22:29N 24°26' E 117°52'809104039.4
2018-Apr-17 22:29N 37°35' E 121°23'3383437.0
2018-Apr-17 22:23N 31°60' E 120°27'4741265.9
2018-Apr-17 22:00N 24°26' E 117°52'828114710.8
2018-Apr-17 22:00N 38°04' E 120°28'880527717.4
2018-Apr-17 22:00N 23°37' E 117°35'16014059.9
2018-Apr-17 21:59N 22°36' E 120°15'901111824.7
2018-Apr-17 21:59N 37°35' E 121°24'3392455.0
2018-Apr-17 21:51N 31°59' E 120°26'114757.9
2018-Apr-17 21:41N 30°51' E 122°14'4502459.9
2018-Apr-17 21:31N 24°26' E 117°52'5293075.6
2018-Apr-17 21:30N 23°37' E 117°35'50214005.8
2018-Apr-17 21:28N 30°53' E 122°14'44221222.0
2018-Apr-17 21:27N 38°05' E 120°21'36632139.2
2018-Apr-17 21:26N 31°59' E 120°26'33936975.1
2018-Apr-17 21:26N 37°35' E 121°24'3732207.3
2018-Apr-17 21:16N 31°22' E 121°41'5312085.4
2018-Apr-17 21:00N 22°36' E 120°15'5632027849.8
2018-Apr-17 21:00N 31°59' E 120°26'11199751.3
2018-Apr-17 21:00N 30°57' E 122°14'505908747.8
2018-Apr-17 21:00N 23°37' E 117°35'526649.0
2018-Apr-17 21:00N 24°26' E 117°52'80949373.9
2018-Apr-17 20:59N 37°35' E 121°24'8091712.6
2018-Apr-17 20:30N 24°26' E 117°52'455148822.8
2018-Apr-17 20:30N 30°59' E 122°10'5061820241.0
2018-Apr-17 20:30N 23°37' E 117°35'1609006.4
2018-Apr-17 20:29N 22°36' E 120°15'90115896.6
2018-Apr-17 20:26N 37°35' E 121°24'8602034.6
2018-Apr-17 20:00N 23°37' E 117°34'161578516.4
2018-Apr-17 20:00N 22°36' E 120°15'17210841.0
2018-Apr-17 19:59N 24°26' E 117°52'80969358.6
2018-Apr-17 19:59N 37°35' E 121°24'3921505.0
2018-Apr-17 19:43N 31°04' E 122°02'5172451.3
2018-Apr-17 19:31N 22°36' E 120°15'518931874.2
2018-Apr-17 19:30N 31°05' E 121°60'45556517.7
2018-Apr-17 19:30N 24°26' E 117°52'473170.0
2018-Apr-17 19:29N 23°42' E 117°34'855162083.0
2018-Apr-17 19:29N 37°35' E 121°24'33910898.1
2018-Apr-17 19:27N 31°59' E 120°26'71172.9
2018-Apr-17 19:02N 31°16' E 121°33'52516282.1
2018-Apr-17 19:00N 22°36' E 120°15'172617952.0
2018-Apr-17 19:00N 24°26' E 117°52'45525223.3
2018-Apr-17 18:59N 31°08' E 121°55'38860726.9
2018-Apr-17 18:59N 37°35' E 121°24'3393186.4
2018-Apr-17 18:52N 31°59' E 120°26'0 1.5
2018-Apr-17 18:48N 31°59' E 120°26'711385.3
2018-Apr-17 18:45N 31°16' E 121°33'5252139.0
2018-Apr-17 18:30N 22°36' E 120°15'17224718.1
2018-Apr-17 18:30N 24°26' E 117°52'4173389.7
2018-Apr-17 18:30N 23°48' E 117°35'51418673.7
2018-Apr-17 18:28N 31°59' E 120°26'3398840.8
2018-Apr-17 18:26N 37°35' E 121°24'3397396.2
2018-Apr-17 18:23N 31°59' E 120°26'711983.9
2018-Apr-17 18:21N 31°16' E 121°33'71208.7
2018-Apr-17 18:00N 31°59' E 120°26'5631014012.9
2018-Apr-17 18:00N 22°36' E 120°15'17222070.2
2018-Apr-17 18:00N 24°26' E 117°52'45739182.0
2018-Apr-17 17:59N 31°13' E 121°48'49894329.6
2018-Apr-17 17:59N 23°48' E 117°35'84916264.0
2018-Apr-17 17:56N 37°35' E 121°24'3396973.5
2018-Apr-17 17:53N 31°59' E 120°26'5631506.4
2018-Apr-17 17:30N 22°36' E 120°15'165197456.8
2018-Apr-17 17:30N 23°48' E 117°35'84931198.8
2018-Apr-17 17:29N 37°35' E 121°24'809291306.0
2018-Apr-17 17:29N 24°26' E 117°52'473100141.0
2018-Apr-17 17:28N 31°59' E 120°26'811595.7
2018-Apr-17 17:25N 31°15' E 121°46'8113209.0
2018-Apr-17 17:25N 31°59' E 120°26'5131258.4
2018-Apr-17 17:00N 23°48' E 117°35'165148090.1
2018-Apr-17 17:00N 22°36' E 120°15'17218174.6
2018-Apr-17 17:00N 24°26' E 117°52'47334742.8
2018-Apr-17 16:59N 31°59' E 120°26'339110942.6
2018-Apr-17 16:59N 37°35' E 121°24'339915.2
2018-Apr-17 16:37N 31°59' E 120°26'7614468.3
2018-Apr-17 16:36N 31°18' E 121°42'4604758.9
2018-Apr-17 16:31N 24°26' E 117°52'172123590.4
2018-Apr-17 16:30N 22°36' E 120°15'16434815.9
2018-Apr-17 16:30N 23°48' E 117°35'51424039.2
2018-Apr-17 16:29N 31°59' E 120°26'339406682.5
2018-Apr-17 16:29N 37°35' E 121°24'3393457.1
2018-Apr-17 16:23N 31°59' E 120°26'751534.1
2018-Apr-17 16:20N 31°19' E 121°41'5291624.1
2018-Apr-17 16:00N 22°36' E 120°15'530381707.5
2018-Apr-17 16:00N 31°21' E 121°40'502361665.8
2018-Apr-17 16:00N 23°48' E 117°35'514264439.9
2018-Apr-17 16:00N 31°59' E 120°26'47334055.0
2018-Apr-17 15:59N 24°26' E 117°52'80991033.8
2018-Apr-17 15:59N 37°35' E 121°24'33926529.8
2018-Apr-17 15:58N 31°59' E 120°26'5151112.6
2018-Apr-17 15:30N 23°47' E 117°35'8501020595.4
2018-Apr-17 15:30N 37°35' E 121°24'809582620.4
2018-Apr-17 15:30N 24°26' E 117°52'47360800.6
2018-Apr-17 15:30N 31°59' E 120°26'563337939.5
2018-Apr-17 15:30N 22°36' E 120°15'53153105.8
2018-Apr-17 15:29N 31°22' E 121°37'71578.5
2018-Apr-17 15:22N 31°59' E 120°26'46114418.9
2018-Apr-17 15:20N 24°32' E 118°19'63194.9
2018-Apr-17 15:00N 23°45' E 117°34'6375088.6
2018-Apr-17 15:00N 24°32' E 118°19'158284889.3
2018-Apr-17 15:00N 22°36' E 120°15'901405443.7
2018-Apr-17 15:00N 37°35' E 121°24'80966228.2
2018-Apr-17 14:59N 24°26' E 117°52'473212802.2
2018-Apr-17 14:59N 31°59' E 120°26'0 2.3
2018-Apr-17 14:57N 31°59' E 120°26'5201185.4
2018-Apr-17 14:30N 23°41' E 117°35'161580766.6
2018-Apr-17 14:30N 22°36' E 120°15'158142444.6
2018-Apr-17 14:30N 24°32' E 118°19'8012883219.2
2018-Apr-17 14:30N 37°37' E 121°27'812224858.0
2018-Apr-17 14:30N 24°26' E 117°52'47312704.6
2018-Apr-17 14:28N 31°59' E 120°26'0 0.3
2018-Apr-17 14:09N 31°59' E 120°26'3432350.3
2018-Apr-17 14:00N 37°39' E 121°25'80393214.9
2018-Apr-17 14:00N 24°32' E 118°19'158142448.6
2018-Apr-17 14:00N 22°36' E 120°15'56347155.4
2018-Apr-17 13:59N 31°59' E 120°26'52449612.0
2018-Apr-17 13:58N 23°38' E 117°35'5120320.7
2018-Apr-17 13:58N 24°26' E 117°52'4731098.5
2018-Apr-17 13:32N 31°59' E 120°26'46113265.2
2018-Apr-17 13:30N 24°32' E 118°19'8052899055.4
2018-Apr-17 13:30N 37°43' E 121°20'868520579.4
2018-Apr-17 13:30N 23°37' E 117°35'52511242.3
2018-Apr-17 13:27N 31°59' E 120°26'013.0
2018-Apr-17 13:27N 31°59' E 120°26'473106398.5
2018-Apr-17 13:27N 24°26' E 117°52'4543325.2
2018-Apr-17 13:18N 31°15' E 121°33'71237.5
2018-Apr-17 13:00N 31°59' E 120°26'461331622.3
2018-Apr-17 13:00N 24°32' E 118°19'15863308.7
2018-Apr-17 13:00N 22°36' E 120°15'9111640511.3
2018-Apr-17 13:00N 37°46' E 121°15'870223656.3
2018-Apr-17 13:00N 23°37' E 117°35'529790.9
2018-Apr-17 13:00N 24°26' E 117°52'45211532.6
2018-Apr-17 12:57N 31°15' E 121°30'70511.3
2018-Apr-17 12:49N 31°59' E 120°26'5631815.3
2018-Apr-17 12:31N 22°36' E 120°15'172308976.0
2018-Apr-17 12:30N 24°26' E 117°52'52185965.5
2018-Apr-17 12:30N 23°37' E 117°35'525377721.3
2018-Apr-17 12:30N 31°59' E 120°26'0 8.5
2018-Apr-17 12:30N 31°59' E 120°26'460552585.4
2018-Apr-17 12:30N 24°32' E 118°19'44914695.6
2018-Apr-17 12:28N 31°32' E 121°21'2115168.0
2018-Apr-17 12:28N 31°12' E 121°29'398239026.4
2018-Apr-17 12:28N 37°50' E 121°11'9152022.3
2018-Apr-17 12:00N 22°36' E 120°15'918300304.6
2018-Apr-17 12:00N 37°52' E 121°06'87585089.4
2018-Apr-17 12:00N 23°37' E 117°35'52560918.6
2018-Apr-17 11:59N 31°59' E 120°26'47319567.5
2018-Apr-17 11:58N 24°26' E 117°52'25869.2
2018-Apr-17 11:56N 24°32' E 118°19'4613535.4
2018-Apr-17 11:48N 31°59' E 120°26'5631916.8
2018-Apr-17 11:30N 22°36' E 120°15'921828884.7
2018-Apr-17 11:30N 37°56' E 121°01'82684947.2
2018-Apr-17 11:30N 24°26' E 117°52'5293034.1
2018-Apr-17 11:30N 23°37' E 117°35'6910738.4
2018-Apr-17 11:29N 24°32' E 118°19'46115212.0
2018-Apr-17 11:28N 31°59' E 120°26'5251161.6
2018-Apr-17 11:00N 23°37' E 117°34'16082409.0
2018-Apr-17 11:00N 22°36' E 120°15'923184643.8
2018-Apr-17 11:00N 37°58' E 120°56'3602054.7
2018-Apr-17 10:50N 31°59' E 120°26'4735097.6
2018-Apr-17 10:44N 24°26' E 117°52'172762.9
2018-Apr-17 10:30N 22°36' E 120°15'924665292.3
2018-Apr-17 10:30N 37°59' E 120°50'12827191.4
2018-Apr-17 10:30N 35°54' E 120°17'75096442.1
2018-Apr-17 10:30N 23°37' E 117°34'52546068.5
2018-Apr-17 10:29N 31°59' E 120°26'4735911.8
2018-Apr-17 10:24N 24°26' E 117°52'8272087.0
2018-Apr-17 10:00N 38°00' E 120°43'879632525.5
2018-Apr-17 10:00N 23°37' E 117°34'525472202.0
2018-Apr-17 10:00N 31°59' E 120°26'56353363.9
2018-Apr-17 10:00N 22°36' E 120°15'1725775.0
2018-Apr-17 09:58N 24°26' E 117°52'52113.6
2018-Apr-17 09:30N 23°37' E 117°34'879790869.3
2018-Apr-17 09:30N 38°01' E 120°37'926185172.9
2018-Apr-17 09:30N 22°36' E 120°15'56365412.4
2018-Apr-17 09:30N 31°59' E 120°26'24287291.3
2018-Apr-17 09:29N 36°01' E 120°18'707508762.6
2018-Apr-17 09:29N 24°26' E 117°52'4732133.1
2018-Apr-17 09:16N 31°59' E 120°26'5252022.1
2018-Apr-17 09:00N 23°37' E 117°34'52589951.2
2018-Apr-17 09:00N 31°59' E 120°26'363435920.7
2018-Apr-17 09:00N 38°02' E 120°31'827212773.0
2018-Apr-17 09:00N 24°26' E 117°52'17229425.0
2018-Apr-17 08:59N 22°36' E 120°15'805414189.8
2018-Apr-17 08:59N 36°01' E 120°14'7571571.4
2018-Apr-17 08:30N 23°37' E 117°34'878790632.7
2018-Apr-17 08:30N 38°03' E 120°26'92792733.6
2018-Apr-17 08:30N 22°36' E 120°15'17216260.8
2018-Apr-17 08:29N 24°26' E 117°52'70565043.6
2018-Apr-17 08:29N 36°00' E 120°13'8041724.7
2018-Apr-17 08:01N 22°36' E 120°15'16238906.6
2018-Apr-17 08:00N 23°42' E 117°35'873241815.8
2018-Apr-17 08:00N 38°04' E 120°20'8287009.8
2018-Apr-17 07:53N 24°26' E 117°52'7043138.0
2018-Apr-17 07:40N 35°60' E 120°12'8045311.1
2018-Apr-17 07:30N 22°36' E 120°15'9291114603.3
2018-Apr-17 07:30N 38°05' E 120°15'870626594.2
2018-Apr-17 07:30N 23°45' E 117°35'441573.3
2018-Apr-17 07:29N 24°26' E 117°52'7047122.2
2018-Apr-17 07:23N 35°60' E 120°12'8042148.9
2018-Apr-17 07:00N 22°36' E 120°15'9301673321.4
2018-Apr-17 07:00N 38°05' E 120°10'870626636.8
2018-Apr-17 07:00N 23°45' E 117°35'443277.8
2018-Apr-17 06:59N 24°26' E 117°52'7042700.2
2018-Apr-17 06:44N 35°60' E 120°12'7473396.1
2018-Apr-17 06:30N 23°45' E 117°35'163293937.7
2018-Apr-17 06:30N 22°36' E 120°15'17236347.6
2018-Apr-17 06:30N 24°26' E 117°52'82864812.9
2018-Apr-17 06:29N 38°06' E 120°05'3682444.2
2018-Apr-17 06:20N 31°59' E 120°26'5631699.4
2018-Apr-17 06:00N 22°36' E 120°15'163293969.5
2018-Apr-17 06:00N 23°45' E 117°35'4419649.2
2018-Apr-17 06:00N 24°26' E 117°52'473154761.5
2018-Apr-17 06:00N 31°59' E 120°26'370962.9
2018-Apr-17 05:37N 38°08' E 119°56'9338586.9
2018-Apr-17 05:31N 22°36' E 120°15'16316798.0
2018-Apr-17 05:30N 23°45' E 117°35'444031.6
2018-Apr-17 05:29N 24°26' E 117°52'82985283.9
2018-Apr-17 05:29N 38°09' E 119°55'3714054.4
2018-Apr-17 05:23N 31°59' E 120°26'4731245.3
2018-Apr-17 05:00N 24°26' E 117°52'17251490.2
2018-Apr-17 05:00N 22°36' E 120°15'16315472.3
2018-Apr-17 05:00N 23°45' E 117°35'51644261.4
2018-Apr-17 04:59N 31°59' E 120°26'4614554.4
2018-Apr-17 04:53N 24°32' E 118°19'8204050.7
2018-Apr-17 04:41N 38°09' E 119°47'8204755.2
2018-Apr-17 04:30N 24°32' E 118°19'6244503.2
2018-Apr-17 04:30N 23°45' E 117°35'163293982.5
2018-Apr-17 04:30N 22°36' E 120°15'17225745.1
2018-Apr-17 04:30N 24°26' E 117°52'7045788.8
2018-Apr-17 04:23N 35°60' E 120°12'24119294.0
2018-Apr-17 04:22N 31°59' E 120°26'5631586.5
2018-Apr-17 04:00N 22°36' E 120°15'15881385.5
2018-Apr-17 04:00N 24°32' E 118°19'2530131.5
2018-Apr-17 04:00N 24°26' E 117°52'4452344.2
2018-Apr-17 04:00N 23°45' E 117°35'51611404.4
2018-Apr-17 03:58N 31°59' E 120°26'2412953.2
2018-Apr-17 03:53N 35°60' E 120°12'6941868.4
2018-Apr-17 03:30N 24°32' E 118°19'15837981.0
2018-Apr-17 03:30N 22°36' E 120°15'17288270.8
2018-Apr-17 03:30N 24°26' E 117°52'442212.3
2018-Apr-17 03:29N 23°45' E 117°35'51646474.0
2018-Apr-17 03:28N 31°59' E 120°26'5161119.9
2018-Apr-17 03:00N 23°45' E 117°35'163587964.9
2018-Apr-17 03:00N 22°36' E 120°15'1727021.4
2018-Apr-17 02:59N 24°26' E 117°52'47329351.7
2018-Apr-17 02:58N 31°59' E 120°26'241705.9
2018-Apr-17 02:38N 35°60' E 120°12'7476343.2
2018-Apr-17 02:30N 23°45' E 117°35'16341994.9
2018-Apr-17 02:30N 22°36' E 120°15'17224714.7
2018-Apr-17 02:30N 24°26' E 117°52'4733783.1
2018-Apr-17 02:22N 31°59' E 120°26'2412516.6
2018-Apr-17 02:17N 35°60' E 120°12'7472784.2
2018-Apr-17 02:00N 23°45' E 117°35'444029.1
2018-Apr-17 02:00N 24°26' E 117°52'172617881.9
2018-Apr-17 02:00N 22°36' E 120°15'56318773.6
2018-Apr-17 01:58N 31°59' E 120°26'2411197.6
2018-Apr-17 01:46N 35°60' E 120°12'8043125.8
2018-Apr-17 01:30N 22°36' E 120°15'163587776.6
2018-Apr-17 01:30N 23°45' E 117°35'444028.5
2018-Apr-17 01:30N 24°26' E 117°52'91331.9
2018-Apr-17 01:29N 24°25' E 118°01'47170710.8
2018-Apr-17 01:29N 31°59' E 120°26'473993.8
2018-Apr-17 01:00N 24°26' E 117°52'172617688.1
2018-Apr-17 01:00N 22°36' E 120°15'  
Track history (hours):
 
Tides and Currents Weather Stations Pressure Air Temp Water Temp Dewpoint Dewpoint Depression Visibility Wind Speed Wind Dir Waves Ship Positions

Graceful Lady

Last reported at 2018-Apr-27 01:00 UTC. Time now 2018-Apr-27 01:12 UTC.
Position N 24°26' E 117°52'.

Type: Towing. MMSI: 200009587.

Date/timePositionNaut miles runAvg speedWind from/ knotsBaromVisibWave heightAir tempDewpointWater temp
2018-Apr-27 01:00N 24°26' E 117°52'442795029.6
2018-Apr-27 01:00N 30°52' E 121°54'101409.0
2018-Apr-27 01:00N 30°55' E 122°06'50935929.8
2018-Apr-27 00:59N 22°36' E 120°14'80441944.5
2018-Apr-27 00:58N 35°60' E 120°12'6971521.5
2018-Apr-27 00:30N 24°32' E 118°05'431221624.2
2018-Apr-27 00:30N 30°52' E 121°54'115574.3
2018-Apr-27 00:30N 30°54' E 122°07'44984989.5
2018-Apr-27 00:30N 24°26' E 117°52'70411021.9
2018-Apr-27 00:26N 35°60' E 120°12'7041633.4
2018-Apr-27 00:00N 24°26' E 117°52'442530001.2
2018-Apr-27 00:00N 30°52' E 121°54'50446540.5
2018-Apr-26 23:59N 22°36' E 120°14'1655444.2
2018-Apr-26 23:58N 24°29' E 118°04'1071361512.4
2018-Apr-26 23:47N 26°55' W 080°05'1070538119.3
2018-Apr-26 23:30N 24°26' E 117°52'4428736.7
2018-Apr-26 23:27N 30°52' E 121°54'13754.6
2018-Apr-26 23:26N 30°49' E 122°09'106297652573.5
2018-Apr-26 23:26N 26°55' W 080°05'1070524863.7
2018-Apr-26 23:00N 24°26' E 117°52'44293527.4
2018-Apr-26 23:00N 30°52' E 121°54'141579.1
2018-Apr-26 23:00N 30°48' E 122°10'10630100175.8
2018-Apr-26 22:53N 26°55' W 080°05'1070528151.0
2018-Apr-26 22:30N 24°26' E 117°52'4441598868.6
2018-Apr-26 22:30N 30°47' E 122°10'146523.0
2018-Apr-26 22:30N 30°52' E 121°54'10613159201.2
2018-Apr-26 22:26N 26°55' W 080°05'10265113707.8
2018-Apr-26 22:21N 35°60' E 120°12'7042064.4
2018-Apr-26 22:00N 24°26' E 117°52'443159478.1
2018-Apr-26 22:00N 30°45' E 122°10'152021.0
2018-Apr-26 22:00N 30°52' E 121°54'106131364582.1
2018-Apr-26 21:59N 26°55' W 080°05'10918531125.8
2018-Apr-26 21:58N 22°36' E 120°14'589976659.5
2018-Apr-26 21:53N 49°18' W 122°54'522166180.9
2018-Apr-26 21:49N 35°60' E 120°12'3191039.5
2018-Apr-26 21:30N 30°52' E 121°54'31947904.7
2018-Apr-26 21:30N 35°60' E 120°12'10265169518.5
2018-Apr-26 21:26N 26°55' W 080°05'24307566.6
2018-Apr-26 21:07N 49°18' W 122°58'539948351.7
2018-Apr-26 21:00N 30°52' E 121°54'4428153.8
2018-Apr-26 20:57N 24°26' E 117°52'18291.6
2018-Apr-26 20:53N 24°33' E 118°10'1071612859060.2
2018-Apr-26 20:53N 26°55' W 080°05'1061327687.2
2018-Apr-26 20:30N 30°52' E 121°54'442397505.5
2018-Apr-26 20:30N 24°26' E 117°52'141748.8
2018-Apr-26 20:30N 24°23' E 118°07'44916998.1
2018-Apr-26 20:28N 30°57' E 122°10'538435307.7
2018-Apr-26 20:19N 49°20' W 122°56'589688806.9
2018-Apr-26 20:15N 22°36' E 120°14'804180881.6
2018-Apr-26 20:15N 35°60' E 120°12'8043345.8
2018-Apr-26 20:00N 22°36' E 120°14'5041815049.6
2018-Apr-26 20:00N 30°52' E 121°54'4391580146.3
2018-Apr-26 20:00N 24°21' E 118°10'1730373.1
2018-Apr-26 20:00N 24°26' E 117°52'5915108645.9
2018-Apr-26 19:57N 49°18' W 122°54'522130266.3
2018-Apr-26 19:47N 35°60' E 120°12'3191147.4
2018-Apr-26 19:30N 30°52' E 121°54'442795029.6
2018-Apr-26 19:30N 24°26' E 117°52'191394.7
2018-Apr-26 19:29N 24°18' E 118°10'71014687.8
2018-Apr-26 19:26N 35°60' E 120°12'1026529516.8
2018-Apr-26 19:05N 26°55' W 080°05'10613108238.9
2018-Apr-26 18:59N 30°52' E 121°54'44225238.4
2018-Apr-26 18:58N 24°26' E 117°52'5911124448.1
2018-Apr-26 18:56N 49°18' W 122°58'243065276.5
2018-Apr-26 18:53N 26°55' W 080°05'1026529052.7
2018-Apr-26 18:32N 35°60' E 120°12'70422434.0
2018-Apr-26 18:30N 24°26' E 117°52'44288330.4
2018-Apr-26 18:30N 30°52' E 121°54'0 0.5
2018-Apr-26 18:24N 30°52' E 121°54'106131157826.7
2018-Apr-26 18:23N 26°55' W 080°05'1077734983.0
2018-Apr-26 18:05N 22°59' E 117°58'5187169.2
2018-Apr-26 18:00N 30°52' E 121°54'442317993.2
2018-Apr-26 18:00N 24°26' E 117°52'10705583919.1
2018-Apr-26 17:59N 26°55' W 080°05'1026534059.9
2018-Apr-26 17:41N 35°60' E 120°12'3191680.9
2018-Apr-26 17:30N 30°52' E 121°54'106131232526.3
2018-Apr-26 17:29N 26°55' W 080°05'109182456455.7
2018-Apr-26 17:29N 22°36' E 120°14'17110422.8
2018-Apr-26 17:28N 24°26' E 117°52'70410221.9
2018-Apr-26 17:24N 35°60' E 120°12'3331822.6
2018-Apr-26 17:13N 30°43' E 122°14'5178163.3
2018-Apr-26 17:09N 22°59' E 117°58'8726062.1
2018-Apr-26 17:00N 37°25' E 119°54'406112386.9
2018-Apr-26 17:00N 30°52' E 121°54'10613682290.4
2018-Apr-26 16:59N 26°55' W 080°05'106377658891.6
2018-Apr-26 16:59N 30°44' E 122°14'444133195.8
2018-Apr-26 16:59N 24°26' E 117°52'5911233853.4
2018-Apr-26 16:58N 49°18' W 122°58'598119310.7
2018-Apr-26 16:39N 22°59' E 117°58'1077766890.5
2018-Apr-26 16:29N 26°55' W 080°05'107057707731.8
2018-Apr-26 16:29N 24°26' E 117°52'5911212806.5
2018-Apr-26 16:28N 49°18' W 122°58'59811435430.5
2018-Apr-26 16:27N 22°59' E 117°58'5229299.5
2018-Apr-26 16:24N 30°48' E 122°14'17784.4
2018-Apr-26 16:23N 30°52' E 121°54'0 3.6
2018-Apr-26 16:22N 30°52' E 121°54'0 0.2
2018-Apr-26 16:00N 30°52' E 121°54'518266313.1
2018-Apr-26 16:00N 22°59' E 117°58'8719651.7
2018-Apr-26 16:00N 24°26' E 117°52'5914118950.8
2018-Apr-26 15:57N 49°18' W 122°54'5388116159.1
2018-Apr-26 15:54N 30°51' E 122°14'10631659836.3
2018-Apr-26 15:53N 26°55' W 080°05'1061327627.1
2018-Apr-26 15:30N 30°52' E 121°54'10613682291.3
2018-Apr-26 15:29N 26°55' W 080°05'10705819971.5
2018-Apr-26 15:29N 24°26' E 117°52'820113501.9
2018-Apr-26 15:28N 37°52' E 120°44'4241789.6
2018-Apr-26 15:14N 30°55' E 122°13'4241885.5
2018-Apr-26 15:00N 37°52' E 120°43'42580444.5
2018-Apr-26 15:00N 30°52' E 121°54'10613830614.8
2018-Apr-26 14:59N 26°55' W 080°05'10705575203.9
2018-Apr-26 14:58N 24°26' E 117°52'4554842.1
2018-Apr-26 14:53N 30°57' E 122°13'31910746.7
2018-Apr-26 14:51N 36°02' E 120°18'320942.8
2018-Apr-26 14:30N 30°52' E 121°54'44266247.0
2018-Apr-26 14:30N 24°26' E 117°52'10705172819.1
2018-Apr-26 14:26N 26°55' W 080°05'10621735322.5
2018-Apr-26 14:25N 30°59' E 122°10'43813247.0
2018-Apr-26 14:23N 24°32' E 118°19'69613391.5
2018-Apr-26 14:20N 35°60' E 120°20'318958.3
2018-Apr-26 14:00N 30°52' E 121°54'316113716.4
2018-Apr-26 14:00N 35°58' E 120°22'694131523.8
2018-Apr-26 14:00N 24°32' E 118°19'253930.0
2018-Apr-26 14:00N 24°26' E 117°52'107052569243.9
2018-Apr-26 13:59N 26°55' W 080°05'1072422163.0
2018-Apr-26 13:30N 24°32' E 118°19'42537314.3
2018-Apr-26 13:30N 30°52' E 121°54'442122308.0
2018-Apr-26 13:29N 24°26' E 117°52'107059634664.7
2018-Apr-26 13:29N 26°55' W 080°05'1070522186.9
2018-Apr-26 13:00N 24°26' E 117°52'252054.4
2018-Apr-26 13:00N 24°32' E 118°19'425509962.6
2018-Apr-26 13:00N 30°52' E 121°54'106132388002.3
2018-Apr-26 12:59N 26°55' W 080°05'10275119708.0
2018-Apr-26 12:54N 35°58' E 120°22'316793.0
2018-Apr-26 12:30N 30°52' E 121°54'425169990.7
2018-Apr-26 12:30N 24°32' E 118°19'10724804330.4
2018-Apr-26 12:29N 26°55' W 080°05'107056423109.8
2018-Apr-26 12:29N 24°26' E 117°52'2552.1
2018-Apr-26 12:00N 24°32' E 118°19'425169990.7
2018-Apr-26 12:00N 30°52' E 121°54'442227151.3
2018-Apr-26 12:00N 24°26' E 117°52'10705963467.0
2018-Apr-26 11:59N 26°55' W 080°05'1027570591.2
2018-Apr-26 11:51N 35°58' E 120°22'301902.0
2018-Apr-26 11:31N 31°07' E 121°55'455409777.9
2018-Apr-26 11:31N 24°26' E 117°52'455102446.8
2018-Apr-26 11:30N 31°08' E 121°55'167972.6
2018-Apr-26 11:30N 30°52' E 121°54'10613796001.9
2018-Apr-26 11:29N 26°55' W 080°05'1027552467.8
2018-Apr-26 11:18N 35°58' E 120°22'3161095.5
2018-Apr-26 11:00N 30°52' E 121°54'442265013.0
2018-Apr-26 11:00N 24°26' E 117°52'256456.7
2018-Apr-26 11:00N 24°32' E 118°19'107241072440.6
2018-Apr-26 10:59N 26°55' W 080°05'1027541986.1
2018-Apr-26 10:45N 35°58' E 120°22'7042955.1
2018-Apr-26 10:30N 24°26' E 117°52'44258893.2
2018-Apr-26 10:30N 30°52' E 121°54'106131091663.6
2018-Apr-26 10:29N 26°55' W 080°05'10275107216.7
2018-Apr-26 10:24N 35°58' E 120°22'7041743.8
2018-Apr-26 09:59N 24°26' E 117°52'1070519269329.5
2018-Apr-26 09:59N 26°55' W 080°05'106131819441.0
2018-Apr-26 09:59N 30°52' E 121°54'3163509.8
2018-Apr-26 09:54N 35°58' E 120°22'7041818.9
2018-Apr-26 09:30N 24°26' E 117°52'442106003.9
2018-Apr-26 09:30N 30°52' E 121°54'10613931909.3
2018-Apr-26 09:29N 26°55' W 080°05'1027562907.8
2018-Apr-26 09:20N 35°58' E 120°22'7042176.4
2018-Apr-26 09:00N 24°26' E 117°52'44234564.5
2018-Apr-26 08:59N 30°52' E 121°54'106137641618.1
2018-Apr-26 08:59N 26°55' W 080°05'1027590663.6
2018-Apr-26 08:53N 35°57' E 120°21'7021859.4
2018-Apr-26 08:30N 24°26' E 117°52'10705181786.1
2018-Apr-26 08:26N 26°55' W 080°05'106131123766.8
2018-Apr-26 08:26N 30°52' E 121°54'3122867.7
2018-Apr-26 08:19N 35°54' E 120°17'3121000.2
2018-Apr-26 08:01N 30°52' E 121°54'44253001.4
2018-Apr-26 08:00N 24°26' E 117°52'10705963466.5
2018-Apr-26 07:59N 26°55' W 080°05'10704263923.4
2018-Apr-26 07:57N 24°26' E 117°50'1723461.3
2018-Apr-26 07:54N 22°36' E 120°14'5041288.3
2018-Apr-26 07:30N 30°52' E 121°54'44249767.3
2018-Apr-26 07:30N 24°26' E 117°50'2519.0
2018-Apr-26 07:30N 24°26' E 117°52'1714805.1
2018-Apr-26 07:28N 22°36' E 120°14'1091864012.1
2018-Apr-26 07:17N 26°55' W 080°05'10580170039.9
2018-Apr-26 07:14N 31°04' E 121°28'5003208.7
2018-Apr-26 07:04N 23°24' E 117°49'62858.1
2018-Apr-26 07:00N 24°26' E 117°50'44254915.7
2018-Apr-26 06:59N 30°52' E 121°54'106139552069.9
2018-Apr-26 06:59N 26°55' W 080°05'107491488341.2
2018-Apr-26 06:59N 23°24' E 117°49'26343.4
2018-Apr-26 06:54N 23°46' E 118°05'2151376.3
2018-Apr-26 06:45N 25°13' E 121°41'2 6.3
2018-Apr-26 06:30N 25°14' E 121°42'214384584.2
2018-Apr-26 06:30N 23°49' E 118°06'3946699.6
2018-Apr-26 06:30N 24°26' E 117°52'10705676116.8
2018-Apr-26 06:29N 26°55' W 080°05'10744568796.2
2018-Apr-26 06:28N 23°28' E 117°46'1466656.6
2018-Apr-26 06:27N 22°36' E 120°14'50443220.0
2018-Apr-26 06:26N 30°52' E 121°54'4426319.6
2018-Apr-26 06:22N 24°26' E 117°50'4421208.3
2018-Apr-26 06:00N 30°52' E 121°54'494197738.7
2018-Apr-26 06:00N 23°31' E 117°43'556237.0
2018-Apr-26 05:59N 24°26' E 117°50'2167.9
2018-Apr-26 05:59N 24°26' E 117°52'222159533.2
2018-Apr-26 05:59N 25°09' E 121°51'2178579.2
2018-Apr-26 05:57N 23°55' E 118°08'10743743751.8
2018-Apr-26 05:56N 26°55' W 080°05'1057727083.2
2018-Apr-26 05:33N 31°07' E 121°28'3578577.0
2018-Apr-26 05:30N 25°10' E 121°47'218130700.0
2018-Apr-26 05:30N 24°26' E 117°52'5313639.2
2018-Apr-26 05:30N 23°34' E 117°40'49343271.0
2018-Apr-26 05:29N 30°52' E 121°54'106139552069.9
2018-Apr-26 05:29N 26°55' W 080°05'101471014651.1
2018-Apr-26 05:29N 38°07' E 120°02'4241514.5
2018-Apr-26 05:12N 31°09' E 121°27'4592539.7
2018-Apr-26 05:01N 24°04' E 118°09'272207.9
2018-Apr-26 05:00N 24°26' E 117°52'5025931.9
2018-Apr-26 05:00N 23°37' E 117°37'879351402.6
2018-Apr-26 05:00N 38°06' E 120°07'44379802.9
2018-Apr-26 05:00N 30°52' E 121°54'4534503.4
2018-Apr-26 04:54N 24°05' E 118°10'4604899.0
2018-Apr-26 04:48N 31°11' E 121°28'4552793.5
2018-Apr-26 04:38N 24°10' E 118°10'8426410.1
2018-Apr-26 04:30N 38°06' E 120°12'8433034292.7
2018-Apr-26 04:30N 24°09' E 118°10'2328054.7
2018-Apr-26 04:30N 24°26' E 117°52'4734184.2
2018-Apr-26 04:30N 23°41' E 117°35'48914660.1
2018-Apr-26 04:28N 30°52' E 121°54'50453389.4
2018-Apr-26 04:28N 22°36' E 120°14'520312183.7
2018-Apr-26 04:28N 31°12' E 121°29'45686342.4
2018-Apr-26 04:27N 24°12' E 118°10'2274.8
2018-Apr-26 04:10N 24°32' E 118°19'0 0.0
2018-Apr-26 04:01N 24°32' E 118°19'1832640.9
2018-Apr-26 04:00N 24°16' E 118°10'4431595245.4
2018-Apr-26 04:00N 30°52' E 121°54'440792825.1
2018-Apr-26 04:00N 38°05' E 120°18'41583053.6
2018-Apr-26 04:00N 31°14' E 121°29'45124608.1
2018-Apr-26 03:59N 24°26' E 117°52'442409.5
2018-Apr-26 03:58N 23°45' E 117°35'10721414990.0
2018-Apr-26 03:56N 26°55' W 080°05'1070428972.1
2018-Apr-26 03:34N 24°26' E 117°50'27429.9
2018-Apr-26 03:31N 24°32' E 118°19'1658123.0
2018-Apr-26 03:31N 24°20' E 118°07'4654700.0
2018-Apr-26 03:30N 23°45' E 117°35'4851745907.3
2018-Apr-26 03:30N 30°52' E 121°54'441793961.9
2018-Apr-26 03:30N 24°19' E 118°08'1629007.8
2018-Apr-26 03:30N 24°26' E 117°52'829186496.7
2018-Apr-26 03:30N 38°05' E 120°23'10167892686.4
2018-Apr-26 03:29N 26°55' W 080°05'107043853283.3
2018-Apr-26 03:29N 24°26' E 117°50'4691083.8
2018-Apr-26 03:03N 31°33' E 121°31'46810146.4
2018-Apr-26 03:01N 24°22' E 118°06'831598650.8
2018-Apr-26 03:00N 38°04' E 120°29'438197060.7
2018-Apr-26 03:00N 30°52' E 121°54'425101994.4
2018-Apr-26 03:00N 24°32' E 118°19'254519.7
2018-Apr-26 03:00N 24°26' E 117°52'107052266979.9
2018-Apr-26 02:59N 26°55' W 080°05'1070438532832.9
2018-Apr-26 02:59N 24°26' E 117°50'4692315.3
2018-Apr-26 02:47N 31°34' E 121°29'4681679.9
2018-Apr-26 02:31N 24°22' E 118°06'4655216.3
2018-Apr-26 02:30N 23°45' E 117°35'46164939.6
2018-Apr-26 02:30N 24°25' E 118°00'75363.6
2018-Apr-26 02:30N 24°26' E 117°52'829497304.5
2018-Apr-26 02:30N 38°03' E 120°34'10177718403.3
2018-Apr-26 02:29N 26°55' W 080°05'10613308131.3
2018-Apr-26 02:27N 30°52' E 121°54'440982.5
2018-Apr-26 02:01N 24°22' E 118°06'4682866.6
2018-Apr-26 02:00N 23°45' E 117°35'8713136875.2
2018-Apr-26 02:00N 38°02' E 120°40'829745807.0
2018-Apr-26 02:00N 24°26' E 117°52'4798.8
2018-Apr-26 02:00N 24°24' E 117°55'10710940381.0
2018-Apr-26 01:59N 26°55' W 080°05'10613597004.4
2018-Apr-26 01:58N 30°52' E 121°54'438941.7
2018-Apr-26 01:30N 24°24' E 118°04'8282981542.3
2018-Apr-26 01:30N 38°01' E 120°45'82841424.0
2018-Apr-26 01:29N 24°26' E 117°52'4423732.6
2018-Apr-26 01:22N 30°52' E 121°54'4851340.8
2018-Apr-26 01:00N 23°45' E 117°35'871104541.5
2018-Apr-26 01:00N 38°00' E 120°51'431194085.6
2018-Apr-26 01:00N 30°52' E 121°54'44263599.4
2018-Apr-26 00:59N 24°26' E 117°52'1047.6
2018-Apr-26 00:47N 24°26' E 118°03'48176.9
2018-Apr-26 00:30N 23°45' E 117°35'8713136424.8
2018-Apr-26 00:30N 37°59' E 120°57'82846601.9
2018-Apr-26 00:29N 24°26' E 117°52'10705218969.7
2018-Apr-26 00:26N 26°55' W 080°05'10613707560.7
2018-Apr-26 00:26N 30°52' E 121°54'0 0.0
2018-Apr-26 00:00N 30°52' E 121°54'4261535001.2
2018-Apr-26 00:00N 37°56' E 121°01'82669153.9
2018-Apr-26 00:00N 24°26' E 117°52'431798.6
2018-Apr-25 23:58N 23°46' E 117°35'1072059466.1
2018-Apr-25 23:47N 26°55' W 080°05'1021136004.7
2018-Apr-25 23:30N 37°52' E 121°03'822211490.4
2018-Apr-25 23:30N 24°26' E 117°52'44299374.1
2018-Apr-25 23:30N 30°52' E 121°54'48529585.5
2018-Apr-25 23:29N 23°45' E 117°35'86038714.6
2018-Apr-25 23:28N 37°50' E 120°44'10196509821.2
2018-Apr-25 23:26N 26°55' W 080°05'1021723592.5
2018-Apr-25 23:00N 37°48' E 121°06'819184281.5
2018-Apr-25 23:00N 24°26' E 117°52'432143.5
2018-Apr-25 22:59N 23°46' E 117°35'10720257289.8
2018-Apr-25 22:56N 26°55' W 080°05'1061319104149.2
2018-Apr-25 22:56N 30°52' E 121°54'4841117.2
2018-Apr-25 22:30N 23°47' E 117°35'8573086878.0
2018-Apr-25 22:30N 37°44' E 121°08'414114686.8
2018-Apr-25 22:30N 30°52' E 121°54'442144550.8
2018-Apr-25 22:30N 24°26' E 117°52'10705180087.3
2018-Apr-25 22:26N 26°55' W 080°05'1071824734.4
2018-Apr-25 22:00N 23°48' E 117°35'482192946.3
2018-Apr-25 22:00N 30°52' E 121°54'10613734775.0
2018-Apr-25 21:59N 26°55' W 080°05'10705592902.7
2018-Apr-25 21:58N 24°26' E 117°52'5915120992.1
2018-Apr-25 21:55N 49°18' W 122°54'5403117884.5
2018-Apr-25 21:53N 30°52' E 121°54'0 0.0
2018-Apr-25 21:30N 30°52' E 121°54'442227156.7
2018-Apr-25 21:30N 24°26' E 117°52'411412.6
2018-Apr-25 21:28N 23°48' E 117°35'85415225.9
2018-Apr-25 21:25N 37°43' E 121°07'41326542.2
2018-Apr-25 21:24N 30°52' E 121°54'4421107.3
2018-Apr-25 21:00N 24°26' E 117°52'442106001.5
2018-Apr-25 21:00N 30°52' E 121°54'4821736402.7
2018-Apr-25 21:00N 23°48' E 117°35'85427217.9
2018-Apr-25 20:58N 37°43' E 121°07'509271046.0
2018-Apr-25 20:53N 49°18' W 122°58'539913923.6
2018-Apr-25 20:30N 30°52' E 121°54'44288334.6
2018-Apr-25 20:30N 24°26' E 117°52'412322.5
2018-Apr-25 20:29N 23°48' E 117°35'595731493.0
2018-Apr-25 20:17N 49°18' W 122°58'5092176249.0
2018-Apr-25 20:16N 37°43' E 121°07'4074776.7
2018-Apr-25 20:11N 30°59' E 122°14'4572633.9
2018-Apr-25 20:00N 24°26' E 117°52'415952.6
2018-Apr-25 20:00N 23°48' E 117°35'483144861.6
2018-Apr-25 20:00N 30°52' E 121°54'53992159697.3
2018-Apr-25 19:59N 49°18' W 122°58'537942934.9
2018-Apr-25 19:52N 30°58' E 122°15'409105126.0
2018-Apr-25 19:52N 37°43' E 121°07'8552415.7
2018-Apr-25 19:30N 23°48' E 117°35'5958363509.1
2018-Apr-25 19:29N 49°18' W 122°58'5911608018.1
2018-Apr-25 19:29N 24°26' E 117°52'81441878.5
2018-Apr-25 19:28N 37°43' E 121°07'4138847.6
2018-Apr-25 19:25N 30°52' E 121°54'3092.1
2018-Apr-25 19:05N 31°16' E 121°33'30372.9
2018-Apr-25 19:00N 30°52' E 121°54'442397510.1
2018-Apr-25 19:00N 24°26' E 117°52'414137.7
2018-Apr-25 19:00N 23°48' E 117°35'595756588.4
2018-Apr-25 18:53N 49°18' W 122°58'539571938.2
2018-Apr-25 18:49N 31°16' E 121°33'3883742.7
2018-Apr-25 18:43N 37°43' E 121°07'4132016.8
2018-Apr-25 18:30N 30°52' E 121°54'442265009.9
2018-Apr-25 18:30N 24°26' E 117°52'5911147782.1
2018-Apr-25 18:28N 49°18' W 122°58'509293999.3
2018-Apr-25 18:25N 37°43' E 121°07'388279206.6
2018-Apr-25 18:25N 31°16' E 121°33'3074.7
2018-Apr-25 18:00N 30°52' E 121°54'442530019.7
2018-Apr-25 18:00N 24°26' E 117°52'4611894.8
2018-Apr-25 18:00N 23°43' E 117°35'5967536988.1
2018-Apr-25 17:59N 49°18' W 122°53'5400161994.6
2018-Apr-25 17:57N 31°16' E 121°33'3881577.4
2018-Apr-25 17:43N 37°43' E 121°07'509825035.7
2018-Apr-25 17:31N 49°17' W 122°51'59707164487.0
2018-Apr-25 17:30N 23°40' E 117°35'4901763936.9
2018-Apr-25 17:30N 30°52' E 121°54'44269127.3
2018-Apr-25 17:30N 24°26' E 117°52'8145863.0
2018-Apr-25 17:22N 37°43' E 121°07'4221601.4
2018-Apr-25 17:06N 30°45' E 122°17'4965131.5
2018-Apr-25 17:00N 23°37' E 117°35'492221521.1
2018-Apr-25 17:00N 30°52' E 121°54'44215000.6
2018-Apr-25 16:58N 24°26' E 117°52'8147536.0
2018-Apr-25 16:52N 37°43' E 121°07'42322743.6
2018-Apr-25 16:51N 30°44' E 122°17'539079517.4
2018-Apr-25 16:47N 49°18' W 122°58'5395101163.0
2018-Apr-25 16:43N 31°16' E 121°33'4542100.6
2018-Apr-25 16:30N 24°26' E 117°52'81418554.4
2018-Apr-25 16:28N 37°43' E 121°07'5092179703.9
2018-Apr-25 16:26N 49°18' W 122°58'5399747599.2
2018-Apr-25 16:26N 30°52' E 121°54'4922645.9
2018-Apr-25 16:14N 23°37' E 117°35'50526357.4
2018-Apr-25 16:13N 31°16' E 121°33'5052361.9
2018-Apr-25 16:00N 23°37' E 117°35'492177283.0
2018-Apr-25 16:00N 30°52' E 121°54'442113567.7
2018-Apr-25 16:00N 24°26' E 117°52'45465370.4
2018-Apr-25 16:00N 31°16' E 121°33'3894761.1
2018-Apr-25 15:55N 37°44' E 121°08'509028587.3
2018-Apr-25 15:44N 49°18' W 122°58'539937235.7
2018-Apr-25 15:35N 30°52' E 121°54'4425317.9
2018-Apr-25 15:30N 24°26' E 117°52'5212370.9
2018-Apr-25 15:30N 23°37' E 117°35'49259098.0
2018-Apr-25 15:30N 30°52' E 121°54'41613369.9
2018-Apr-25 15:28N 37°46' E 121°11'39116366.6
2018-Apr-25 15:26N 31°16' E 121°33'539956014.5
2018-Apr-25 15:21N 49°18' W 122°54'511518983.8
2018-Apr-25 15:04N 38°06' E 120°13'87912973.0
2018-Apr-25 15:00N 23°37' E 117°35'50529815.1
2018-Apr-25 14:59N 31°16' E 121°33'45437142.2
2018-Apr-25 14:59N 24°26' E 117°52'82829820.8
2018-Apr-25 14:57N 38°05' E 120°15'4419563.7
2018-Apr-25 14:54N 30°52' E 121°54'4162985.2
2018-Apr-25 14:46N 37°47' E 121°15'8203231.6
2018-Apr-25 14:31N 24°26' E 117°52'44216562.9
2018-Apr-25 14:29N 30°52' E 121°54'49246657.3
2018-Apr-25 14:28N 23°37' E 117°35'87187065.5
2018-Apr-25 14:28N 37°47' E 121°15'46713.7
2018-Apr-25 14:24N 38°04' E 120°22'1016649521.9
2018-Apr-25 14:12N 26°55' W 080°05'10724689426.1
2018-Apr-25 14:11N 24°32' E 118°19'8194808.0
2018-Apr-25 14:00N 38°04' E 120°27'879452208.2
2018-Apr-25 14:00N 23°37' E 117°35'6812956.5
2018-Apr-25 14:00N 24°32' E 118°19'255317.0
2018-Apr-25 14:00N 24°26' E 117°52'44218929.5
2018-Apr-25 13:58N 30°52' E 121°54'41643999.0
2018-Apr-25 13:58N 37°46' E 121°15'10227146678.1
2018-Apr-25 13:54N 26°55' W 080°05'1017726394.5
2018-Apr-25 13:30N 38°03' E 120°33'819420959.6
2018-Apr-25 13:30N 24°32' E 118°19'10724897857.6
2018-Apr-25 13:30N 26°55' W 080°05'107276436213.9
2018-Apr-25 13:29N 23°37' E 117°35'49325329.9
2018-Apr-25 13:28N 30°52' E 121°54'44299382.2
2018-Apr-25 13:28N 24°26' E 117°52'102643.4
2018-Apr-25 13:28N 24°26' E 118°03'817735116.9
2018-Apr-25 13:28N 37°45' E 121°16'3372.7
2018-Apr-25 13:00N 38°02' E 120°40'828993754.6
2018-Apr-25 13:00N 24°26' E 117°52'2530131.5
2018-Apr-25 13:00N 24°32' E 118°19'6822384.3
2018-Apr-25 13:00N 23°37' E 117°35'107271170221.7
2018-Apr-25 13:00N 26°55' W 080°05'10613489849.5
2018-Apr-25 12:58N 30°52' E 121°54'41244921.1
2018-Apr-25 12:58N 37°43' E 121°20'4121709.8
2018-Apr-25 12:43N 30°52' E 121°54'4322016.0
2018-Apr-25 12:30N 38°01' E 120°47'8281490838.4
2018-Apr-25 12:30N 24°26' E 117°52'5246436.6
2018-Apr-25 12:30N 23°37' E 117°35'6827371.4
2018-Apr-25 12:30N 24°32' E 118°19'4251529830.3
2018-Apr-25 12:30N 30°52' E 121°54'106131157821.5
2018-Apr-25 12:30N 26°55' W 080°05'1024177941.6
2018-Apr-25 12:22N 37°39' E 121°25'8652444.9
2018-Apr-25 12:00N 23°37' E 117°35'493886653.2
2018-Apr-25 12:00N 30°52' E 121°54'430774803.1
2018-Apr-25 12:00N 37°59' E 120°53'8281490540.7
2018-Apr-25 12:00N 24°26' E 117°52'2522598.6
2018-Apr-25 12:00N 24°32' E 118°19'80118718.2
2018-Apr-25 11:58N 37°37' E 121°27'10244526857.3
2018-Apr-25 11:57N 26°55' W 080°05'1072424638.1
2018-Apr-25 11:30N 23°39' E 117°34'49160931.1
2018-Apr-25 11:30N 30°52' E 121°54'106132010954.1
2018-Apr-25 11:30N 26°55' W 080°05'107052266981.1
2018-Apr-25 11:29N 24°26' E 117°52'2518078.9
2018-Apr-25 11:29N 24°32' E 118°19'79831209.5
2018-Apr-25 11:28N 37°34' E 121°25'30332.6
2018-Apr-25 11:22N 37°56' E 120°60'1303248.7
2018-Apr-25 11:20N 35°51' E 120°14'7013142.8
2018-Apr-25 11:07N 24°19' E 118°10'4414312.2
2018-Apr-25 11:00N 30°52' E 121°54'489160160.2
2018-Apr-25 11:00N 23°41' E 117°34'4834658.3
2018-Apr-25 11:00N 24°26' E 117°52'252739.2
2018-Apr-25 11:00N 24°32' E 118°19'17976.7
2018-Apr-25 10:59N 24°17' E 118°10'81457433.8
2018-Apr-25 10:58N 37°34' E 121°25'10246147537.7
2018-Apr-25 10:54N 26°55' W 080°05'102112827630.0
2018-Apr-25 10:53N 37°52' E 121°02'1232058.6
2018-Apr-25 10:50N 35°54' E 120°18'6985532.1
2018-Apr-25 10:42N 24°26' E 118°02'4373896.1
2018-Apr-25 10:35N 30°52' E 121°54'0 0.1
2018-Apr-25 10:30N 30°52' E 121°54'437786350.4
2018-Apr-25 10:30N 24°26' E 118°03'8172942921.8
2018-Apr-25 10:30N 37°49' E 121°05'864518437.5
2018-Apr-25 10:30N 23°44' E 117°34'85319947.4
2018-Apr-25 10:28N 37°34' E 121°25'10246542420.6
2018-Apr-25 10:27N 26°55' W 080°05'1072124629.4
2018-Apr-25 10:00N 23°45' E 117°35'485873250.8
2018-Apr-25 10:00N 30°52' E 121°54'437787439.2
2018-Apr-25 10:00N 24°24' E 118°06'1323994.7
2018-Apr-25 10:00N 24°26' E 117°52'81648945.3
2018-Apr-25 09:59N 37°44' E 121°08'17638.7
2018-Apr-25 09:58N 37°34' E 121°25'10246148130.9
2018-Apr-25 09:54N 26°55' W 080°05'10270143858.5
2018-Apr-25 09:49N 36°01' E 120°19'3191016.0
2018-Apr-25 09:30N 30°52' E 121°54'438394616.7
2018-Apr-25 09:30N 24°22' E 118°09'1628696.3
2018-Apr-25 09:30N 24°26' E 117°52'4439346.2
2018-Apr-25 09:30N 23°45' E 117°35'10721173068.1
2018-Apr-25 09:27N 26°55' W 080°05'10246126751.2
2018-Apr-25 09:22N 37°34' E 121°25'4021136.0
2018-Apr-25 09:00N 30°52' E 121°54'439316432.7
2018-Apr-25 09:00N 24°20' E 118°11'4824536.4
2018-Apr-25 09:00N 23°45' E 117°35'446841.9
2018-Apr-25 09:00N 24°26' E 117°52'107052141036.6
2018-Apr-25 09:00N 26°55' W 080°05'10246323549.0
2018-Apr-25 08:58N 37°34' E 121°25'111608.1
2018-Apr-25 08:47N 35°60' E 120°12'3191175.6
2018-Apr-25 08:30N 30°52' E 121°54'442318185.5
2018-Apr-25 08:30N 24°17' E 118°11'711159871.4
2018-Apr-25 08:30N 35°60' E 120°12'704422471.5
2018-Apr-25 08:30N 24°26' E 117°52'446556.9
2018-Apr-25 08:30N 23°45' E 117°35'1072138594170.2
2018-Apr-25 08:30N 26°55' W 080°05'10246326412.2
2018-Apr-25 08:28N 37°34' E 121°25'402885.4
2018-Apr-25 08:00N 30°52' E 121°54'442317989.5
2018-Apr-25 08:00N 24°26' E 117°52'21841.3
2018-Apr-25 07:59N 24°14' E 118°11'442466.8
2018-Apr-25 07:58N 23°45' E 117°35'8521022037.8
2018-Apr-25 07:58N 37°34' E 121°25'1112655.2
2018-Apr-25 07:55N 35°60' E 120°12'10265373276.6
2018-Apr-25 07:54N 26°55' W 080°05'1072127805.6
2018-Apr-25 07:30N 23°45' E 117°35'4851746482.7
2018-Apr-25 07:30N 30°52' E 121°54'442530019.7
2018-Apr-25 07:30N 24°26' E 117°52'2310481.7
2018-Apr-25 07:30N 24°11' E 118°12'10734990853.9
2018-Apr-25 07:30N 26°55' W 080°05'10246326412.2
2018-Apr-25 07:28N 37°34' E 121°25'1764.5
2018-Apr-25 07:12N 37°43' E 121°07'4132155.1
2018-Apr-25 07:00N 30°52' E 121°54'414165453.4
2018-Apr-25 07:00N 37°44' E 121°07'8581544894.6
2018-Apr-25 07:00N 23°45' E 117°35'446561.1
2018-Apr-25 07:00N 24°26' E 117°52'107052408666.2
2018-Apr-25 07:00N 26°55' W 080°05'107351104154.7
2018-Apr-25 06:59N 24°10' E 118°12'82037381.3
2018-Apr-25 06:58N 37°34' E 121°25'111358.5
2018-Apr-25 06:39N 35°60' E 120°12'7475132.2
2018-Apr-25 06:30N 23°45' E 117°35'48587330.8
2018-Apr-25 06:30N 30°52' E 121°54'448322377.9
2018-Apr-25 06:30N 24°10' E 118°12'244082.0
2018-Apr-25 06:30N 24°26' E 117°52'107057707731.8
2018-Apr-25 06:30N 26°55' W 080°05'102231840208.5
2018-Apr-25 06:29N 37°47' E 121°12'17638.0
2018-Apr-25 06:28N 37°34' E 121°25'111531.8
2018-Apr-25 06:15N 35°60' E 120°12'7473038.8
2018-Apr-25 06:00N 23°45' E 117°35'446301.0
2018-Apr-25 06:00N 24°26' E 117°52'247795.5
2018-Apr-25 06:00N 24°10' E 118°12'15736.7
2018-Apr-25 05:59N 24°24' E 118°06'80850137.0
2018-Apr-25 05:58N 37°34' E 121°25'165717.0
2018-Apr-25 05:58N 37°48' E 121°16'10226669337.2
2018-Apr-25 05:57N 26°55' W 080°05'1026553402.3
2018-Apr-25 05:45N 35°60' E 120°12'7473070.0
2018-Apr-25 05:30N 23°45' E 117°35'4210056.1
2018-Apr-25 05:30N 24°10' E 118°12'248577.9
2018-Apr-25 05:30N 24°26' E 117°52'80820938.2
2018-Apr-25 05:28N 37°34' E 121°25'10246148728.1
2018-Apr-25 05:24N 26°55' W 080°05'1072127765.7
2018-Apr-25 05:00N 23°45' E 117°35'4452501.9
2018-Apr-25 05:00N 24°26' E 117°52'247799.4
2018-Apr-25 05:00N 24°10' E 118°12'717215124.7
2018-Apr-25 05:00N 35°60' E 120°12'102651539765.8
2018-Apr-25 05:00N 26°55' W 080°05'10246332293.4
2018-Apr-25 04:58N 37°34' E 121°25'1635.0
2018-Apr-25 04:31N 37°48' E 121°16'8641555328.0
2018-Apr-25 04:30N 23°45' E 117°35'429427.6
2018-Apr-25 04:30N 24°10' E 118°12'107351136634.2
2018-Apr-25 04:30N 26°55' W 080°05'107059634664.7
2018-Apr-25 04:30N 24°26' E 117°52'25324.0
2018-Apr-25 04:25N 24°32' E 118°19'79714950.7
2018-Apr-25 04:22N 37°34' E 121°25'1132.4
2018-Apr-25 04:01N 37°44' E 121°19'861221306.2
2018-Apr-25 04:00N 23°45' E 117°35'4230165.7
2018-Apr-25 04:00N 24°10' E 118°12'249535.8
2018-Apr-25 04:00N 24°26' E 117°52'107051482256.1
2018-Apr-25 04:00N 26°55' W 080°05'107241930393.0
2018-Apr-25 03:59N 24°32' E 118°19'79730537.6
2018-Apr-25 03:58N 37°34' E 121°25'8521874.3
2018-Apr-25 03:30N 23°45' E 117°35'6222285.0
2018-Apr-25 03:30N 24°32' E 118°19'2316620.1
2018-Apr-25 03:30N 24°10' E 118°12'827270520.8
2018-Apr-25 03:30N 37°40' E 121°23'102381602495.7
2018-Apr-25 03:30N 26°55' W 080°05'10246326412.1
2018-Apr-25 03:28N 37°34' E 121°25'80814408.0
2018-Apr-25 03:24N 24°26' E 117°52'8122039.0
2018-Apr-25 03:01N 37°37' E 121°26'812417419.8
2018-Apr-25 03:00N 24°26' E 117°52'2515065.7
2018-Apr-25 03:00N 24°32' E 118°19'235935.7
2018-Apr-25 03:00N 24°10' E 118°12'82021246.9
2018-Apr-25 02:58N 37°34' E 121°25'1024660765.3
2018-Apr-25 02:48N 26°55' W 080°05'1072137470.4
2018-Apr-25 02:30N 23°45' E 117°35'426284.5
2018-Apr-25 02:30N 24°10' E 118°12'247165.3
2018-Apr-25 02:30N 24°26' E 117°52'80822737.8
2018-Apr-25 02:28N 37°34' E 121°25'21413.1
2018-Apr-25 02:28N 37°36' E 121°25'10244154303.6
2018-Apr-25 02:24N 26°55' W 080°05'1026573322.2
2018-Apr-25 02:15N 35°60' E 120°12'3337501.8
2018-Apr-25 02:13N 30°42' E 122°13'3331606.8
2018-Apr-25 02:00N 35°60' E 120°12'7472689347.7
2018-Apr-25 02:00N 23°45' E 117°35'4431507.2
2018-Apr-25 02:00N 24°26' E 117°52'443265934.8
2018-Apr-25 02:00N 30°44' E 122°14'448107579.1
2018-Apr-25 02:00N 24°10' E 118°12'107359661443.3
2018-Apr-25 02:00N 26°55' W 080°05'10246317970.4
2018-Apr-25 01:58N 37°34' E 121°25'21766.3
2018-Apr-25 01:58N 37°36' E 121°25'8541885.4
2018-Apr-25 01:30N 23°45' E 117°35'8521022147.7
2018-Apr-25 01:30N 37°34' E 121°25'8091455300.2
2018-Apr-25 01:30N 24°26' E 117°52'10705875878.6
2018-Apr-25 01:30N 26°55' W 080°05'106341664390.6
2018-Apr-25 01:29N 30°48' E 122°14'41015050.6
2018-Apr-25 01:28N 37°36' E 121°25'1121934.9
2018-Apr-25 01:24N 35°60' E 120°12'7471892.6
2018-Apr-25 01:00N 23°45' E 117°35'493591773.5
2018-Apr-25 01:00N 30°52' E 122°14'10630850438.3
2018-Apr-25 01:00N 26°55' W 080°05'10244682926.7
2018-Apr-25 00:59N 37°34' E 121°23'80947718.3
2018-Apr-25 00:58N 24°26' E 117°52'810364666.2
2018-Apr-25 00:58N 37°36' E 121°25'112536.3
2018-Apr-25 00:45N 35°60' E 120°12'112464.3
2018-Apr-25 00:31N 37°36' E 121°25'854614633.5
2018-Apr-25 00:30N 23°45' E 117°35'4971788055.0
2018-Apr-25 00:30N 30°55' E 122°15'4531632094.9
2018-Apr-25 00:30N 24°26' E 117°52'10705875878.6
2018-Apr-25 00:30N 26°55' W 080°05'10244670509.9
2018-Apr-25 00:29N 37°34' E 121°23'110688.3
2018-Apr-25 00:19N 35°60' E 120°12'112362.0
2018-Apr-25 00:01N 37°36' E 121°25'854768281.3
2018-Apr-25 00:00N 23°45' E 117°35'499898338.1
2018-Apr-25 00:00N 30°59' E 122°13'45668359.0
2018-Apr-25 00:00N 24°26' E 117°52'107051926932.9
2018-Apr-25 00:00N 26°55' W 080°05'10244635828.3
2018-Apr-24 23:59N 37°34' E 121°23'109341.5
2018-Apr-24 23:40N 36°01' E 120°13'111736.1
2018-Apr-24 23:31N 37°36' E 121°25'810324147.8
2018-Apr-24 23:30N 24°26' E 117°52'4411240.3
2018-Apr-24 23:30N 23°45' E 117°35'501600643.8
2018-Apr-24 23:30N 31°02' E 122°10'3945457.0
2018-Apr-24 23:26N 37°34' E 121°23'1074534.8
2018-Apr-24 23:24N 36°02' E 120°15'10266972557.4
2018-Apr-24 23:24N 26°55' W 080°05'1062328286.2
2018-Apr-24 23:01N 30°43' E 121°57'41338157.2
2018-Apr-24 23:01N 37°36' E 121°25'394236368.2
2018-Apr-24 23:00N 31°03' E 122°07'500200012.8
2018-Apr-24 23:00N 23°45' E 117°35'478286995.3
2018-Apr-24 23:00N 30°43' E 121°57'106231233643.7
2018-Apr-24 23:00N 26°55' W 080°05'10244658536.8
2018-Apr-24 22:59N 37°34' E 121°23'80929108.2
2018-Apr-24 22:57N 24°26' E 117°52'70718441.4
2018-Apr-24 22:55N 36°01' E 120°20'108266.7
2018-Apr-24 22:31N 37°36' E 121°25'393282606.5
2018-Apr-24 22:30N 31°04' E 122°03'456547199.5
2018-Apr-24 22:30N 24°26' E 117°52'449829.0
2018-Apr-24 22:30N 23°45' E 117°35'107211543764.3
2018-Apr-24 22:30N 26°55' W 080°05'10244658536.8
2018-Apr-24 22:29N 37°34' E 121°23'1091370.0
2018-Apr-24 22:24N 35°57' E 120°21'303774.3
2018-Apr-24 22:01N 31°06' E 121°59'499138168.9
2018-Apr-24 22:00N 23°45' E 117°35'107211043085.7
2018-Apr-24 22:00N 26°55' W 080°05'10244646983.2
2018-Apr-24 21:59N 37°34' E 121°23'1131303.1
2018-Apr-24 21:54N 35°54' E 120°18'115299.6
2018-Apr-24 21:31N 37°36' E 121°25'8541536499.3
2018-Apr-24 21:30N 23°45' E 117°35'499138125.8
2018-Apr-24 21:30N 31°07' E 121°56'29718436.0
2018-Apr-24 21:29N 35°52' E 120°15'11613064.2
2018-Apr-24 21:29N 37°34' E 121°23'1024455455.7
2018-Apr-24 21:18N 26°55' W 080°05'1024435804.4
2018-Apr-24 21:01N 37°36' E 121°25'8541536499.3
2018-Apr-24 21:00N 23°45' E 117°35'499598974.2
2018-Apr-24 21:00N 31°09' E 121°53'38613622.8
2018-Apr-24 20:59N 37°34' E 121°23'10244302279.0
2018-Apr-24 20:57N 26°55' W 080°05'1024423459.6
2018-Apr-24 20:30N 37°36' E 121°25'8541536488.8
2018-Apr-24 20:30N 23°45' E 117°35'10721839003.3
2018-Apr-24 20:30N 26°55' W 080°05'105937626659.2
2018-Apr-24 20:30N 31°12' E 121°49'3835916.9
2018-Apr-24 20:26N 37°34' E 121°23'2 4.9
2018-Apr-24 20:00N 37°36' E 121°25'8543073061.9
2018-Apr-24 20:00N 23°45' E 117°35'502150588.0
2018-Apr-24 20:00N 31°15' E 121°46'38014537.3
2018-Apr-24 19:59N 37°34' E 121°23'2 4.4
2018-Apr-24 19:30N 37°36' E 121°25'270.3
2018-Apr-24 19:29N 37°34' E 121°23'8521808.1
2018-Apr-24 19:00N 23°45' E 117°35'85230063.7
2018-Apr-24 18:59N 37°34' E 121°23'3711203.7
2018-Apr-24 18:40N 31°23' E 121°35'5053096.0
2018-Apr-24 18:30N 23°45' E 117°35'8543073146.3
2018-Apr-24 18:30N 37°36' E 121°25'37244651.1
2018-Apr-24 18:30N 31°24' E 121°33'105682377863.2
2018-Apr-24 18:30N 26°55' W 080°05'10705433018.6
2018-Apr-24 18:28N 24°26' E 117°52'8098874.4
2018-Apr-24 18:23N 37°34' E 121°23'2 5.5
2018-Apr-24 18:00N 37°36' E 121°25'810583466.0
2018-Apr-24 18:00N 24°26' E 117°52'10705939967.3
2018-Apr-24 18:00N 26°55' W 080°05'107219648579.3
2018-Apr-24 18:00N 23°45' E 117°35'85260130.3
2018-Apr-24 17:59N 37°34' E 121°23'8521803.9
2018-Apr-24 17:30N 23°45' E 117°35'4439378.9
2018-Apr-24 17:30N 24°26' E 117°52'10705963466.5
2018-Apr-24 17:30N 26°55' W 080°05'10244635828.7
2018-Apr-24 17:29N 37°34' E 121°23'379807.8
2018-Apr-24 17:01N 31°15' E 121°33'497223700.1
2018-Apr-24 17:00N 23°45' E 117°35'854768307.5
2018-Apr-24 17:00N 37°36' E 121°25'810132605.9
2018-Apr-24 17:00N 24°26' E 117°52'80938300.2
2018-Apr-24 16:59N 37°34' E 121°23'379136419.7
2018-Apr-24 16:59N 31°15' E 121°32'4501079.8
2018-Apr-24 16:34N 24°26' E 118°03'80915087.0
2018-Apr-24 16:30N 37°36' E 121°25'10244921963.9
2018-Apr-24 16:30N 26°55' W 080°05'10705727144.5
2018-Apr-24 16:29N 24°26' E 117°52'809363852.3
2018-Apr-24 16:29N 37°34' E 121°23'852613333.6
2018-Apr-24 16:29N 23°45' E 117°35'49441378.1
2018-Apr-24 16:28N 31°13' E 121°30'4471647.5
2018-Apr-24 16:12N 24°26' E 118°02'8084311.2
2018-Apr-24 16:00N 37°36' E 121°25'809181919.9
2018-Apr-24 16:00N 24°26' E 118°03'48172562.3
2018-Apr-24 16:00N 23°45' E 117°35'107211608107.4
2018-Apr-24 16:00N 26°55' W 080°05'10244625051.6
2018-Apr-24 15:59N 37°34' E 121°23'809223909.1
2018-Apr-24 15:59N 24°26' E 117°52'4478203.9
2018-Apr-24 15:55N 31°10' E 121°28'4901187.2
2018-Apr-24 15:30N 23°45' E 117°35'487447.6
2018-Apr-24 15:30N 24°27' E 118°00'72208.7
2018-Apr-24 15:30N 24°26' E 117°52'107054282073.2
2018-Apr-24 15:30N 26°55' W 080°05'10244604558.1
2018-Apr-24 15:29N 37°34' E 121°23'211.9
2018-Apr-24 15:18N 37°36' E 121°25'7997777.1
2018-Apr-24 15:12N 24°32' E 118°19'1785.5
2018-Apr-24 15:00N 24°26' E 118°02'1715084.8
2018-Apr-24 15:00N 24°32' E 118°19'7992877497.4
2018-Apr-24 15:00N 37°36' E 121°25'854122929.2
2018-Apr-24 15:00N 23°45' E 117°35'107212756755.5
2018-Apr-24 15:00N 26°55' W 080°05'10244614634.0
2018-Apr-24 14:59N 37°34' E 121°23'8092910818.7
2018-Apr-24 14:59N 24°26' E 117°52'1124.1
2018-Apr-24 14:30N 24°25' E 118°04'1526654.9
2018-Apr-24 14:30N 24°32' E 118°19'2545194.5
2018-Apr-24 14:30N 24°26' E 117°52'444501.0
2018-Apr-24 14:30N 23°45' E 117°35'107219648640.3
2018-Apr-24 14:30N 26°55' W 080°05'10244154949.8
2018-Apr-24 14:26N 37°34' E 121°23'8522021.5
2018-Apr-24 14:00N 23°45' E 117°35'48173578.5
2018-Apr-24 14:00N 24°23' E 118°07'810416642.5
2018-Apr-24 14:00N 37°36' E 121°25'799411071.1
2018-Apr-24 14:00N 24°32' E 118°19'2545197.2
2018-Apr-24 14:00N 24°26' E 117°52'80910942.8
2018-Apr-24 13:56N 37°34' E 121°23'10244307317.2
2018-Apr-24 13:54N 26°55' W 080°05'1072127626.7
2018-Apr-24 13:30N 23°45' E 117°35'6274246.3
2018-Apr-24 13:30N 24°32' E 118°19'145066.7
2018-Apr-24 13:30N 24°21' E 118°09'107241331310.5
2018-Apr-24 13:30N 26°55' W 080°05'107051675593.9
2018-Apr-24 13:29N 24°26' E 117°52'81024515.4
2018-Apr-24 13:27N 37°36' E 121°25'211.6
2018-Apr-24 13:17N 37°34' E 121°23'8092985.4
2018-Apr-24 13:01N 24°26' E 117°52'4452528.8
2018-Apr-24 13:00N 23°45' E 117°35'47168718.4
2018-Apr-24 13:00N 24°19' E 118°11'1518560.7
2018-Apr-24 13:00N 24°32' E 118°19'799719379.7
2018-Apr-24 13:00N 37°36' E 121°25'276.3
2018-Apr-24 12:59N 37°34' E 121°23'10244123338.0
2018-Apr-24 12:54N 26°55' W 080°05'1072727624.4
2018-Apr-24 12:30N 24°19' E 118°10'4718640.5
2018-Apr-24 12:30N 23°45' E 117°35'107211169531.8
2018-Apr-24 12:30N 26°55' W 080°05'107241286929.9
2018-Apr-24 12:29N 24°32' E 118°19'253930.0
2018-Apr-24 12:29N 24°26' E 117°52'8106511.9
2018-Apr-24 12:21N 37°36' E 121°25'276.3
2018-Apr-24 12:20N 37°34' E 121°23'8122519.3
2018-Apr-24 12:00N 24°19' E 118°10'1833037.4
2018-Apr-24 12:00N 24°26' E 117°52'4426252.6
2018-Apr-24 12:00N 23°45' E 117°35'6255680.6
2018-Apr-24 12:00N 24°32' E 118°19'107241378853.4
2018-Apr-24 12:00N 26°55' W 080°05'10244614635.0
2018-Apr-24 11:59N 37°34' E 121°23'289.3
2018-Apr-24 11:57N 37°36' E 121°25'8541902.9
2018-Apr-24 11:30N 23°45' E 117°35'47167948.7
2018-Apr-24 11:30N 24°19' E 118°10'814325698.9
2018-Apr-24 11:30N 37°36' E 121°25'799719374.4
2018-Apr-24 11:30N 24°32' E 118°19'252915.9
2018-Apr-24 11:30N 24°26' E 117°52'80951065.5
2018-Apr-24 11:29N 37°34' E 121°23'1024443902.3
2018-Apr-24 11:15N 26°55' W 080°05'1072144981.7
2018-Apr-24 11:00N 23°45' E 117°35'852306645.9
2018-Apr-24 11:00N 37°34' E 121°23'81248743.1
2018-Apr-24 10:59N 24°19' E 118°10'184399.7
2018-Apr-24 10:59N 24°26' E 117°52'81028601.3
2018-Apr-24 10:57N 37°36' E 121°25'102441084663.9
2018-Apr-24 10:57N 26°55' W 080°05'107241754903.6
2018-Apr-24 10:56N 24°32' E 118°19'7981846.9
2018-Apr-24 10:30N 37°34' E 121°24'8521533728.8
2018-Apr-24 10:30N 23°45' E 117°35'46165100.5
2018-Apr-24 10:30N 24°17' E 118°11'205083.8
2018-Apr-24 10:30N 24°26' E 117°52'8108194.7
2018-Apr-24 10:24N 37°36' E 121°25'1024494560.4
2018-Apr-24 10:18N 26°55' W 080°05'1070536914.4
2018-Apr-24 10:00N 24°26' E 117°52'810583466.0
2018-Apr-24 10:00N 37°36' E 121°25'818736320.1
2018-Apr-24 10:00N 24°15' E 118°11'4422774.4
2018-Apr-24 10:00N 23°45' E 117°35'107212144121.5
2018-Apr-24 10:00N 26°55' W 080°05'10244945575.7
2018-Apr-24 09:59N 37°37' E 121°26'2 3.9
2018-Apr-24 09:30N 37°36' E 121°25'53637.2
2018-Apr-24 09:30N 37°41' E 121°24'815488936.5
2018-Apr-24 09:30N 24°26' E 117°52'446291.3
2018-Apr-24 09:30N 23°45' E 117°35'10721107207.2
2018-Apr-24 09:24N 26°55' W 080°05'1023226293.1
2018-Apr-24 09:00N 37°44' E 121°20'94761.9
2018-Apr-24 09:00N 37°36' E 121°25'8541024262.1
2018-Apr-24 09:00N 23°45' E 117°35'442419.7
2018-Apr-24 08:59N 24°26' E 117°52'10705265783.9
2018-Apr-24 08:57N 26°55' W 080°05'1073363761.5
2018-Apr-24 08:47N 24°11' E 118°11'42154.3
2018-Apr-24 08:30N 23°45' E 117°35'4148943.2
2018-Apr-24 08:30N 24°10' E 118°10'833499786.1
2018-Apr-24 08:30N 37°48' E 121°16'102261269468.3
2018-Apr-24 08:30N 26°55' W 080°05'107056423109.8
2018-Apr-24 08:30N 24°26' E 117°52'81143575.4
2018-Apr-24 08:29N 37°36' E 121°26'8261748.3
2018-Apr-24 08:00N 24°07' E 118°10'3917462.8
2018-Apr-24 08:00N 23°45' E 117°35'107212031296.1
2018-Apr-24 08:00N 26°55' W 080°05'102404607904.7
2018-Apr-24 08:00N 37°39' E 121°24'814108525.7
2018-Apr-24 07:59N 24°26' E 117°52'8218278.5
2018-Apr-24 07:53N 37°48' E 121°16'8642270.7
2018-Apr-24 07:30N 23°45' E 117°35'10721989605.8
2018-Apr-24 07:30N 26°55' W 080°05'107057707731.8
2018-Apr-24 07:30N 24°26' E 117°52'81794830.5
2018-Apr-24 07:29N 37°43' E 121°21'8365040.5
2018-Apr-24 07:19N 24°03' E 118°09'8403614.4
2018-Apr-24 07:05N 37°48' E 121°16'86410727.0
2018-Apr-24 07:00N 23°45' E 117°35'4431460.8
2018-Apr-24 07:00N 24°26' E 117°52'107051133490.0
2018-Apr-24 07:00N 26°55' W 080°05'1073919330398.9
2018-Apr-24 07:00N 24°01' E 118°09'842101073.4
2018-Apr-24 06:59N 37°48' E 121°16'0 0.4
2018-Apr-24 06:31N 37°48' E 121°16'864777848.0
2018-Apr-24 06:30N 23°45' E 117°35'446554.3
2018-Apr-24 06:30N 24°26' E 117°52'314022.5
2018-Apr-24 06:30N 23°58' E 118°08'10741111431.4
2018-Apr-24 06:24N 26°55' W 080°05'1070527410.1
2018-Apr-24 06:00N 24°26' E 117°52'4410486.9
2018-Apr-24 06:00N 23°45' E 117°35'864518483.6
2018-Apr-24 06:00N 37°49' E 121°12'848436269.4
2018-Apr-24 06:00N 23°56' E 118°08'107429668227.2
2018-Apr-24 06:00N 26°55' W 080°05'1021124105.5
2018-Apr-24 05:34N 37°55' E 121°06'456.0
2018-Apr-24 05:30N 37°51' E 121°07'8531534765.2
2018-Apr-24 05:30N 23°53' E 118°07'368607.4
2018-Apr-24 05:30N 24°26' E 117°52'8275070.1
2018-Apr-24 05:20N 37°56' E 121°04'10208235580.7
2018-Apr-24 05:18N 26°55' W 080°05'1020935371.3
2018-Apr-24 05:01N 37°55' E 121°03'10209967125.8
2018-Apr-24 05:00N 26°55' W 080°05'107054282073.2
2018-Apr-24 05:00N 24°26' E 117°52'4426217.3
2018-Apr-24 05:00N 23°45' E 117°35'291233.6
2018-Apr-24 04:58N 23°50' E 118°06'8613742.3
2018-Apr-24 04:44N 37°58' E 120°58'1 2.5
2018-Apr-24 04:30N 37°57' E 120°58'33035.0
2018-Apr-24 04:30N 37°59' E 120°55'828212804.9
2018-Apr-24 04:30N 24°26' E 117°52'4426217.3
2018-Apr-24 04:30N 23°45' E 117°35'284861.8
2018-Apr-24 04:30N 23°49' E 118°06'10746219797.3
2018-Apr-24 04:27N 26°55' W 080°05'1072451614.8
2018-Apr-24 04:14N 24°32' E 118°19'0 0.0
2018-Apr-24 04:01N 24°32' E 118°19'8172940804.2
2018-Apr-24 04:01N 37°59' E 120°52'21712.4
2018-Apr-24 04:00N 37°60' E 120°49'871348296.4
2018-Apr-24 04:00N 23°45' E 117°35'2850947.0
2018-Apr-24 04:00N 23°49' E 118°06'3970353.0
2018-Apr-24 04:00N 24°26' E 117°52'10705100886.5
2018-Apr-24 03:54N 26°55' W 080°05'1019026220.6
2018-Apr-24 03:31N 37°60' E 120°46'870783180.0
2018-Apr-24 03:30N 23°45' E 117°35'8711044950.4
2018-Apr-24 03:30N 38°01' E 120°43'863282304.4
2018-Apr-24 03:30N 23°49' E 118°06'4514736.7
2018-Apr-24 03:30N 24°32' E 118°19'107244289762.2
2018-Apr-24 03:30N 26°55' W 080°05'107053853865.9
2018-Apr-24 03:30N 24°26' E 117°52'4489.7
2018-Apr-24 03:00N 23°45' E 117°35'2825474.2
2018-Apr-24 03:00N 23°49' E 118°06'3970363.3
2018-Apr-24 03:00N 24°26' E 117°52'2545197.2
2018-Apr-24 03:00N 24°32' E 118°19'817294280.2
2018-Apr-24 03:00N 38°01' E 120°39'101831929467.9
2018-Apr-24 03:00N 26°55' W 080°05'101801357389.6
2018-Apr-24 02:59N 38°02' E 120°37'3 5.6
2018-Apr-24 02:31N 38°02' E 120°33'8701044064.2
2018-Apr-24 02:30N 23°45' E 117°35'8711567529.3
2018-Apr-24 02:30N 38°03' E 120°31'8631553330.6
2018-Apr-24 02:30N 23°49' E 118°06'39140747.0
2018-Apr-24 02:30N 24°26' E 117°52'8863190390.3
2018-Apr-24 02:30N 38°52' E 121°32'9291865.0
2018-Apr-24 02:00N 23°45' E 117°35'2833966.6
2018-Apr-24 02:00N 23°49' E 118°06'3970373.5
2018-Apr-24 02:00N 24°26' E 117°52'827248215.2
2018-Apr-24 02:00N 38°03' E 120°27'283.2
2018-Apr-24 01:58N 38°04' E 120°25'3 5.5
2018-Apr-24 01:30N 38°04' E 120°22'870241030.8
2018-Apr-24 01:30N 23°45' E 117°35'2825475.0
2018-Apr-24 01:30N 23°49' E 118°06'396702.2
2018-Apr-24 01:30N 24°26' E 117°52'4732735.8
2018-Apr-24 01:19N 31°60' E 120°22'3661699.7
2018-Apr-24 01:06N 38°06' E 120°15'220.0
2018-Apr-24 01:01N 38°04' E 120°16'870783230.8
2018-Apr-24 01:00N 23°45' E 117°35'4439346.2
2018-Apr-24 01:00N 24°26' E 117°52'393804.0
2018-Apr-24 01:00N 23°49' E 118°06'50741500.7
2018-Apr-24 00:59N 32°01' E 120°24'3658374.6
2018-Apr-24 00:56N 38°06' E 120°13'3 5.8
2018-Apr-24 00:31N 38°05' E 120°10'8701044338.0
2018-Apr-24 00:30N 23°45' E 117°35'4439363.8
2018-Apr-24 00:30N 24°26' E 117°52'47681667.9
2018-Apr-24 00:30N 32°02' E 120°28'50938177.9
2018-Apr-24 00:29N 23°49' E 118°06'8657573.7
2018-Apr-24 00:22N 38°07' E 120°07'2 5.5
2018-Apr-24 00:00N 38°05' E 120°07'870284676.2
2018-Apr-24 00:00N 23°45' E 117°35'4426185.4
2018-Apr-24 00:00N 24°26' E 117°52'47711442.2
2018-Apr-23 23:58N 32°02' E 120°32'5095252.8
2018-Apr-23 23:52N 23°49' E 118°06'213596.2
2018-Apr-23 23:30N 25°13' E 121°41'213255862.3
2018-Apr-23 23:30N 24°26' E 117°52'4325899.0
2018-Apr-23 23:30N 23°46' E 117°35'2851192.3
2018-Apr-23 23:30N 23°49' E 118°06'863207227.6
2018-Apr-23 23:30N 38°06' E 120°04'84428136.9
2018-Apr-23 23:28N 24°08' E 118°10'8441830.3
2018-Apr-23 23:01N 38°07' E 119°58'828426012.4
2018-Apr-23 23:00N 24°26' E 117°52'4124472.6
2018-Apr-23 23:00N 23°48' E 117°35'415843.2
2018-Apr-23 23:00N 24°12' E 118°11'20427246.5
2018-Apr-23 22:59N 25°13' E 121°45'2185573.4
2018-Apr-23 22:57N 23°47' E 118°05'3169.8
2018-Apr-23 22:30N 24°17' E 118°10'4339048.8
2018-Apr-23 22:30N 23°48' E 117°35'24738661.7
2018-Apr-23 22:30N 25°12' E 121°50'221795562.8
2018-Apr-23 22:30N 24°26' E 117°52'4563105.4
2018-Apr-23 22:21N 31°09' E 121°54'4971446.6
2018-Apr-23 22:00N 23°48' E 117°35'4532680.8
2018-Apr-23 22:00N 24°21' E 118°09'21227198.5
2018-Apr-23 22:00N 25°12' E 121°55'225405657.1
2018-Apr-23 22:00N 24°26' E 117°52'6982518.2
2018-Apr-23 21:43N 35°53' E 120°16'7383469.0
2018-Apr-23 21:30N 23°48' E 117°35'4627539.4
2018-Apr-23 21:30N 24°24' E 118°06'13900.6
2018-Apr-23 21:30N 24°26' E 117°52'7022508.6
2018-Apr-23 21:13N 35°56' E 120°20'7515864.1
2018-Apr-23 21:05N 23°35' E 118°03'29371.1
2018-Apr-23 21:00N 23°47' E 117°35'4633246.2
2018-Apr-23 21:00N 24°26' E 118°02'91152.2
2018-Apr-23 21:00N 24°26' E 117°52'70416889.9
2018-Apr-23 20:57N 35°58' E 120°21'7562644.6
2018-Apr-23 20:40N 23°32' E 118°02'29180.3
2018-Apr-23 20:30N 23°47' E 117°35'4554144.1
2018-Apr-23 20:30N 24°27' E 117°58'5373.7
2018-Apr-23 20:30N 24°26' E 117°52'70717918.1
2018-Apr-23 20:27N 36°01' E 120°18'3142768.8
2018-Apr-23 20:20N 31°01' E 122°07'4971481.6
2018-Apr-23 20:00N 23°47' E 117°35'423500.8
2018-Apr-23 20:00N 24°26' E 117°52'5913174468.1
2018-Apr-23 19:58N 49°18' W 122°57'5211605156.3
2018-Apr-23 19:57N 36°06' E 120°15'3213888.1
2018-Apr-23 19:52N 30°59' E 122°10'38266.6
2018-Apr-23 19:44N 31°12' E 121°29'1057550025.4
2018-Apr-23 19:31N 26°55' W 080°05'107191429168.8
2018-Apr-23 19:30N 23°47' E 117°35'422787.7
2018-Apr-23 19:30N 24°26' E 117°52'107054817321.8
2018-Apr-23 19:29N 26°55' W 080°05'10575115014.0
2018-Apr-23 19:24N 31°13' E 121°30'540036539.2
2018-Apr-23 19:15N 49°18' W 122°58'539921911.0
2018-Apr-23 19:00N 31°15' E 121°30'494197524.4
2018-Apr-23 19:00N 23°47' E 117°35'422747.6
2018-Apr-23 18:59N 24°26' E 117°52'5911163695.7
2018-Apr-23 18:57N 49°18' W 122°58'596013452.8
2018-Apr-23 18:30N 23°45' E 117°35'4411432.7
2018-Apr-23 18:30N 24°26' E 117°52'5909303895.5
2018-Apr-23 18:29N 49°18' W 123°01'5903303563.1
2018-Apr-23 18:28N 24°27' E 117°60'3 7.0
2018-Apr-23 18:00N 24°26' E 118°03'5237145.5
2018-Apr-23 18:00N 23°41' E 117°35'4734182.9
2018-Apr-23 18:00N 24°26' E 117°52'1326.7
2018-Apr-23 17:31N 24°24' E 118°06'557870.1
2018-Apr-23 17:30N 23°38' E 117°35'51308.6
2018-Apr-23 17:20N 24°26' E 117°52'1648.7
2018-Apr-23 17:01N 24°22' E 118°09'5415050.9
2018-Apr-23 17:00N 23°37' E 117°35'5130893.6
2018-Apr-23 17:00N 24°26' E 117°52'51103.8
2018-Apr-23 16:30N 23°37' E 117°35'5312806.8
2018-Apr-23 16:30N 24°19' E 118°11'191800.7
2018-Apr-23 16:30N 24°26' E 117°52'51105.9
2018-Apr-23 16:00N 23°37' E 117°35'51183312.3
2018-Apr-23 16:00N 24°16' E 118°11'206577.6
2018-Apr-23 16:00N 24°26' E 117°52'51103.6
2018-Apr-23 15:30N 23°37' E 117°35'4834911.6
2018-Apr-23 15:30N 24°13' E 118°11'228765.6
2018-Apr-23 15:30N 24°26' E 117°52'2558.1
2018-Apr-23 15:04N 24°32' E 118°19'0 0.0
2018-Apr-23 15:00N 24°32' E 118°19'252582.7
2018-Apr-23 15:00N 24°26' E 117°52'470141078.6
2018-Apr-23 15:00N 31°44' E 121°08'266578.4
2018-Apr-23 14:32N 36°06' E 120°15'70126013.4
2018-Apr-23 14:30N 24°32' E 118°19'252443.1
2018-Apr-23 14:30N 24°26' E 117°52'46912994.1
2018-Apr-23 14:28N 31°42' E 121°10'268935.3
2018-Apr-23 14:10N 36°06' E 120°15'7624548.4
2018-Apr-23 14:00N 23°37' E 117°35'520468210.5
2018-Apr-23 14:00N 31°40' E 121°12'455545414.4
2018-Apr-23 14:00N 24°32' E 118°19'2515065.7
2018-Apr-23 14:00N 24°26' E 117°52'7112084.1
2018-Apr-23 13:40N 36°06' E 120°15'7014546.9
2018-Apr-23 13:31N 24°32' E 118°19'6818905.2
2018-Apr-23 13:30N 23°37' E 117°35'51917809.6
2018-Apr-23 13:29N 31°39' E 121°14'46818722.6
2018-Apr-23 13:27N 24°26' E 117°52'7112948.7
2018-Apr-23 13:13N 36°06' E 120°15'7013476.2
2018-Apr-23 13:00N 24°32' E 118°19'68245750.6
2018-Apr-23 13:00N 23°37' E 117°35'519373366.2
2018-Apr-23 13:00N 31°37' E 121°16'467168193.4
2018-Apr-23 13:00N 24°26' E 117°52'51103.8
2018-Apr-23 12:30N 23°37' E 117°35'517465572.8
2018-Apr-23 12:30N 31°35' E 121°18'451541548.6
2018-Apr-23 12:30N 24°32' E 118°19'253615.6
2018-Apr-23 12:30N 24°26' E 117°52'2551.2
2018-Apr-23 12:01N 24°32' E 118°19'450231387.9
2018-Apr-23 12:00N 31°33' E 121°21'46557686.3
2018-Apr-23 12:00N 24°26' E 117°52'526871.3
2018-Apr-23 11:59N 23°37' E 117°35'5076065.4
2018-Apr-23 11:54N 31°09' E 121°53'2 5.5
2018-Apr-23 11:30N 31°08' E 121°55'3531653.7
2018-Apr-23 11:30N 31°31' E 121°24'449539273.2
2018-Apr-23 11:30N 24°32' E 118°19'25547.8
2018-Apr-23 11:28N 24°26' E 117°52'512470.7
2018-Apr-23 11:26N 23°37' E 117°35'0 0.0
2018-Apr-23 11:00N 23°37' E 117°35'515308925.9
2018-Apr-23 11:00N 31°29' E 121°27'449538294.5
2018-Apr-23 11:00N 24°32' E 118°19'25844.8
2018-Apr-23 10:59N 24°26' E 117°52'7112376.5
2018-Apr-23 10:41N 36°06' E 120°15'7584495.5
2018-Apr-23 10:30N 23°41' E 117°35'481789.0
2018-Apr-23 10:29N 24°26' E 117°52'7104571.9
2018-Apr-23 10:20N 36°05' E 120°16'7532346.0
2018-Apr-23 10:00N 23°45' E 117°35'4431388.2
2018-Apr-23 10:00N 24°26' E 117°52'4387.5
2018-Apr-23 09:30N 23°46' E 117°35'432081.8
2018-Apr-23 09:29N 24°26' E 117°52'0 0.0
2018-Apr-23 08:59N 24°26' E 117°52'432439.6
2018-Apr-23 08:58N 23°46' E 117°35'0 0.0
2018-Apr-23 08:30N 23°46' E 117°35'432138.8
2018-Apr-23 08:29N 24°26' E 117°52'0 0.0
2018-Apr-23 08:01N 24°26' E 117°52'4326019.2
2018-Apr-23 08:00N 23°46' E 117°35'7472064.6
2018-Apr-23 07:39N 35°60' E 120°12'7475419.7
2018-Apr-23 07:30N 23°46' E 117°35'431346.0
2018-Apr-23 07:29N 24°26' E 117°52'7043906.3
2018-Apr-23 07:18N 35°60' E 120°12'7472548.1
2018-Apr-23 07:00N 23°46' E 117°35'747103392.1
2018-Apr-23 07:00N 35°60' E 120°12'704126759.0
2018-Apr-23 06:59N 24°26' E 117°52'466098.1
2018-Apr-23 06:59N 23°43' E 117°35'5021161.7
2018-Apr-23 06:33N 31°09' E 121°53'50010396.2
2018-Apr-23 06:30N 23°46' E 117°35'50024977.8
2018-Apr-23 06:29N 31°09' E 121°53'45674675.6
2018-Apr-23 06:29N 24°26' E 117°52'7048623.1
2018-Apr-23 06:24N 35°60' E 120°12'305787.0
2018-Apr-23 06:00N 31°08' E 121°56'499199698.9
2018-Apr-23 06:00N 23°46' E 117°35'4339033.8
2018-Apr-23 06:00N 24°26' E 117°52'7042726.0
2018-Apr-23 05:45N 35°60' E 120°12'7473140.4
2018-Apr-23 05:30N 23°46' E 117°35'499898272.2
2018-Apr-23 05:30N 31°06' E 121°59'4561641187.1
2018-Apr-23 05:30N 24°26' E 117°52'70458957.7
2018-Apr-23 05:30N 35°60' E 120°12'309627.2
2018-Apr-23 05:00N 31°05' E 122°02'45624142.7
2018-Apr-23 04:59N 24°26' E 117°52'70417852.9
2018-Apr-23 04:57N 35°60' E 120°12'74779062.5
2018-Apr-23 04:56N 23°46' E 117°35'4399.8
2018-Apr-23 04:30N 24°26' E 117°52'4312010.4
2018-Apr-23 04:30N 23°46' E 117°35'7474914.3
2018-Apr-23 04:21N 35°60' E 120°12'6949577.0
2018-Apr-23 04:16N 24°32' E 118°19'4408803.2
2018-Apr-23 04:13N 31°04' E 122°06'4402028.9
2018-Apr-23 04:00N 24°32' E 118°19'440226471.0
2018-Apr-23 04:00N 31°03' E 122°08'457182900.1
2018-Apr-23 04:00N 24°26' E 117°52'436246.2
2018-Apr-23 04:00N 23°46' E 117°35'7472993.5
2018-Apr-23 03:45N 35°60' E 120°12'7473155.4
2018-Apr-23 03:30N 23°46' E 117°35'4331265.2
2018-Apr-23 03:30N 24°26' E 117°52'253930.2
2018-Apr-23 03:30N 24°32' E 118°19'69471416.4
2018-Apr-23 03:29N 35°60' E 120°12'3143283.7
2018-Apr-23 03:24N 31°02' E 122°11'4401131.0
2018-Apr-23 03:00N 24°32' E 118°19'62110996.5
2018-Apr-23 03:00N 23°45' E 117°35'436521.6
2018-Apr-23 03:00N 24°26' E 117°52'457137039.0
2018-Apr-23 03:00N 31°01' E 122°12'3164162.6
2018-Apr-23 02:55N 36°00' E 120°13'7471792.3
2018-Apr-23 02:30N 23°45' E 117°35'431863.5
2018-Apr-23 02:29N 24°26' E 117°52'7054396.6
2018-Apr-23 02:19N 36°00' E 120°13'7052255.0
2018-Apr-23 02:00N 24°26' E 117°52'4352179.4
2018-Apr-23 02:00N 23°45' E 117°35'7472236.3
2018-Apr-23 01:40N 36°00' E 120°13'7474567.6
2018-Apr-23 01:30N 23°45' E 117°35'4331307.6
2018-Apr-23 01:30N 24°26' E 117°52'7055177.2
2018-Apr-23 01:22N 36°00' E 120°13'7472064.7
2018-Apr-23 01:00N 23°45' E 117°35'434230.8
2018-Apr-23 01:00N 24°26' E 117°52'7053963.8
2018-Apr-23 00:49N 36°00' E 120°13'7472393.5
2018-Apr-23 00:30N 23°45' E 117°35'4331307.6
2018-Apr-23 00:30N 24°26' E 117°52'7052446.3
2018-Apr-23 00:13N 36°00' E 120°13'7473549.2
2018-Apr-23 00:00N 23°45' E 117°35'4326089.7
2018-Apr-23 00:00N 24°26' E 117°52'70518653.2
2018-Apr-22 23:58N 36°00' E 120°13'7471621.6
2018-Apr-22 23:30N 23°45' E 117°35'436522.4
2018-Apr-22 23:30N 24°26' E 117°52'7058717.6
2018-Apr-22 23:25N 36°00' E 120°13'3173690.2
2018-Apr-22 23:20N 30°60' E 122°13'712532224.3
2018-Apr-22 23:07N 05°37' E 000°01'712666629.9
2018-Apr-22 23:00N 30°59' E 122°13'499128296.3
2018-Apr-22 23:00N 23°46' E 117°35'4339112.1
2018-Apr-22 23:00N 24°26' E 117°52'7053849.5
2018-Apr-22 22:49N 36°00' E 120°13'3216276.5
2018-Apr-22 22:46N 30°56' E 122°14'4951889.4
2018-Apr-22 22:30N 23°47' E 117°35'4311770.6
2018-Apr-22 22:30N 24°26' E 117°52'454163533.3
2018-Apr-22 22:30N 30°57' E 122°14'130.7
2018-Apr-22 22:28N 30°57' E 122°13'3191595.4
2018-Apr-22 22:16N 36°00' E 120°13'7052676.0
2018-Apr-22 22:00N 24°26' E 117°52'452813486.1
2018-Apr-22 22:00N 30°54' E 122°14'6264.5
2018-Apr-22 21:59N 30°59' E 122°11'496148654.2
2018-Apr-22 21:59N 23°49' E 117°35'74476554.5
2018-Apr-22 21:58N 36°00' E 120°13'7441598.7
2018-Apr-22 21:30N 23°49' E 117°35'414305.7
2018-Apr-22 21:30N 24°26' E 117°52'455818811.9
2018-Apr-22 21:30N 31°01' E 122°07'11333.2
2018-Apr-22 21:28N 30°51' E 122°14'3257312.9
2018-Apr-22 21:25N 36°00' E 120°13'7051693.5
2018-Apr-22 21:00N 24°26' E 117°52'4471609722.7
2018-Apr-22 21:00N 30°49' E 122°13'488438808.8
2018-Apr-22 21:00N 23°49' E 117°35'4961569.3
2018-Apr-22 20:41N 31°03' E 122°03'20110.6
2018-Apr-22 20:30N 30°46' E 122°13'485291164.1
2018-Apr-22 20:30N 23°48' E 117°35'412048.1
2018-Apr-22 20:29N 24°26' E 117°52'45526005.4
2018-Apr-22 20:28N 31°04' E 122°01'4961080.2
2018-Apr-22 20:00N 23°48' E 117°35'415910.5
2018-Apr-22 20:00N 24°26' E 117°52'4411343.1
2018-Apr-22 19:40N 30°42' E 122°13'33463251.8
2018-Apr-22 19:40N 36°00' E 120°13'30652533.4
2018-Apr-22 19:40N 31°06' E 121°57'4552932.4
2018-Apr-22 19:30N 24°26' E 117°52'436394.4
2018-Apr-22 19:30N 23°46' E 117°35'49823275.4
2018-Apr-22 19:29N 31°07' E 121°57'3062808.7
2018-Apr-22 19:22N 36°00' E 120°13'2792995.6
2018-Apr-22 19:17N 31°30' E 121°35'5464455.7
2018-Apr-22 19:09N 23°14' E 117°18'5343674.1
2018-Apr-22 19:01N 31°08' E 121°54'53451946.7
2018-Apr-22 19:00N 23°15' E 117°16'334559.0
2018-Apr-22 18:59N 23°43' E 117°35'4627561.8
2018-Apr-22 18:59N 24°26' E 117°52'4373161.8
2018-Apr-22 18:51N 30°38' E 122°11'33710637.0
2018-Apr-22 18:49N 36°00' E 120°13'7532396.6
2018-Apr-22 18:30N 23°40' E 117°35'332684.6
2018-Apr-22 18:30N 23°16' E 117°11'80863.9
2018-Apr-22 18:24N 24°26' E 117°52'7056248.4
2018-Apr-22 18:17N 36°00' E 120°13'7792769.3
2018-Apr-22 18:00N 23°18' E 117°06'3323409.6
2018-Apr-22 18:00N 23°36' E 117°35'521967.8
2018-Apr-22 17:59N 24°26' E 117°52'7073545.5
2018-Apr-22 17:47N 36°02' E 120°15'7792829.5
2018-Apr-22 17:30N 23°22' E 117°02'333253.0
2018-Apr-22 17:30N 23°36' E 117°35'522877.0
2018-Apr-22 17:29N 24°26' E 117°52'7113315.2
2018-Apr-22 17:16N 36°06' E 120°16'7622913.7
2018-Apr-22 17:00N 23°36' E 117°35'523399.4
2018-Apr-22 16:59N 24°26' E 117°52'52109.0
2018-Apr-22 16:30N 23°36' E 117°35'5231157.6
2018-Apr-22 16:30N 24°26' E 117°52'0 0.0
2018-Apr-22 15:59N 24°26' E 117°52'5237376.8
2018-Apr-22 15:59N 23°37' E 117°35'0 0.0
2018-Apr-22 15:30N 23°36' E 117°35'5211682.8
2018-Apr-22 15:30N 24°26' E 117°52'1664150.9
2018-Apr-22 15:28N 22°39' E 120°10'154340.6
2018-Apr-22 15:00N 23°37' E 117°35'158189698.2
2018-Apr-22 15:00N 22°38' E 120°14'16919680.4
2018-Apr-22 15:00N 24°26' E 117°52'172350.6
2018-Apr-22 14:30N 22°36' E 120°17'16134079.6
2018-Apr-22 14:30N 23°37' E 117°35'514106.2
2018-Apr-22 14:29N 24°26' E 117°52'51106.5
2018-Apr-22 14:00N 23°37' E 117°35'16157913.7
2018-Apr-22 14:00N 22°36' E 120°17'1728380.3
2018-Apr-22 13:59N 24°26' E 117°52'25105.4
2018-Apr-22 13:45N 24°32' E 118°19'68283.3
2018-Apr-22 13:30N 23°37' E 117°35'6822325.9
2018-Apr-22 13:30N 24°32' E 118°19'15915440.3
2018-Apr-22 13:30N 22°36' E 120°17'81053987.7
2018-Apr-22 13:29N 36°06' E 120°16'71147408.8
2018-Apr-22 13:28N 24°26' E 117°52'51113.3
2018-Apr-22 13:00N 23°37' E 117°35'161289617.0
2018-Apr-22 13:00N 22°36' E 120°17'1729843.5
2018-Apr-22 12:59N 24°26' E 117°52'7114112.5
2018-Apr-22 12:49N 36°05' E 120°18'7012241.7
2018-Apr-22 12:30N 24°32' E 118°19'15911425.9
2018-Apr-22 12:29N 22°36' E 120°17'17228188.3
2018-Apr-22 12:29N 24°26' E 117°52'5110892.4
2018-Apr-22 12:29N 23°37' E 117°35'0 0.1
2018-Apr-22 12:00N 23°37' E 117°35'16164374.5
2018-Apr-22 12:00N 22°36' E 120°17'17247703.2
2018-Apr-22 12:00N 24°26' E 117°52'7113700.7
2018-Apr-22 11:49N 36°06' E 120°20'7622532.0
2018-Apr-22 11:30N 23°37' E 117°35'5137075.2
2018-Apr-22 11:30N 24°26' E 117°52'172620141.7
2018-Apr-22 11:30N 22°36' E 120°17'15995215.4
2018-Apr-22 11:30N 24°32' E 118°19'68136.0
2018-Apr-22 11:00N 23°38' E 117°35'6822125.5
2018-Apr-22 11:00N 24°32' E 118°19'256456.7
2018-Apr-22 11:00N 24°26' E 117°52'17212656.0
2018-Apr-22 10:59N 22°36' E 120°17'171520.9
2018-Apr-22 10:39N 23°15' E 117°16'79519.1
2018-Apr-22 10:30N 24°26' E 117°52'4610336.6
2018-Apr-22 10:30N 23°43' E 117°35'1639974.0
2018-Apr-22 10:29N 22°36' E 120°17'1703211.0
2018-Apr-22 10:26N 23°14' E 117°17'3787.2
2018-Apr-22 10:00N 23°48' E 117°35'412700.1
2018-Apr-22 09:59N 24°26' E 117°52'1728495.1
2018-Apr-22 09:58N 22°36' E 120°17'1685357.7
2018-Apr-22 09:56N 23°13' E 117°19'168391.1
2018-Apr-22 09:30N 22°36' E 120°17'166596225.9
2018-Apr-22 09:30N 23°49' E 117°35'4148811.1
2018-Apr-22 09:30N 24°26' E 117°52'791151.0
2018-Apr-22 09:26N 23°12' E 117°21'3989.8
2018-Apr-22 09:00N 23°49' E 117°35'4129290.6
2018-Apr-22 09:00N 24°26' E 117°52'7919058.1
2018-Apr-22 09:00N 23°11' E 117°23'16412283.5
2018-Apr-22 08:59N 22°36' E 120°17'8096293.6
2018-Apr-22 08:52N 36°06' E 120°20'7512131.0
2018-Apr-22 08:30N 23°48' E 117°35'7511352133.8
2018-Apr-22 08:30N 36°06' E 120°20'809264893.8
2018-Apr-22 08:30N 22°36' E 120°15'16082115.9
2018-Apr-22 08:30N 23°10' E 117°26'160320.9
2018-Apr-22 08:00N 22°36' E 120°15'16549400.0
2018-Apr-22 08:00N 23°48' E 117°35'413266.0
2018-Apr-22 07:59N 24°26' E 117°52'801963.9
2018-Apr-22 07:57N 23°09' E 117°28'2 4.4
2018-Apr-22 07:30N 23°08' E 117°30'156140140.4
2018-Apr-22 07:30N 22°36' E 120°15'16598767.1
2018-Apr-22 07:30N 23°48' E 117°35'414198.0
2018-Apr-22 07:30N 24°26' E 117°52'80165.0
2018-Apr-22 07:00N 23°08' E 117°32'4014353.6
2018-Apr-22 07:00N 23°47' E 117°35'16445481.2
2018-Apr-22 07:00N 22°36' E 120°15'17261782.6
2018-Apr-22 07:00N 24°26' E 117°52'7111876.1
2018-Apr-22 06:37N 36°06' E 120°20'8107236.2
2018-Apr-22 06:30N 22°36' E 120°15'15268276.3
2018-Apr-22 06:30N 23°07' E 117°34'39138695.9
2018-Apr-22 06:30N 23°45' E 117°35'44699.0
2018-Apr-22 06:27N 24°26' E 117°52'7112130.1
2018-Apr-22 06:06N 36°06' E 120°20'7587533.9
2018-Apr-22 06:00N 23°42' E 117°35'16212122.2
2018-Apr-22 06:00N 22°36' E 120°16'150538556.7
2018-Apr-22 06:00N 23°06' E 117°36'822553.9
2018-Apr-22 05:58N 24°26' E 117°52'71128429.4
2018-Apr-22 05:56N 36°05' E 120°19'8101890.1
2018-Apr-22 05:31N 22°36' E 120°15'14715613.2
2018-Apr-22 05:30N 23°05' E 117°39'3411000.4
2018-Apr-22 05:30N 23°38' E 117°35'504122.0
2018-Apr-22 05:29N 24°26' E 117°52'7075930.4
2018-Apr-22 05:22N 36°02' E 120°15'335980.0
2018-Apr-22 05:01N 30°37' E 121°53'48928403.2
2018-Apr-22 05:00N 22°36' E 120°15'160191776.1
2018-Apr-22 05:00N 23°37' E 117°35'47930265.6
2018-Apr-22 04:59N 30°37' E 121°53'506455795.4
2018-Apr-22 04:59N 23°04' E 117°41'834594.6
2018-Apr-22 04:58N 24°26' E 117°52'70419500.2
2018-Apr-22 04:56N 35°60' E 120°12'0 0.1
2018-Apr-22 04:31N 35°60' E 120°12'755906248.1
2018-Apr-22 04:30N 23°37' E 117°35'16010856.0
2018-Apr-22 04:30N 22°36' E 120°15'492126548.0
2018-Apr-22 04:29N 30°40' E 121°55'43112133.6
2018-Apr-22 04:27N 24°26' E 117°52'841633.2
2018-Apr-22 04:24N 23°02' E 117°44'95740.7
2018-Apr-22 04:16N 24°32' E 118°19'95487.3
2018-Apr-22 04:05N 22°59' E 117°59'951315.6
2018-Apr-22 04:00N 24°32' E 118°19'417136589.9
2018-Apr-22 04:00N 30°42' E 121°57'4951781387.8
2018-Apr-22 04:00N 22°36' E 120°15'14142181.6
2018-Apr-22 04:00N 23°02' E 117°46'1214740.4
2018-Apr-22 04:00N 22°59' E 117°59'8728577.3
2018-Apr-22 04:00N 24°26' E 117°52'527133.2
2018-Apr-22 03:59N 23°37' E 117°35'7553688.7
2018-Apr-22 03:47N 35°60' E 120°12'7552740.7
2018-Apr-22 03:30N 23°37' E 117°35'5211602.8
2018-Apr-22 03:30N 24°26' E 117°52'8661736.2
2018-Apr-22 03:30N 23°00' E 117°48'515264803.0
2018-Apr-22 03:30N 30°44' E 121°60'497357646.1
2018-Apr-22 03:30N 22°36' E 120°15'8046907.4
2018-Apr-22 03:23N 35°60' E 120°12'78912629.2
2018-Apr-22 03:19N 22°59' E 117°59'128412.9
2018-Apr-22 03:01N 22°36' E 120°15'13697592.6
2018-Apr-22 03:00N 22°59' E 117°51'9758068.3
2018-Apr-22 03:00N 24°32' E 118°19'42237076.7
2018-Apr-22 03:00N 30°45' E 122°03'328831.6
2018-Apr-22 02:36N 35°60' E 120°12'3273582.2
2018-Apr-22 02:31N 30°46' E 122°06'492136341.9
2018-Apr-22 02:30N 23°37' E 117°35'5246365.0
2018-Apr-22 02:30N 24°26' E 117°52'17217164.6
2018-Apr-22 02:30N 22°36' E 120°15'15837983.1
2018-Apr-22 02:29N 24°32' E 118°19'6944825.1
2018-Apr-22 02:21N 35°60' E 120°12'8042368.5
2018-Apr-22 02:00N 22°36' E 120°15'160115118.7
2018-Apr-22 02:00N 23°37' E 117°35'5212374.9
2018-Apr-22 02:00N 24°26' E 117°52'44472710.7
2018-Apr-22 02:00N 30°48' E 122°07'3262036.9
2018-Apr-22 01:50N 35°60' E 120°12'7924338.6
2018-Apr-22 01:39N 22°57' E 117°55'0 0.0
2018-Apr-22 01:30N 22°57' E 117°55'13127790.0
2018-Apr-22 01:30N 22°36' E 120°15'160115150.8
2018-Apr-22 01:30N 23°37' E 117°35'755453142.4
2018-Apr-22 01:30N 35°60' E 120°12'32461483.4
2018-Apr-22 01:30N 30°50' E 122°09'4477767.7
2018-Apr-22 01:26N 24°26' E 117°52'172399.7
2018-Apr-22 01:00N 22°36' E 120°15'160575737.7
2018-Apr-22 01:00N 23°37' E 117°35'500299796.0
2018-Apr-22 01:00N 30°53' E 122°10'449202044.7
2018-Apr-22 01:00N 24°26' E 117°52'7043806.1
2018-Apr-22 00:49N 35°60' E 120°12'8042561.3
2018-Apr-22 00:30N 22°36' E 120°15'510262172.0
2018-Apr-22 00:30N 30°55' E 122°10'50254762.3
2018-Apr-22 00:30N 23°37' E 117°35'52591.8
2018-Apr-22 00:24N 24°26' E 117°52'70413066.4
2018-Apr-22 00:21N 35°60' E 120°12'7927462.1
2018-Apr-22 00:15N 22°57' E 117°55'89371.0
2018-Apr-22 00:00N 24°26' E 117°52'4541632719.7
2018-Apr-22 00:00N 30°58' E 122°10'50453392.2
2018-Apr-22 00:00N 23°37' E 117°35'16026169.5
2018-Apr-21 23:59N 22°36' E 120°15'13152469.7
2018-Apr-21 23:59N 22°57' E 117°55'7924474.9
2018-Apr-21 23:49N 35°60' E 120°12'7552489.9
2018-Apr-21 23:30N 23°37' E 117°35'160115144.3
2018-Apr-21 23:30N 22°36' E 120°15'514925790.3
2018-Apr-21 23:30N 31°00' E 122°08'533639982.9
2018-Apr-21 23:30N 22°57' E 117°55'8913373.4
2018-Apr-21 23:30N 24°26' E 117°52'7043722.3
2018-Apr-21 23:19N 35°60' E 120°12'3131031.9
2018-Apr-21 23:00N 31°02' E 122°06'51554571.1
2018-Apr-21 23:00N 22°36' E 120°15'16130509.7
2018-Apr-21 22:59N 23°39' E 117°34'505266.4
2018-Apr-21 22:59N 24°26' E 117°52'70427553.1
2018-Apr-21 22:57N 35°60' E 120°12'7921918.2
2018-Apr-21 22:33N 22°57' E 117°55'1313524.1
2018-Apr-21 22:30N 22°36' E 120°15'16341886.8
2018-Apr-21 22:30N 23°44' E 117°35'511642.2
2018-Apr-21 22:28N 22°57' E 117°55'899440.7
2018-Apr-21 22:28N 24°26' E 117°52'7044348.0
2018-Apr-21 22:18N 35°60' E 120°12'8042738.2
2018-Apr-21 22:00N 22°36' E 120°15'16539523.2
2018-Apr-21 22:00N 23°49' E 117°35'322016.9
2018-Apr-21 21:59N 23°27' E 118°01'601285.8
2018-Apr-21 21:56N 24°26' E 117°52'7044702.9
2018-Apr-21 21:47N 35°60' E 120°12'8042845.9
2018-Apr-21 21:30N 22°36' E 120°15'17214371.3
2018-Apr-21 21:30N 24°26' E 117°52'54549.9
2018-Apr-21 21:24N 23°33' E 118°01'7556583.7
2018-Apr-21 21:17N 35°60' E 120°12'7442696.6
2018-Apr-21 21:00N 23°48' E 117°35'412818.7
2018-Apr-21 21:00N 24°26' E 117°52'17221309.2
2018-Apr-21 20:59N 22°36' E 120°15'13710951.6
2018-Apr-21 20:58N 23°37' E 118°02'7523844.0
2018-Apr-21 20:47N 36°00' E 120°13'7928643.0
2018-Apr-21 20:41N 22°57' E 117°55'131728.8
2018-Apr-21 20:30N 22°36' E 120°15'16528226.0
2018-Apr-21 20:30N 23°48' E 117°35'281500.9
2018-Apr-21 20:29N 23°41' E 118°04'46312.8
2018-Apr-21 20:20N 24°26' E 117°52'892182.5
2018-Apr-21 20:18N 22°57' E 117°55'79630147.0
2018-Apr-21 20:16N 36°03' E 120°15'8073125.1
2018-Apr-21 20:01N 22°36' E 120°15'16417929.3
2018-Apr-21 20:00N 23°48' E 117°35'4210681.5
2018-Apr-21 20:00N 24°26' E 117°52'41400.6
2018-Apr-21 19:54N 23°47' E 118°06'74717939.4
2018-Apr-21 19:51N 36°05' E 120°18'7512189.3
2018-Apr-21 19:30N 23°48' E 117°35'16449304.0
2018-Apr-21 19:30N 22°36' E 120°15'1723613.7
2018-Apr-21 19:27N 24°26' E 117°52'4421075.5
2018-Apr-21 19:03N 30°43' E 122°13'48411925.6
2018-Apr-21 19:00N 23°48' E 117°35'16439441.2
2018-Apr-21 19:00N 22°36' E 120°15'49994559.7
2018-Apr-21 19:00N 30°44' E 122°13'336811.1
2018-Apr-21 18:35N 36°06' E 120°20'73618797.9
2018-Apr-21 18:33N 23°58' E 118°08'311272.4
2018-Apr-21 18:31N 24°26' E 117°52'17211234.7
2018-Apr-21 18:30N 22°36' E 120°15'16426892.6
2018-Apr-21 18:30N 23°48' E 117°35'54381.7
2018-Apr-21 18:21N 22°57' E 117°55'892392.8
2018-Apr-21 18:19N 24°26' E 117°52'71118422.3
2018-Apr-21 18:17N 36°06' E 120°20'7334032.5
2018-Apr-21 18:06N 24°02' E 118°10'1441605.8
2018-Apr-21 18:00N 22°36' E 120°15'1319637.8
2018-Apr-21 18:00N 22°57' E 117°55'6780586.8
2018-Apr-21 18:00N 24°03' E 118°10'3614232.6
2018-Apr-21 17:59N 23°48' E 117°35'4917041.0
2018-Apr-21 17:55N 30°51' E 122°14'32813437.4
2018-Apr-21 17:54N 36°06' E 120°20'7112712.6
2018-Apr-21 17:38N 24°26' E 117°52'1721357.9
2018-Apr-21 17:30N 22°36' E 120°15'164591579.7
2018-Apr-21 17:30N 23°48' E 117°35'4249840.4
2018-Apr-21 17:30N 24°26' E 117°52'8953407.3
2018-Apr-21 17:30N 22°57' E 117°55'79924163.0
2018-Apr-21 17:28N 36°06' E 120°20'3252631.7
2018-Apr-21 17:21N 30°56' E 122°14'5111499.1
2018-Apr-21 17:00N 22°36' E 120°15'131473034.0
2018-Apr-21 17:00N 22°57' E 117°55'8979825.7
2018-Apr-21 17:00N 24°26' E 117°52'455163893.3
2018-Apr-21 17:00N 30°58' E 122°14'497297963.5
2018-Apr-21 17:00N 23°48' E 117°35'41214.5
2018-Apr-21 16:49N 24°12' E 118°10'4603020.1
2018-Apr-21 16:40N 30°59' E 122°12'4993288.6
2018-Apr-21 16:30N 23°45' E 117°35'163147084.6
2018-Apr-21 16:30N 22°36' E 120°15'51597538.9
2018-Apr-21 16:30N 31°00' E 122°11'458412511.9
2018-Apr-21 16:30N 24°15' E 118°10'204257.5
2018-Apr-21 16:30N 24°26' E 117°52'8912279.2
2018-Apr-21 16:29N 22°57' E 117°55'48100.8
2018-Apr-21 16:00N 23°42' E 117°35'4810862.1
2018-Apr-21 16:00N 24°18' E 118°10'181371.1
2018-Apr-21 15:59N 24°26' E 117°52'45720820.9
2018-Apr-21 15:58N 31°02' E 122°09'454987.9
2018-Apr-21 15:31N 24°22' E 118°08'15794479.1
2018-Apr-21 15:30N 22°36' E 120°15'16182545.6
2018-Apr-21 15:30N 23°39' E 117°35'504950.7
2018-Apr-21 15:30N 24°26' E 117°52'4566625.4
2018-Apr-21 15:26N 31°04' E 122°05'5171232.2
2018-Apr-21 15:00N 22°36' E 120°15'16248537.5
2018-Apr-21 15:00N 24°25' E 118°05'554522.2
2018-Apr-21 14:59N 23°37' E 117°35'507140287.4
2018-Apr-21 14:59N 31°04' E 122°02'456164065.3
2018-Apr-21 14:59N 24°26' E 117°52'891399.9
2018-Apr-21 14:55N 22°57' E 117°55'97562.9
2018-Apr-21 14:45N 24°32' E 118°19'158661.0
2018-Apr-21 14:31N 22°36' E 120°15'160143906.8
2018-Apr-21 14:30N 23°37' E 117°35'5246400.6
2018-Apr-21 14:30N 24°26' E 117°52'2510043.8
2018-Apr-21 14:30N 24°32' E 118°19'43922894.3
2018-Apr-21 14:29N 31°06' E 121°58'4524116.6
2018-Apr-21 14:23N 24°27' E 117°59'892237.0
2018-Apr-21 14:20N 22°57' E 117°55'44133.0
2018-Apr-21 14:00N 23°37' E 117°35'68246051.5
2018-Apr-21 14:00N 24°32' E 118°19'439527153.3
2018-Apr-21 14:00N 31°08' E 121°54'520468034.6
2018-Apr-21 14:00N 22°36' E 120°15'17223767.4
2018-Apr-21 14:00N 24°26' E 117°52'89872.6
2018-Apr-21 13:54N 22°57' E 117°55'131338.0
2018-Apr-21 13:30N 22°36' E 120°15'16063916.9
2018-Apr-21 13:30N 23°37' E 117°35'445059.4
2018-Apr-21 13:30N 22°57' E 117°55'8913308.5
2018-Apr-21 13:29N 24°26' E 117°52'25837.0
2018-Apr-21 13:28N 24°32' E 118°19'158350.2
2018-Apr-21 13:00N 22°36' E 120°15'160575362.4
2018-Apr-21 13:00N 23°37' E 117°35'6811192.9
2018-Apr-21 13:00N 24°32' E 118°19'251255.4
2018-Apr-21 12:59N 24°26' E 117°52'8963915.5
2018-Apr-21 12:59N 22°57' E 117°55'131278.0
2018-Apr-21 12:30N 22°36' E 120°15'158569762.6
2018-Apr-21 12:30N 24°32' E 118°19'9819510.1
2018-Apr-21 12:30N 22°57' E 117°55'448263.6
2018-Apr-21 12:30N 23°37' E 117°35'527146.5
2018-Apr-21 12:29N 24°26' E 117°52'172356.6
2018-Apr-21 12:00N 22°36' E 120°15'160287760.9
2018-Apr-21 12:00N 23°37' E 117°35'44156758.0
2018-Apr-21 12:00N 22°57' E 117°54'98176076.2
2018-Apr-21 12:00N 24°32' E 118°19'257532.9
2018-Apr-21 12:00N 24°26' E 117°52'52104.1
2018-Apr-21 11:30N 23°37' E 117°35'6882149.2
2018-Apr-21 11:30N 24°32' E 118°19'9844016.4
2018-Apr-21 11:30N 22°57' E 117°54'89160056.9
2018-Apr-21 11:30N 24°26' E 117°52'17212874.0
2018-Apr-21 11:29N 22°36' E 120°15'163697.4
2018-Apr-21 11:15N 24°26' E 118°04'163658.4
2018-Apr-21 11:00N 22°36' E 120°15'160287844.6
2018-Apr-21 11:00N 23°37' E 117°35'5292975.2
2018-Apr-21 11:00N 24°26' E 117°52'126027.2
2018-Apr-21 11:00N 24°25' E 118°05'1223.6
2018-Apr-21 10:30N 24°26' E 117°52'144490.0
2018-Apr-21 10:30N 24°24' E 118°07'1608460.6
2018-Apr-21 10:29N 22°36' E 120°15'1609594.6
2018-Apr-21 10:28N 23°37' E 117°35'44477.1
2018-Apr-21 10:23N 22°57' E 117°55'53428682.5
2018-Apr-21 10:21N 31°03' E 122°03'4521288.3
2018-Apr-21 10:00N 24°22' E 118°09'1628625.2
2018-Apr-21 10:00N 24°26' E 117°52'172205979.3
2018-Apr-21 10:00N 22°36' E 120°15'517620385.6
2018-Apr-21 10:00N 31°04' E 122°01'53415634.3
2018-Apr-21 09:58N 22°57' E 117°55'445458.9
2018-Apr-21 09:58N 23°37' E 117°35'54117.6
2018-Apr-21 09:30N 24°19' E 118°10'54193006.0
2018-Apr-21 09:30N 23°37' E 117°35'525814.1
2018-Apr-21 09:30N 24°26' E 117°52'71115152.2
2018-Apr-21 09:27N 36°06' E 120°20'31110451.8
2018-Apr-21 09:25N 31°06' E 121°57'4551097.0
2018-Apr-21 09:00N 24°18' E 118°10'154554868.7
2018-Apr-21 09:00N 22°36' E 120°15'16215307.6
2018-Apr-21 09:00N 23°40' E 117°34'4959073.7
2018-Apr-21 09:00N 24°26' E 117°52'45529790.6
2018-Apr-21 08:59N 31°07' E 121°56'3103909.8
2018-Apr-21 08:54N 36°06' E 120°20'7181822.5
2018-Apr-21 08:30N 24°17' E 118°10'153110154.4
2018-Apr-21 08:30N 22°36' E 120°15'163146851.5
2018-Apr-21 08:30N 23°44' E 117°34'4553604.8
2018-Apr-21 08:30N 24°26' E 117°52'45515456.3
2018-Apr-21 08:28N 31°08' E 121°54'306981.2
2018-Apr-21 08:10N 36°03' E 120°16'8075235.5
2018-Apr-21 08:00N 22°36' E 120°15'163587572.7
2018-Apr-21 08:00N 23°46' E 117°35'4377970.3
2018-Apr-21 08:00N 24°15' E 118°10'2071681.9
2018-Apr-21 08:00N 24°26' E 117°52'7067586.9
2018-Apr-21 07:55N 36°01' E 120°14'7481839.5
2018-Apr-21 07:30N 23°47' E 117°35'4351012.6
2018-Apr-21 07:30N 24°26' E 117°52'17216698.0
2018-Apr-21 07:30N 22°36' E 120°15'1503600.6
2018-Apr-21 07:27N 24°12' E 118°10'71612390.4
2018-Apr-21 07:24N 36°00' E 120°13'8042068.6
2018-Apr-21 07:00N 22°36' E 120°15'1653275.0
2018-Apr-21 06:57N 23°49' E 117°35'7456585.5
2018-Apr-21 06:51N 36°00' E 120°13'8042379.7
2018-Apr-21 06:30N 22°36' E 120°15'96771071.3
2018-Apr-21 06:30N 38°40' E 121°40'91686799.0
2018-Apr-21 06:29N 23°49' E 117°35'41762.3
2018-Apr-21 06:26N 24°26' E 117°52'7053844.7
2018-Apr-21 06:15N 36°00' E 120°13'7479087.3
2018-Apr-21 06:10N 23°46' E 117°35'1641046.5
2018-Apr-21 06:00N 22°36' E 120°16'16520447.4
2018-Apr-21 06:00N 23°49' E 117°35'416656.1
2018-Apr-21 06:00N 24°26' E 117°52'7057208.9
2018-Apr-21 05:54N 36°00' E 120°13'7051800.9
2018-Apr-21 05:30N 24°26' E 117°52'17247535.7
2018-Apr-21 05:30N 22°36' E 120°16'16517425.4
2018-Apr-21 05:29N 23°48' E 117°35'7455187.3
2018-Apr-21 05:21N 36°00' E 120°13'7462196.9
2018-Apr-21 05:00N 23°47' E 117°35'421004.6
2018-Apr-21 04:58N 24°26' E 117°52'4522759.9
2018-Apr-21 04:48N 31°15' E 121°31'2935292.2
2018-Apr-21 04:45N 36°00' E 120°13'8043367.5
2018-Apr-21 04:30N 22°36' E 120°16'16365057.8
2018-Apr-21 04:30N 23°43' E 117°35'461951.2
2018-Apr-21 04:29N 24°26' E 117°52'45118653.4
2018-Apr-21 04:27N 31°13' E 121°30'511431.7
2018-Apr-21 04:25N 30°36' E 122°12'33915243.1
2018-Apr-21 04:24N 36°00' E 120°13'7531922.3
2018-Apr-21 04:00N 23°40' E 117°35'16110961.2
2018-Apr-21 04:00N 22°36' E 120°16'494111247.3
2018-Apr-21 03:59N 30°39' E 122°12'4394713.5
2018-Apr-21 03:54N 24°26' E 117°52'25541.3
2018-Apr-21 03:51N 24°32' E 118°19'6952301.7
2018-Apr-21 03:33N 36°00' E 120°13'75619031.8
2018-Apr-21 03:30N 23°37' E 117°34'52185965.1
2018-Apr-21 03:30N 24°26' E 117°52'172154474.0
2018-Apr-21 03:30N 22°36' E 120°15'49833831.5
2018-Apr-21 03:29N 30°43' E 122°13'42428833.5
2018-Apr-21 03:29N 24°32' E 118°19'43913272.8
2018-Apr-21 03:27N 31°08' E 121°54'5061162.3
2018-Apr-21 03:00N 23°37' E 117°34'16036053.9
2018-Apr-21 03:00N 22°36' E 120°15'17234326.8
2018-Apr-21 03:00N 24°26' E 117°52'445320600.7
2018-Apr-21 03:00N 30°46' E 122°13'4289937.2
2018-Apr-21 02:57N 24°32' E 118°19'6952249.9
2018-Apr-21 02:39N 36°00' E 120°13'3262376.0
2018-Apr-21 02:30N 30°50' E 122°14'499898694.0
2018-Apr-21 02:30N 23°37' E 117°34'160576902.4
2018-Apr-21 02:30N 22°36' E 120°15'17229423.6
2018-Apr-21 02:30N 24°26' E 117°52'4575516.3
2018-Apr-21 02:25N 31°12' E 121°49'2994162.9
2018-Apr-21 02:21N 36°00' E 120°13'7562232.7
2018-Apr-21 02:00N 23°37' E 117°34'5237209.4
2018-Apr-21 02:00N 24°26' E 117°52'172154474.0
2018-Apr-21 02:00N 22°36' E 120°15'15837981.0
2018-Apr-21 02:00N 24°32' E 118°19'695147170.8
2018-Apr-21 02:00N 36°00' E 120°13'319651.9
2018-Apr-21 01:30N 30°58' E 122°13'513205095.7
2018-Apr-21 01:30N 22°36' E 120°15'158142432.6
2018-Apr-21 01:30N 24°32' E 118°19'6927467.2
2018-Apr-21 01:30N 23°37' E 117°34'756136091.4
2018-Apr-21 01:30N 36°00' E 120°13'7051440.1
2018-Apr-21 01:00N 24°26' E 117°52'455327305.0
2018-Apr-21 01:00N 30°60' E 122°09'438121180.6
2018-Apr-21 01:00N 24°32' E 118°19'15871218.3
2018-Apr-21 01:00N 22°36' E 120°15'160576974.1
2018-Apr-21 01:00N 23°37' E 117°34'75614250.8
2018-Apr-21 00:57N 36°00' E 120°13'312706.6
2018-Apr-21 00:30N 31°02' E 122°04'45574436.6
2018-Apr-21 00:30N 24°26' E 117°52'17268659.8
2018-Apr-21 00:30N 22°36' E 120°15'16064107.4
2018-Apr-21 00:30N 23°37' E 117°34'7565135.8
2018-Apr-21 00:21N 36°00' E 120°13'7562232.9
2018-Apr-21 00:00N 23°37' E 117°34'5262118.3
2018-Apr-21 00:00N 24°26' E 117°52'172154488.0
2018-Apr-21 00:00N 22°36' E 120°15'5188110.3
2018-Apr-20 23:57N 31°06' E 121°58'3071574.0
2018-Apr-20 23:45N 36°00' E 120°13'8053348.3
2018-Apr-20 23:30N 22°36' E 120°15'17268661.3
2018-Apr-20 23:30N 24°26' E 117°52'523213.0
2018-Apr-20 23:29N 23°37' E 117°34'50714141.7
2018-Apr-20 23:27N 31°08' E 121°53'30468314.0
2018-Apr-20 23:27N 36°00' E 120°13'8051829.6
2018-Apr-20 23:00N 22°36' E 120°15'160288483.4
2018-Apr-20 23:00N 23°37' E 117°34'5262132.0
2018-Apr-20 23:00N 24°26' E 117°52'45713154.5
2018-Apr-20 22:58N 31°12' E 121°49'2992389.9
2018-Apr-20 22:51N 36°00' E 120°13'8052379.8
2018-Apr-20 22:31N 22°36' E 120°15'16041225.0
2018-Apr-20 22:30N 23°37' E 117°34'525826.8
2018-Apr-20 22:30N 24°26' E 117°52'45934398.0
2018-Apr-20 22:29N 31°15' E 121°46'5261107.8
2018-Apr-20 22:00N 22°36' E 120°15'17219311.0
2018-Apr-20 22:00N 24°26' E 117°52'5210969.3
2018-Apr-20 22:00N 23°37' E 117°34'52105.1
2018-Apr-20 21:30N 24°26' E 117°52'5210361.0
2018-Apr-20 21:30N 23°37' E 117°34'16024047.3
2018-Apr-20 21:29N 22°36' E 120°15'162335.7
2018-Apr-20 21:00N 23°40' E 117°34'162145533.2
2018-Apr-20 21:00N 22°36' E 120°15'1724175.3
2018-Apr-20 20:58N 24°26' E 117°52'4495.8
2018-Apr-20 20:30N 23°45' E 117°35'16336738.3
2018-Apr-20 20:30N 22°36' E 120°15'1726305.5
2018-Apr-20 20:28N 24°26' E 117°52'7065546.0
2018-Apr-20 20:21N 36°01' E 120°14'7452201.4
2018-Apr-20 20:00N 23°48' E 117°35'1659261.8
2018-Apr-20 19:59N 22°36' E 120°15'17210654.1
2018-Apr-20 19:58N 24°26' E 117°52'7075185.3
2018-Apr-20 19:50N 36°02' E 120°19'8062452.9
2018-Apr-20 19:31N 22°36' E 120°15'16545597.9
2018-Apr-20 19:30N 23°49' E 117°35'416646.2
2018-Apr-20 19:30N 24°26' E 117°52'7051704.0
2018-Apr-20 19:05N 35°59' E 120°21'3325970.3
2018-Apr-20 19:02N 30°38' E 122°03'49220827.0
2018-Apr-20 19:00N 22°36' E 120°15'17217654.6
2018-Apr-20 19:00N 24°26' E 117°52'43312581.7
2018-Apr-20 18:58N 30°38' E 122°03'47431007.1
2018-Apr-20 18:57N 23°49' E 117°35'4931583.0
2018-Apr-20 18:38N 31°15' E 121°31'4933874.4
2018-Apr-20 18:30N 23°49' E 117°35'4921772770.9
2018-Apr-20 18:30N 31°15' E 121°30'523941786.5
2018-Apr-20 18:30N 22°36' E 120°15'17215071.0
2018-Apr-20 18:30N 24°26' E 117°52'43316422.7
2018-Apr-20 18:28N 30°38' E 122°03'3321421.6
2018-Apr-20 18:14N 35°59' E 120°21'7053075.4
2018-Apr-20 18:00N 24°26' E 117°52'172617895.9
2018-Apr-20 18:00N 22°36' E 120°15'492442582.1
2018-Apr-20 18:00N 30°38' E 122°03'474853802.2
2018-Apr-20 18:00N 23°48' E 117°35'74510815.7
2018-Apr-20 17:56N 35°59' E 120°21'7461741.4
2018-Apr-20 17:30N 23°47' E 117°35'426574.0
2018-Apr-20 17:30N 24°26' E 117°52'17232520.8
2018-Apr-20 17:30N 22°36' E 120°15'4925257.1
2018-Apr-20 17:24N 30°39' E 122°01'33118047.9
2018-Apr-20 17:23N 35°59' E 120°21'7491991.1
2018-Apr-20 17:00N 23°44' E 117°35'16348804.2
2018-Apr-20 17:00N 22°36' E 120°15'80327535.2
2018-Apr-20 16:59N 35°59' E 120°21'70572491.8
2018-Apr-20 16:58N 24°26' E 117°52'172374.9
2018-Apr-20 16:30N 22°36' E 120°15'16164352.7
2018-Apr-20 16:30N 23°40' E 117°35'4834714.0
2018-Apr-20 16:30N 24°26' E 117°52'7052879.9
2018-Apr-20 16:16N 35°59' E 120°21'7563007.0
2018-Apr-20 16:00N 23°37' E 117°35'525805.0
2018-Apr-20 16:00N 24°26' E 117°52'172308955.0
2018-Apr-20 16:00N 22°36' E 120°15'160325.8
2018-Apr-20 15:30N 23°37' E 117°35'16031960.3
2018-Apr-20 15:30N 22°36' E 120°15'172205974.7
2018-Apr-20 15:30N 24°26' E 117°52'172348.1
2018-Apr-20 15:01N 22°36' E 120°15'16044255.9
2018-Apr-20 15:00N 23°37' E 117°35'521175.1
2018-Apr-20 14:58N 24°26' E 117°52'52111.7
2018-Apr-20 14:30N 23°37' E 117°35'160575150.5
2018-Apr-20 14:30N 22°36' E 120°15'17222886.1
2018-Apr-20 14:29N 24°26' E 117°52'25139.5
2018-Apr-20 14:19N 24°32' E 118°19'6952321.9
2018-Apr-20 14:01N 35°59' E 120°21'803722789.1
2018-Apr-20 14:01N 22°36' E 120°15'160287587.5
2018-Apr-20 14:00N 23°37' E 117°35'6915448.0
2018-Apr-20 14:00N 24°32' E 118°19'695113665.9
2018-Apr-20 14:00N 35°59' E 120°21'70520795.9
2018-Apr-20 13:58N 24°26' E 117°52'52113.9
2018-Apr-20 13:30N 23°37' E 117°35'6949440.6
2018-Apr-20 13:30N 24°32' E 118°19'158569762.6
2018-Apr-20 13:30N 22°36' E 120°15'1726644.5
2018-Apr-20 13:29N 24°26' E 117°52'4341424.1
2018-Apr-20 13:11N 30°39' E 122°01'4842882.9
2018-Apr-20 13:00N 23°37' E 117°35'16095849.2
2018-Apr-20 13:00N 22°36' E 120°15'15856977.9
2018-Apr-20 13:00N 24°32' E 118°19'251076.1
2018-Apr-20 12:59N 24°26' E 117°52'7054814.1
2018-Apr-20 12:50N 35°59' E 120°21'3301595.3
2018-Apr-20 12:38N 30°39' E 122°01'4854066.2
2018-Apr-20 12:30N 23°36' E 117°35'5218708.3
2018-Apr-20 12:30N 24°26' E 117°52'251221.5
2018-Apr-20 12:29N 24°32' E 118°19'6953492.5
2018-Apr-20 12:17N 35°59' E 120°21'33034956.1
2018-Apr-20 12:17N 30°39' E 122°01'4841805.3
2018-Apr-20 12:00N 23°37' E 117°34'6949459.6
2018-Apr-20 12:00N 24°32' E 118°19'158569794.6
2018-Apr-20 12:00N 22°36' E 120°15'1725107.2
2018-Apr-20 11:58N 24°26' E 117°52'7052991.8
2018-Apr-20 11:44N 35°59' E 120°21'7563298.9
2018-Apr-20 11:30N 23°37' E 117°34'6961837.6
2018-Apr-20 11:30N 24°32' E 118°19'15828488.1
2018-Apr-20 11:30N 22°36' E 120°15'1723168.9
2018-Apr-20 11:27N 24°26' E 117°52'70561879.8
2018-Apr-20 11:26N 35°59' E 120°21'7561768.5
2018-Apr-20 11:00N 23°37' E 117°34'16096198.3
2018-Apr-20 11:00N 22°36' E 120°15'15811869.7
2018-Apr-20 11:00N 24°32' E 118°19'25961.6
2018-Apr-20 10:58N 24°26' E 117°52'2554.2
2018-Apr-20 10:30N 24°32' E 118°19'158569746.6
2018-Apr-20 10:30N 22°36' E 120°15'16013423.2
2018-Apr-20 10:29N 23°37' E 117°34'523801.9
2018-Apr-20 10:29N 24°26' E 117°52'7053666.3
2018-Apr-20 10:17N 35°59' E 120°21'3167525.7
2018-Apr-20 10:15N 30°57' E 122°12'5122168.6
2018-Apr-20 10:00N 22°36' E 120°15'17213433.4
2018-Apr-20 10:00N 24°26' E 117°52'5293280.6
2018-Apr-20 10:00N 23°37' E 117°34'1590.4
2018-Apr-20 09:49N 23°29' E 117°20'1548.4
2018-Apr-20 09:30N 23°37' E 117°34'16030406.6
2018-Apr-20 09:30N 22°36' E 120°15'16827493.4
2018-Apr-20 09:30N 23°31' E 117°23'7644694.9
2018-Apr-20 09:20N 35°59' E 120°21'8032452.3
2018-Apr-20 09:00N 22°36' E 120°15'160115554.9
2018-Apr-20 09:00N 23°37' E 117°34'5223309.9
2018-Apr-20 09:00N 24°26' E 117°52'584318.9
2018-Apr-20 08:59N 23°33' E 117°28'761124532.8
2018-Apr-20 08:59N 35°59' E 120°21'7521570.8
2018-Apr-20 08:30N 23°41' E 117°34'61683.5
2018-Apr-20 08:30N 23°36' E 117°32'16236461.1
2018-Apr-20 08:30N 22°36' E 120°15'17236350.1
2018-Apr-20 08:30N 24°26' E 117°52'70523936.0
2018-Apr-20 08:28N 35°59' E 120°21'8031770.5
2018-Apr-20 08:01N 22°36' E 120°15'164147343.6
2018-Apr-20 08:00N 23°46' E 117°35'438637.7
2018-Apr-20 08:00N 24°26' E 117°52'502031.4
2018-Apr-20 07:59N 23°39' E 117°36'7545333.5
2018-Apr-20 07:50N 35°59' E 120°21'3311023.3
2018-Apr-20 07:31N 30°38' E 122°02'43386638.8
2018-Apr-20 07:30N 24°26' E 117°52'172308962.0
2018-Apr-20 07:30N 22°36' E 120°15'15851633.7
2018-Apr-20 07:30N 23°42' E 117°40'8426.2
2018-Apr-20 07:29N 23°48' E 117°35'7453723.2
2018-Apr-20 07:17N 35°59' E 120°21'33216616.8
2018-Apr-20 07:16N 30°37' E 122°02'4552099.4
2018-Apr-20 07:03N 38°05' E 120°23'92922296.2
2018-Apr-20 07:00N 22°36' E 120°15'9293344112.1
2018-Apr-20 07:00N 38°05' E 120°23'868115784.4
2018-Apr-20 07:00N 23°48' E 117°35'745223394.8
2018-Apr-20 07:00N 35°59' E 120°21'705149249.0
2018-Apr-20 06:59N 24°26' E 117°52'4184.3
2018-Apr-20 06:30N 23°48' E 117°35'165592333.0
2018-Apr-20 06:30N 22°36' E 120°15'928107749.4
2018-Apr-20 06:30N 38°04' E 120°30'829175448.4
2018-Apr-20 06:30N 24°26' E 117°52'70511377.7
2018-Apr-20 06:26N 35°59' E 120°21'7451753.6
2018-Apr-20 06:00N 23°48' E 117°35'8683125356.8
2018-Apr-20 06:00N 38°02' E 120°36'927196255.3
2018-Apr-20 06:00N 22°36' E 120°15'172617924.0
2018-Apr-20 06:00N 24°26' E 117°52'7054235.8
2018-Apr-20 05:50N 35°59' E 120°21'7452270.0
2018-Apr-20 05:30N 23°48' E 117°35'8693127257.2
2018-Apr-20 05:30N 38°01' E 120°42'82838722.4
2018-Apr-20 05:29N 24°26' E 117°52'17214712.8
2018-Apr-20 05:28N 22°36' E 120°15'9251980.8
2018-Apr-20 05:00N 38°00' E 120°49'925416203.5
2018-Apr-20 05:00N 22°36' E 120°15'16348946.5
2018-Apr-20 05:00N 23°44' E 117°35'45435.8
2018-Apr-20 04:54N 24°26' E 117°52'8282111.1
2018-Apr-20 04:30N 37°59' E 120°55'924166330.0
2018-Apr-20 04:30N 22°36' E 120°16'17236355.7
2018-Apr-20 04:30N 24°26' E 117°52'7056951.3
2018-Apr-20 04:24N 35°59' E 120°21'11446864.2
2018-Apr-20 04:14N 19°42' E 109°08'6462889.4
2018-Apr-20 04:00N 22°36' E 120°15'16152553.4
2018-Apr-20 04:00N 23°38' E 117°34'52578729.4
2018-Apr-20 04:00N 19°42' E 109°10'561134659.4
2018-Apr-20 03:59N 24°26' E 117°52'82723821.7
2018-Apr-20 03:57N 37°57' E 121°00'81739733.7
2018-Apr-20 03:56N 24°32' E 118°19'6952298.5
2018-Apr-20 03:38N 35°59' E 120°21'8036368.5
2018-Apr-20 03:30N 22°36' E 120°15'15829986.7
2018-Apr-20 03:30N 24°32' E 118°19'6920596.1
2018-Apr-20 03:30N 23°37' E 117°34'87710454.9
2018-Apr-20 03:25N 37°55' E 121°06'9202255.1
2018-Apr-20 03:00N 22°36' E 120°15'16072105.8
2018-Apr-20 03:00N 23°37' E 117°34'528862.3
2018-Apr-20 03:00N 24°26' E 117°52'2510043.8
2018-Apr-20 03:00N 24°32' E 118°19'158323.7
2018-Apr-20 02:30N 22°36' E 120°15'160576878.6
2018-Apr-20 02:30N 23°37' E 117°34'5218602.7
2018-Apr-20 02:30N 24°26' E 117°52'8213423.8
2018-Apr-20 02:16N 37°48' E 121°14'8213194.3
2018-Apr-20 02:00N 24°26' E 117°52'17277240.5
2018-Apr-20 02:00N 22°36' E 120°15'1604006.3
2018-Apr-20 01:58N 23°37' E 117°34'87194981.5
2018-Apr-20 01:57N 37°47' E 121°16'1161111.7
2018-Apr-20 01:51N 35°59' E 120°21'2744081.0
2018-Apr-20 01:47N 31°29' E 121°24'4673093.0
2018-Apr-20 01:38N 24°11' E 118°20'29230.9
2018-Apr-20 01:31N 24°26' E 117°52'817490278.0
2018-Apr-20 01:30N 37°44' E 121°19'869183927.1
2018-Apr-20 01:30N 23°37' E 117°34'51520377.3
2018-Apr-20 01:29N 31°31' E 121°21'467280213.6
2018-Apr-20 01:29N 24°12' E 118°21'143102881.0
2018-Apr-20 01:28N 22°36' E 120°15'8036410.5
2018-Apr-20 01:21N 35°59' E 120°21'113330.6
2018-Apr-20 01:00N 37°41' E 121°22'866445524.6
2018-Apr-20 01:00N 23°37' E 117°34'593271.9
2018-Apr-20 00:59N 24°15' E 118°24'1426410.4
2018-Apr-20 00:58N 22°36' E 120°15'8032144.7
2018-Apr-20 00:35N 35°59' E 120°21'8039767.3
2018-Apr-20 00:30N 22°36' E 120°15'172617938.0
2018-Apr-20 00:30N 24°26' E 117°52'812974825.7
2018-Apr-20 00:30N 37°38' E 121°25'86484052.0
2018-Apr-20 00:30N 23°37' E 117°34'7564725.1
2018-Apr-20 00:20N 35°59' E 120°21'8032439.8
2018-Apr-20 00:00N 22°36' E 120°15'160576592.7
2018-Apr-20 00:00N 23°37' E 117°35'527143.8
2018-Apr-20 00:00N 24°26' E 117°52'80921260.1
2018-Apr-19 23:58N 37°34' E 121°25'1081515.1
2018-Apr-19 23:53N 35°59' E 120°21'7561975.0
2018-Apr-19 23:30N 23°37' E 117°34'5220678.8
2018-Apr-19 23:30N 24°26' E 117°52'17221308.7
2018-Apr-19 23:30N 22°36' E 120°15'90025129.1
2018-Apr-19 23:28N 37°34' E 121°25'108272.6
2018-Apr-19 23:04N 35°59' E 120°21'80314172.6
2018-Apr-19 23:00N 22°36' E 120°15'17261795.2
2018-Apr-19 23:00N 24°26' E 117°52'5293105.8
2018-Apr-19 23:00N 23°37' E 117°34'86119988.0
2018-Apr-19 22:58N 37°34' E 121°25'108734.8
2018-Apr-19 22:49N 35°59' E 120°21'7562465.3
2018-Apr-19 22:30N 23°37' E 117°34'160288415.9
2018-Apr-19 22:30N 22°36' E 120°15'17216262.3
2018-Apr-19 22:30N 24°26' E 117°52'80923117.0
2018-Apr-19 22:28N 37°34' E 121°25'1084528.5
2018-Apr-19 22:26N 35°59' E 120°21'8031868.9
2018-Apr-19 22:00N 22°36' E 120°15'160288415.9
2018-Apr-19 22:00N 23°37' E 117°34'86118663.8
2018-Apr-19 21:58N 37°34' E 121°25'108871.3
2018-Apr-19 21:50N 35°59' E 120°21'7542287.0
2018-Apr-19 21:30N 23°39' E 117°34'5025661.6
2018-Apr-19 21:30N 24°26' E 117°52'17234331.4
2018-Apr-19 21:30N 22°36' E 120°15'90022991.5
2018-Apr-19 21:28N 37°34' E 121°25'108695.4
2018-Apr-19 21:18N 35°59' E 120°21'8032689.6
2018-Apr-19 21:00N 22°36' E 120°15'17277244.0
2018-Apr-19 21:00N 24°26' E 117°52'45161642.4
2018-Apr-19 21:00N 23°44' E 117°35'85419697.5
2018-Apr-19 20:58N 37°34' E 121°25'108261.7
2018-Apr-19 20:33N 35°59' E 120°21'33259719.0
2018-Apr-19 20:33N 30°38' E 122°03'47413647.9
2018-Apr-19 20:30N 23°48' E 117°35'849179854.8
2018-Apr-19 20:30N 37°34' E 121°25'809970961.6
2018-Apr-19 20:30N 24°26' E 117°52'4331204.7
2018-Apr-19 20:09N 30°38' E 122°03'3323890.5
2018-Apr-19 20:03N 35°59' E 120°21'80316521.9
2018-Apr-19 20:01N 22°36' E 120°15'17251497.2
2018-Apr-19 20:00N 24°26' E 117°52'413494.3
2018-Apr-19 20:00N 23°48' E 117°35'850203892.5
2018-Apr-19 19:59N 37°35' E 121°23'4188805.3
2018-Apr-19 19:57N 30°38' E 122°03'540938480.0
2018-Apr-19 19:48N 49°18' W 122°54'5215722048.9
2018-Apr-19 19:48N 35°59' E 120°21'7452548.2
2018-Apr-19 19:30N 23°48' E 117°35'4116304.4
2018-Apr-19 19:30N 24°26' E 117°52'80980941.2
2018-Apr-19 19:29N 37°35' E 121°23'901648814.9
2018-Apr-19 19:29N 22°36' E 120°15'5633821.7
2018-Apr-19 19:20N 31°58' E 120°25'2414865.0
2018-Apr-19 19:17N 35°59' E 120°21'521357927.1
2018-Apr-19 19:12N 49°18' W 122°55'595930779.7
2018-Apr-19 19:00N 23°48' E 117°35'417722.1
2018-Apr-19 19:00N 24°26' E 117°52'172617938.0
2018-Apr-19 19:00N 22°36' E 120°15'90169023.3
2018-Apr-19 18:59N 37°35' E 121°23'1087933.1
2018-Apr-19 18:59N 35°59' E 120°21'240172934.9
2018-Apr-19 18:58N 31°59' E 120°26'541044060.5
2018-Apr-19 18:51N 49°18' W 122°58'595817326.3
2018-Apr-19 18:30N 23°47' E 117°35'16431126.2
2018-Apr-19 18:30N 22°36' E 120°15'589821231617.2
2018-Apr-19 18:30N 49°18' W 122°54'54133247740.6
2018-Apr-19 18:30N 31°59' E 120°26'34030555.3
2018-Apr-19 18:29N 37°35' E 121°23'809126690.6
2018-Apr-19 18:29N 24°26' E 117°52'7013778.5
2018-Apr-19 18:18N 35°55' E 120°19'7012378.9
2018-Apr-19 18:00N 24°26' E 117°52'42150040.9
2018-Apr-19 18:00N 23°47' E 117°35'16459139.7
2018-Apr-19 18:00N 22°36' E 120°15'90185369.8
2018-Apr-19 17:59N 37°35' E 121°23'1153497.5
2018-Apr-19 17:57N 35°53' E 120°17'522327855.4
2018-Apr-19 17:46N 49°18' W 122°54'589822611.0
2018-Apr-19 17:30N 22°36' E 120°15'16428160.9
2018-Apr-19 17:30N 23°47' E 117°35'85163787.7
2018-Apr-19 17:29N 37°35' E 121°23'34015872.9
2018-Apr-19 17:28N 31°59' E 120°26'541383273.3
2018-Apr-19 17:24N 49°18' W 122°54'596115102.9
2018-Apr-19 17:00N 23°47' E 117°35'164591180.4
2018-Apr-19 17:00N 22°36' E 120°15'90148418.1
2018-Apr-19 16:59N 37°35' E 121°23'5091458149.0
2018-Apr-19 16:59N 49°18' W 122°54'591588727.2
2018-Apr-19 16:55N 24°26' E 117°52'42103.3
2018-Apr-19 16:30N 23°47' E 117°35'424055.7
2018-Apr-19 16:30N 24°26' E 117°52'80991058.9
2018-Apr-19 16:29N 37°35' E 121°23'5090188923.6
2018-Apr-19 16:28N 49°18' W 122°54'589713001.2
2018-Apr-19 16:00N 22°36' E 120°15'16358814.4
2018-Apr-19 16:00N 23°45' E 117°35'4415852.7
2018-Apr-19 16:00N 24°26' E 117°52'5915851771.0
2018-Apr-19 16:00N 49°18' W 122°54'5090704837.2
2018-Apr-19 15:59N 37°35' E 121°23'7981872.5
2018-Apr-19 15:34N 24°32' E 118°19'641189.2
2018-Apr-19 15:30N 23°42' E 117°35'6446382.5
2018-Apr-19 15:30N 24°32' E 118°19'253615.8
2018-Apr-19 15:30N 24°26' E 117°52'17219932.1
2018-Apr-19 15:29N 22°36' E 120°15'901360448.0
2018-Apr-19 15:29N 37°35' E 121°23'80778556.9
2018-Apr-19 15:29N 24°26' E 118°03'5907373053.1
2018-Apr-19 15:28N 49°17' W 122°54'596913143.4
2018-Apr-19 15:00N 23°38' E 117°35'6716163.3
2018-Apr-19 15:00N 24°32' E 118°19'15837981.0
2018-Apr-19 15:00N 22°36' E 120°15'17221306.8
2018-Apr-19 14:59N 24°26' E 117°52'809242823.7
2018-Apr-19 14:59N 37°35' E 121°23'8091675.6
2018-Apr-19 14:30N 24°26' E 117°52'52186068.2
2018-Apr-19 14:30N 23°37' E 117°35'16020594.8
2018-Apr-19 14:30N 22°36' E 120°15'90198304.6
2018-Apr-19 14:29N 37°35' E 121°23'79816424.1
2018-Apr-19 14:26N 24°32' E 118°19'4601879.9
2018-Apr-19 14:12N 31°58' E 120°27'5632931.7
2018-Apr-19 14:00N 22°36' E 120°15'160288331.5
2018-Apr-19 14:00N 23°37' E 117°35'5210337.1
2018-Apr-19 14:00N 24°26' E 117°52'472113382.7
2018-Apr-19 14:00N 31°58' E 120°27'34067953.2
2018-Apr-19 13:59N 37°35' E 121°23'79853226.3
2018-Apr-19 13:58N 24°32' E 118°19'4621343.1
2018-Apr-19 13:38N 32°00' E 120°27'4623840.1
2018-Apr-19 13:31N 24°32' E 118°19'4611660226.2
2018-Apr-19 13:31N 31°59' E 120°27'564289928.0
2018-Apr-19 13:30N 22°36' E 120°15'172123582.0
2018-Apr-19 13:30N 24°26' E 117°52'80946252.1
2018-Apr-19 13:29N 37°35' E 121°23'86181553.2
2018-Apr-19 13:29N 23°37' E 117°34'52419859.9
2018-Apr-19 13:27N 31°58' E 120°27'5581452.5
2018-Apr-19 13:04N 22°57' E 117°54'891533.7
2018-Apr-19 13:00N 24°26' E 117°52'52185944.6
2018-Apr-19 13:00N 23°37' E 117°34'6941160.1
2018-Apr-19 13:00N 24°32' E 118°19'15811171.2
2018-Apr-19 13:00N 22°36' E 120°15'901202753.3
2018-Apr-19 12:59N 37°35' E 121°23'89723736.3
2018-Apr-19 12:57N 22°57' E 117°54'98221.7
2018-Apr-19 12:30N 24°32' E 118°19'98118043.4
2018-Apr-19 12:30N 22°57' E 117°54'132474578.9
2018-Apr-19 12:30N 22°36' E 120°15'16019890.4
2018-Apr-19 12:30N 23°37' E 117°34'86188548.9
2018-Apr-19 12:29N 37°35' E 121°23'80930998.8
2018-Apr-19 12:28N 24°26' E 117°52'90197.7
2018-Apr-19 12:00N 22°57' E 117°54'13211574.4
2018-Apr-19 12:00N 22°36' E 120°15'15894955.1
2018-Apr-19 12:00N 24°32' E 118°19'798102650.8
2018-Apr-19 11:59N 37°35' E 121°23'809194258.9
2018-Apr-19 11:59N 24°26' E 117°52'172360.5
2018-Apr-19 11:30N 22°36' E 120°15'13267790.6
2018-Apr-19 11:30N 22°56' E 117°54'9870884.9
2018-Apr-19 11:30N 24°32' E 118°19'251673.9
2018-Apr-19 11:29N 24°26' E 117°52'809485633.4
2018-Apr-19 11:29N 37°35' E 121°23'86112106.8
2018-Apr-19 11:25N 23°37' E 117°34'52127.0
2018-Apr-19 11:00N 24°26' E 117°52'2512913.5
2018-Apr-19 11:00N 24°32' E 118°19'798319191.5
2018-Apr-19 11:00N 37°34' E 121°25'896230514.9
2018-Apr-19 11:00N 22°56' E 117°54'13222596.3
2018-Apr-19 11:00N 22°36' E 120°15'132271.2
2018-Apr-19 10:30N 22°56' E 117°54'4414536.3
2018-Apr-19 10:30N 23°37' E 117°34'160144299.7
2018-Apr-19 10:30N 22°36' E 120°15'17244139.4
2018-Apr-19 10:30N 24°26' E 117°52'80966194.3
2018-Apr-19 10:29N 37°34' E 121°25'3393055.4
2018-Apr-19 10:23N 31°58' E 120°25'118.0
2018-Apr-19 10:18N 31°59' E 120°26'1 2.6
2018-Apr-19 10:00N 31°58' E 120°26'5632025824.5
2018-Apr-19 10:00N 22°36' E 120°15'132237159.2
2018-Apr-19 10:00N 22°56' E 117°54'447995.0
2018-Apr-19 10:00N 23°37' E 117°34'529808.2
2018-Apr-19 10:00N 24°26' E 117°52'809121357.1
2018-Apr-19 09:59N 37°34' E 121°25'3393425.5
2018-Apr-19 09:53N 31°59' E 120°26'5251376.5
2018-Apr-19 09:30N 23°37' E 117°34'16033952.4
2018-Apr-19 09:30N 22°36' E 120°15'563289415.8
2018-Apr-19 09:30N 31°58' E 120°26'47251516.9
2018-Apr-19 09:29N 24°26' E 117°52'809182036.9
2018-Apr-19 09:29N 37°34' E 121°25'8966266.4
2018-Apr-19 09:21N 22°56' E 117°54'90266.7
2018-Apr-19 09:00N 24°26' E 117°52'52186334.4
2018-Apr-19 09:00N 23°37' E 117°34'16022200.3
2018-Apr-19 09:00N 22°36' E 120°15'563225103.6
2018-Apr-19 09:00N 31°58' E 120°26'33930534.2
2018-Apr-19 08:59N 37°34' E 121°25'89689644.9
2018-Apr-19 08:59N 22°56' E 117°54'5335330.5
2018-Apr-19 08:53N 31°14' E 121°30'4511222.4
2018-Apr-19 08:30N 24°26' E 117°52'452135642.1
2018-Apr-19 08:30N 31°15' E 121°30'7042001.0
2018-Apr-19 08:30N 31°58' E 120°26'563675296.4
2018-Apr-19 08:30N 22°36' E 120°15'90058936.2
2018-Apr-19 08:29N 37°34' E 121°25'8965711.9
2018-Apr-19 08:20N 22°56' E 117°54'132409.6
2018-Apr-19 08:00N 22°36' E 120°15'161581321.8
2018-Apr-19 08:00N 23°41' E 117°35'520312160.8
2018-Apr-19 08:00N 31°58' E 120°26'55980431.7
2018-Apr-19 08:00N 22°56' E 117°55'89770170.1
2018-Apr-19 07:59N 37°34' E 121°25'339719.0
2018-Apr-19 07:31N 31°59' E 120°26'47363048.7
2018-Apr-19 07:30N 24°26' E 117°52'4479605.8
2018-Apr-19 07:30N 23°45' E 117°35'16348988.9
2018-Apr-19 07:30N 22°36' E 120°15'90051450.5
2018-Apr-19 07:29N 37°34' E 121°25'3396822.4
2018-Apr-19 07:26N 31°58' E 120°26'1 5.1
2018-Apr-19 07:18N 31°59' E 120°26'4731646.4
2018-Apr-19 07:01N 24°26' E 117°52'4148959.7
2018-Apr-19 07:00N 23°48' E 117°35'16542301.4
2018-Apr-19 07:00N 22°36' E 120°15'90052279.3
2018-Apr-19 06:59N 37°34' E 121°25'3395066.8
2018-Apr-19 06:55N 31°58' E 120°26'1 4.7
2018-Apr-19 06:46N 31°59' E 120°26'4731795.8
2018-Apr-19 06:30N 24°26' E 117°52'17224721.9
2018-Apr-19 06:30N 22°36' E 120°16'16516015.0
2018-Apr-19 06:29N 23°48' E 117°35'849436744.1
2018-Apr-19 06:29N 37°34' E 121°25'33812686.5
2018-Apr-19 06:28N 31°59' E 120°27'0 5.2
2018-Apr-19 06:22N 31°59' E 120°26'5131420.8
2018-Apr-19 06:00N 23°48' E 117°35'4118366.9
2018-Apr-19 06:00N 24°26' E 117°52'80942208.7
2018-Apr-19 05:59N 37°34' E 121°25'900147329.7
2018-Apr-19 05:59N 22°36' E 120°15'56314587.0
2018-Apr-19 05:56N 31°59' E 120°26'115278.0
2018-Apr-19 05:32N 30°38' E 122°03'43323994.3
2018-Apr-19 05:31N 24°26' E 117°52'4137071.9
2018-Apr-19 05:30N 23°48' E 117°35'16439466.5
2018-Apr-19 05:30N 22°36' E 120°15'90052279.0
2018-Apr-19 05:29N 37°34' E 121°25'33987084.0
2018-Apr-19 05:29N 31°59' E 120°26'11541495.2
2018-Apr-19 05:29N 30°38' E 122°03'4921044.9
2018-Apr-19 05:01N 22°36' E 120°15'172308948.0
2018-Apr-19 05:00N 24°26' E 117°52'810364553.6
2018-Apr-19 05:00N 37°35' E 121°25'851235684.0
2018-Apr-19 05:00N 23°48' E 117°35'5147945.3
2018-Apr-19 04:56N 31°59' E 120°26'48249.3
2018-Apr-19 04:45N 31°37' E 121°17'4532250.6
2018-Apr-19 04:33N 24°32' E 118°19'601581.5
2018-Apr-19 04:30N 23°48' E 117°35'164118352.0
2018-Apr-19 04:30N 22°36' E 120°15'17218173.4
2018-Apr-19 04:30N 24°26' E 117°52'81071154.4
2018-Apr-19 04:29N 37°36' E 121°25'799130795.3
2018-Apr-19 04:29N 24°32' E 118°19'4614186.4
2018-Apr-19 04:22N 31°59' E 120°26'89342.8
2018-Apr-19 04:06N 31°09' E 121°53'4984990.9
2018-Apr-19 04:00N 23°48' E 117°35'4981791309.7
2018-Apr-19 04:00N 31°09' E 121°54'520374736.4
2018-Apr-19 04:00N 22°36' E 120°15'172205970.0
2018-Apr-19 04:00N 24°26' E 117°52'2545197.2
2018-Apr-19 04:00N 24°32' E 118°19'79936891.0
2018-Apr-19 03:59N 37°36' E 121°25'3616429.7
2018-Apr-19 03:56N 31°35' E 121°19'516512.9
2018-Apr-19 03:55N 31°59' E 120°26'5161255.3
2018-Apr-19 03:30N 23°46' E 117°35'16465450.6
2018-Apr-19 03:30N 22°36' E 120°15'172617909.9
2018-Apr-19 03:30N 24°26' E 117°52'2545197.2
2018-Apr-19 03:30N 24°32' E 118°19'79936424.0
2018-Apr-19 03:29N 37°36' E 121°25'36215880.1
2018-Apr-19 03:28N 31°34' E 121°20'4426213.2
2018-Apr-19 03:27N 31°06' E 121°59'536160667.0
2018-Apr-19 03:27N 22°57' E 117°55'55910586.9
2018-Apr-19 03:24N 31°59' E 120°26'120694.5
2018-Apr-19 03:14N 30°40' E 122°12'71562.6
2018-Apr-19 03:06N 31°37' E 121°23'5165398.3
2018-Apr-19 03:00N 23°42' E 117°35'162291510.6
2018-Apr-19 03:00N 22°36' E 120°15'54074810.7
2018-Apr-19 03:00N 31°33' E 121°20'450324096.7
2018-Apr-19 03:00N 24°32' E 118°19'45586144.7
2018-Apr-19 03:00N 31°37' E 121°23'35933107.6
2018-Apr-19 02:59N 37°36' E 121°25'39217653.9
2018-Apr-19 02:58N 31°05' E 122°03'241442.8
2018-Apr-19 02:57N 30°41' E 122°12'51813526.0
2018-Apr-19 02:54N 22°57' E 117°55'5597648.4
2018-Apr-19 02:50N 31°59' E 120°26'4731460.0
2018-Apr-19 02:30N 24°26' E 117°52'5089801.5
2018-Apr-19 02:30N 23°39' E 117°35'16125147.7
2018-Apr-19 02:30N 22°36' E 120°15'51750344.6
2018-Apr-19 02:29N 31°03' E 122°08'39445745.9
2018-Apr-19 02:29N 37°36' E 121°25'34025506.6
2018-Apr-19 02:28N 31°59' E 120°26'11810349.9
2018-Apr-19 02:27N 30°43' E 122°12'5201257.8
2018-Apr-19 02:03N 22°57' E 117°55'1313429.2
2018-Apr-19 02:00N 22°36' E 120°15'17256176.2
2018-Apr-19 02:00N 24°26' E 117°52'528857.5
2018-Apr-19 02:00N 23°37' E 117°35'441057.7
2018-Apr-19 01:57N 22°57' E 117°55'89838465.6
2018-Apr-19 01:56N 37°36' E 121°25'41219007.3
2018-Apr-19 01:55N 30°46' E 122°13'141874.5
2018-Apr-19 01:54N 30°60' E 122°13'108558.3
2018-Apr-19 01:43N 31°59' E 120°26'5252474.9
2018-Apr-19 01:30N 23°37' E 117°35'160288351.7
2018-Apr-19 01:30N 22°36' E 120°15'172102987.3
2018-Apr-19 01:30N 24°26' E 117°52'81063420.2
2018-Apr-19 01:29N 37°36' E 121°25'40121548.1
2018-Apr-19 01:28N 30°57' E 122°14'1114594.2
2018-Apr-19 01:26N 31°59' E 120°26'5631304.8
2018-Apr-19 01:00N 22°36' E 120°15'17222886.6
2018-Apr-19 01:00N 24°26' E 117°52'81044202.0
2018-Apr-19 00:59N 37°36' E 121°25'862193906.3
2018-Apr-19 00:59N 23°37' E 117°35'5258742.3
2018-Apr-19 00:55N 31°59' E 120°26'5594423.0
2018-Apr-19 00:47N 22°56' E 117°54'5297103.5
2018-Apr-19 00:43N 30°52' E 122°14'11529.9
2018-Apr-19 00:42N 31°01' E 122°07'5062691.4
2018-Apr-19 00:30N 23°37' E 117°35'16026212.0
2018-Apr-19 00:30N 22°36' E 120°15'17288276.9
2018-Apr-19 00:30N 24°26' E 117°52'452101683.7
2018-Apr-19 00:30N 30°54' E 122°14'40429679.1
2018-Apr-19 00:29N 37°36' E 121°25'89876957.7
2018-Apr-19 00:28N 22°56' E 117°54'55918636.6
2018-Apr-19 00:26N 31°59' E 120°26'5251176.0
2018-Apr-19 00:00N 23°37' E 117°34'160192263.5
2018-Apr-19 00:00N 22°36' E 120°15'17241194.9
2018-Apr-18 23:59N 24°26' E 117°52'810108049.3
2018-Apr-18 23:59N 37°36' E 121°25'4014426.0
2018-Apr-18 23:53N 30°57' E 122°14'533213369.9
2018-Apr-18 23:53N 22°56' E 117°54'55919355.8
2018-Apr-18 23:52N 31°59' E 120°26'108555.4
2018-Apr-18 23:40N 30°59' E 122°12'5063224.3
2018-Apr-18 23:30N 23°37' E 117°34'16044369.1
2018-Apr-18 23:30N 22°36' E 120°15'172102989.7
2018-Apr-18 23:30N 24°26' E 117°52'45632824.1
2018-Apr-18 23:29N 30°59' E 122°13'1214.1
2018-Apr-18 23:29N 30°58' E 122°12'399130661.9
2018-Apr-18 23:29N 37°36' E 121°25'34039494.7
2018-Apr-18 23:28N 31°59' E 120°26'5251128.2
2018-Apr-18 23:00N 23°37' E 117°34'160576766.2
2018-Apr-18 23:00N 22°36' E 120°15'51622666.2
2018-Apr-18 22:59N 31°02' E 122°10'395109507.8
2018-Apr-18 22:59N 37°36' E 121°25'81091166.6
2018-Apr-18 22:58N 24°26' E 117°52'52111.5
2018-Apr-18 22:30N 23°37' E 117°34'16032043.1
2018-Apr-18 22:30N 22°36' E 120°15'51764195.9
2018-Apr-18 22:30N 31°03' E 122°06'45782189.2
2018-Apr-18 22:29N 24°26' E 117°52'810100597.6
2018-Apr-18 22:29N 37°36' E 121°25'118378.6
2018-Apr-18 22:10N 35°52' E 120°15'7964923.9
2018-Apr-18 22:00N 22°36' E 120°15'17236349.3
2018-Apr-18 22:00N 24°26' E 117°52'52186519.3
2018-Apr-18 22:00N 23°37' E 117°34'86239782.4
2018-Apr-18 21:59N 37°36' E 121°25'3927427.4
2018-Apr-18 21:56N 31°05' E 122°01'30219748.3
2018-Apr-18 21:55N 35°54' E 120°17'7981970.1
2018-Apr-18 21:30N 22°36' E 120°15'90233470.6
2018-Apr-18 21:29N 37°36' E 121°25'810265211.8
2018-Apr-18 21:29N 24°26' E 117°52'4552368.1
2018-Apr-18 21:17N 31°07' E 121°55'92473.4
2018-Apr-18 21:05N 31°59' E 120°26'891076.0
2018-Apr-18 21:01N 31°08' E 121°53'507608291.5
2018-Apr-18 21:00N 23°37' E 117°34'160577381.7
2018-Apr-18 21:00N 22°36' E 120°15'90233819.5
2018-Apr-18 20:59N 37°36' E 121°25'81012105.2
2018-Apr-18 20:55N 24°26' E 117°52'707110584.3
2018-Apr-18 20:54N 36°01' E 120°19'7541887.6
2018-Apr-18 20:30N 23°41' E 117°35'16232315.9
2018-Apr-18 20:30N 22°36' E 120°15'17229425.6
2018-Apr-18 20:30N 24°26' E 117°52'81048622.5
2018-Apr-18 20:29N 37°36' E 121°25'1091423.0
2018-Apr-18 20:24N 36°02' E 120°15'3003520.2
2018-Apr-18 20:19N 31°12' E 121°49'5001609.8
2018-Apr-18 20:00N 23°46' E 117°35'435171.9
2018-Apr-18 20:00N 24°26' E 117°52'172123590.4
2018-Apr-18 20:00N 22°36' E 120°15'524269726.1
2018-Apr-18 20:00N 31°14' E 121°47'38223323.4
2018-Apr-18 19:59N 37°36' E 121°25'1121764.1
2018-Apr-18 19:55N 35°60' E 120°12'241732.5
2018-Apr-18 19:35N 31°59' E 120°26'4735751.2
2018-Apr-18 19:30N 24°26' E 117°52'41146644.0
2018-Apr-18 19:30N 23°48' E 117°35'16414098.5
2018-Apr-18 19:30N 22°36' E 120°15'90270577.9
2018-Apr-18 19:29N 37°36' E 121°25'34036010.5
2018-Apr-18 19:28N 31°59' E 120°26'2411096.0
2018-Apr-18 19:15N 35°60' E 120°12'7443026.2
2018-Apr-18 19:00N 23°48' E 117°35'165296138.1
2018-Apr-18 19:00N 22°36' E 120°15'17216701.0
2018-Apr-18 19:00N 24°26' E 117°52'47339590.6
2018-Apr-18 18:59N 31°59' E 120°26'340153039.5
2018-Apr-18 18:59N 37°36' E 121°25'1123706.1
2018-Apr-18 18:57N 35°60' E 120°12'8041822.6
2018-Apr-18 18:31N 22°36' E 120°15'164197375.5
2018-Apr-18 18:30N 23°48' E 117°35'413130.6
2018-Apr-18 18:30N 24°26' E 117°52'81055044.0
2018-Apr-18 18:29N 37°36' E 121°25'34016109.4
2018-Apr-18 18:28N 31°59' E 120°26'2412197.5
2018-Apr-18 18:21N 35°60' E 120°12'7584663.1
2018-Apr-18 18:11N 23°35' E 117°30'163909.5
2018-Apr-18 18:00N 22°36' E 120°15'17222067.2
2018-Apr-18 18:00N 24°26' E 117°52'4212462.7
2018-Apr-18 18:00N 23°48' E 117°35'51447464.9
2018-Apr-18 17:59N 31°59' E 120°26'34058300.8
2018-Apr-18 17:59N 37°36' E 121°25'8101710.0
2018-Apr-18 17:30N 24°26' E 117°52'4250005.3
2018-Apr-18 17:30N 23°48' E 117°35'164591761.8
2018-Apr-18 17:30N 22°36' E 120°16'804170246.1
2018-Apr-18 17:30N 35°60' E 120°12'1125533.8
2018-Apr-18 17:29N 37°36' E 121°25'34016771.4
2018-Apr-18 17:28N 31°59' E 120°26'4731048.9
2018-Apr-18 17:01N 24°26' E 117°52'4249978.7
2018-Apr-18 17:00N 23°48' E 117°35'16413150.7
2018-Apr-18 17:00N 22°36' E 120°16'14814842.9
2018-Apr-18 16:59N 24°10' E 118°11'823134608.2
2018-Apr-18 16:59N 37°36' E 121°25'34034008.8
2018-Apr-18 16:58N 31°59' E 120°26'5631223.5
2018-Apr-18 16:31N 22°36' E 120°15'172205932.6
2018-Apr-18 16:30N 24°26' E 117°52'2124637.6
2018-Apr-18 16:30N 24°14' E 118°10'81929468.6
2018-Apr-18 16:29N 37°36' E 121°25'34011549.9
2018-Apr-18 16:27N 31°59' E 120°26'5631275.9
2018-Apr-18 16:01N 22°36' E 120°15'154185130.5
2018-Apr-18 16:00N 24°18' E 118°10'4516044.4
2018-Apr-18 16:00N 23°48' E 117°35'422630.5
2018-Apr-18 15:59N 24°26' E 117°52'473283736.3
2018-Apr-18 15:59N 31°59' E 120°26'34040809.8
2018-Apr-18 15:59N 37°36' E 121°25'9021913.0
2018-Apr-18 15:30N 22°36' E 120°15'16465728.1
2018-Apr-18 15:30N 23°48' E 117°35'514185155.2
2018-Apr-18 15:30N 31°59' E 120°26'473567713.2
2018-Apr-18 15:30N 24°22' E 118°08'81236067.9
2018-Apr-18 15:29N 37°36' E 121°25'81085803.8
2018-Apr-18 15:28N 24°26' E 117°52'25129.7
2018-Apr-18 15:17N 24°32' E 118°19'60224.3
2018-Apr-18 15:00N 23°48' E 117°35'4221422.3
2018-Apr-18 15:00N 24°26' E 117°52'17225739.8
2018-Apr-18 15:00N 22°36' E 120°15'90245087.8
2018-Apr-18 14:59N 37°36' E 121°25'79947958.3
2018-Apr-18 14:58N 24°32' E 118°19'4617207.9
2018-Apr-18 14:54N 31°59' E 120°26'2413807.1
2018-Apr-18 14:50N 35°60' E 120°12'8042467.2
2018-Apr-18 14:31N 22°36' E 120°15'164147888.2
2018-Apr-18 14:30N 23°48' E 117°35'428329.8
2018-Apr-18 14:30N 24°26' E 117°52'704507008.4
2018-Apr-18 14:30N 35°60' E 120°12'24128000.1
2018-Apr-18 14:30N 31°59' E 120°26'461165786.5
2018-Apr-18 14:29N 24°32' E 118°19'79970183.4
2018-Apr-18 14:29N 37°36' E 121°25'8521808.6
2018-Apr-18 14:00N 23°47' E 117°35'6154615.3
2018-Apr-18 14:00N 24°32' E 118°19'15811865.7
2018-Apr-18 14:00N 22°36' E 120°15'90261251.8
2018-Apr-18 13:59N 37°36' E 121°25'1125459.0
2018-Apr-18 13:57N 35°60' E 120°12'2416200.2
2018-Apr-18 13:55N 31°59' E 120°26'47324320.0
2018-Apr-18 13:54N 24°26' E 117°52'45115.1
2018-Apr-18 13:30N 23°44' E 117°35'45162278.1
2018-Apr-18 13:30N 24°26' E 117°52'4731702397.0
2018-Apr-18 13:30N 31°59' E 120°26'461552607.8
2018-Apr-18 13:30N 24°32' E 118°19'15871206.3
2018-Apr-18 13:30N 22°36' E 120°15'90234908.1
2018-Apr-18 13:29N 37°36' E 121°25'112939.5
2018-Apr-18 13:22N 35°60' E 120°12'8042289.7
2018-Apr-18 13:00N 22°36' E 120°15'17268653.5
2018-Apr-18 13:00N 24°26' E 117°52'252658.5
2018-Apr-18 13:00N 24°32' E 118°19'79944961.2
2018-Apr-18 12:59N 37°36' E 121°25'3407652.0
2018-Apr-18 12:56N 31°59' E 120°26'2411850.8
2018-Apr-18 12:48N 35°60' E 120°12'3202082.0
2018-Apr-18 12:39N 30°56' E 122°14'5043556.7
2018-Apr-18 12:30N 23°37' E 117°35'160288312.3
2018-Apr-18 12:30N 22°36' E 120°15'158189910.2
2018-Apr-18 12:30N 24°32' E 118°19'2530131.5
2018-Apr-18 12:30N 24°26' E 117°52'81029173.5
2018-Apr-18 12:29N 37°36' E 121°25'1124867.3
2018-Apr-18 12:27N 35°60' E 120°12'2411561.2
2018-Apr-18 12:18N 31°59' E 120°26'4731618.2
2018-Apr-18 12:00N 24°26' E 117°52'47356745.2
2018-Apr-18 12:00N 31°59' E 120°26'46047365.2
2018-Apr-18 11:59N 24°32' E 118°19'79963944.9
2018-Apr-18 11:59N 37°36' E 121°25'86221853.3
2018-Apr-18 11:56N 23°37' E 117°35'16013706.3
2018-Apr-18 11:56N 22°36' E 120°15'8042941.4
2018-Apr-18 11:39N 35°60' E 120°12'6944654.6
2018-Apr-18 11:30N 24°32' E 118°19'695260.3
2018-Apr-18 11:29N 23°37' E 117°35'5223320.6
2018-Apr-18 11:29N 24°26' E 117°52'17234329.1
2018-Apr-18 11:29N 22°36' E 120°15'902141156.7
2018-Apr-18 11:29N 37°36' E 121°25'1121400.6
2018-Apr-18 11:24N 35°60' E 120°12'7561940.3
2018-Apr-18 11:00N 23°37' E 117°35'6919023.3
2018-Apr-18 11:00N 24°32' E 118°19'15827130.8
2018-Apr-18 11:00N 22°36' E 120°15'17236348.5
2018-Apr-18 11:00N 24°26' E 117°52'8916880.4
2018-Apr-18 10:59N 22°57' E 117°54'89780761.7
2018-Apr-18 10:59N 37°36' E 121°25'1091446.4
2018-Apr-18 10:54N 36°02' E 120°15'2432807.5
2018-Apr-18 10:49N 31°59' E 120°26'4731536.3
2018-Apr-18 10:30N 24°26' E 117°52'2530131.5
2018-Apr-18 10:30N 24°32' E 118°19'6941253.9
2018-Apr-18 10:30N 23°37' E 117°35'86230727.0
2018-Apr-18 10:29N 37°36' E 121°25'902360731.3
2018-Apr-18 10:28N 22°36' E 120°15'158338.3
2018-Apr-18 10:00N 24°32' E 118°19'2518078.9
2018-Apr-18 10:00N 24°26' E 117°52'17261793.8
2018-Apr-18 10:00N 22°36' E 120°15'160287979.1
2018-Apr-18 10:00N 23°37' E 117°35'8623103092.4
2018-Apr-18 10:00N 37°36' E 121°25'10930252.0
2018-Apr-18 10:00N 35°59' E 120°21'792407476.5
2018-Apr-18 10:00N 22°57' E 117°54'89182.5
2018-Apr-18 09:30N 24°26' E 117°52'524559.3
2018-Apr-18 09:30N 23°37' E 117°35'16048011.9
2018-Apr-18 09:30N 22°36' E 120°15'9007332.2
2018-Apr-18 09:22N 37°34' E 121°23'1076231.6
2018-Apr-18 09:21N 35°59' E 120°22'7136154.9
2018-Apr-18 09:14N 24°15' E 118°09'50211.7
2018-Apr-18 09:00N 23°37' E 117°34'525641.2
2018-Apr-18 09:00N 24°17' E 118°10'1917013.5
2018-Apr-18 08:59N 24°26' E 117°52'17241194.9
2018-Apr-18 08:59N 22°36' E 120°15'90053127.6
2018-Apr-18 08:58N 37°34' E 121°23'107482.3
2018-Apr-18 08:45N 35°59' E 120°22'8033357.7
2018-Apr-18 08:31N 22°36' E 120°15'160144174.0
2018-Apr-18 08:30N 23°37' E 117°35'756108853.4
2018-Apr-18 08:30N 35°59' E 120°22'1073512.2
2018-Apr-18 08:28N 37°34' E 121°23'80919025.2
2018-Apr-18 08:26N 24°26' E 117°52'0 0.0
2018-Apr-18 08:00N 24°26' E 117°52'17232521.6
2018-Apr-18 08:00N 22°36' E 120°15'16014065.3
2018-Apr-18 07:59N 23°37' E 117°35'86055286.6
2018-Apr-18 07:58N 37°34' E 121°23'808323147.6
2018-Apr-18 07:58N 24°24' E 118°06'70510394.4
2018-Apr-18 07:54N 35°59' E 120°22'3302213.8
2018-Apr-18 07:45N 30°43' E 122°14'4391793.6
2018-Apr-18 07:30N 24°25' E 118°01'16542314.4
2018-Apr-18 07:30N 22°36' E 120°15'803180682.6
2018-Apr-18 07:30N 35°59' E 120°22'1073824.9
2018-Apr-18 07:28N 37°34' E 121°23'41252919.1
2018-Apr-18 07:28N 30°45' E 122°14'118249.1
2018-Apr-18 06:59N 31°59' E 120°27'33817656.8
2018-Apr-18 06:58N 37°34' E 121°23'9003240850.8
2018-Apr-18 06:58N 22°36' E 120°15'8015160.2
2018-Apr-18 06:49N 35°57' E 120°21'130849.5
2018-Apr-18 06:40N 38°07' E 120°07'9316073.5
2018-Apr-18 06:30N 22°36' E 120°15'90023829.5
2018-Apr-18 06:28N 37°34' E 121°23'3389517.6
2018-Apr-18 06:26N 31°59' E 120°26'1141459.4
2018-Apr-18 06:21N 30°51' E 122°13'44725933.6
2018-Apr-18 06:20N 38°07' E 120°11'310.4
2018-Apr-18 06:00N 38°06' E 120°15'9301674291.7
2018-Apr-18 06:00N 22°36' E 120°16'50922349.0
2018-Apr-18 05:59N 30°54' E 122°13'40226337.5
2018-Apr-18 05:58N 37°34' E 121°23'3385366.7
2018-Apr-18 05:54N 31°59' E 120°26'366907.5
2018-Apr-18 05:30N 38°05' E 120°22'43892686.3
2018-Apr-18 05:30N 30°57' E 122°13'39913820.0
2018-Apr-18 05:28N 37°34' E 121°23'90061146.9
2018-Apr-18 05:27N 22°36' E 120°15'56310671.7
2018-Apr-18 05:24N 31°59' E 120°26'5131892.0
2018-Apr-18 05:08N 23°48' E 117°35'412533.1
2018-Apr-18 05:07N 24°26' E 117°52'652308.9
2018-Apr-18 05:05N 23°21' E 117°45'1461869.6
2018-Apr-18 05:00N 22°36' E 120°15'928167075.3
2018-Apr-18 05:00N 38°04' E 120°28'43313436.3
2018-Apr-18 04:58N 30°59' E 122°10'495127378.1
2018-Apr-18 04:58N 23°48' E 117°35'849152782.8
2018-Apr-18 04:58N 37°34' E 121°23'809415849.0
2018-Apr-18 04:58N 24°26' E 117°52'6419317.6
2018-Apr-18 04:57N 23°22' E 117°44'5363933.4
2018-Apr-18 04:49N 31°59' E 120°26'5631813.6
2018-Apr-18 04:30N 22°36' E 120°15'165592388.1
2018-Apr-18 04:30N 23°48' E 117°35'417736.6
2018-Apr-18 04:30N 24°26' E 117°52'810728870.7
2018-Apr-18 04:30N 37°35' E 121°26'87165310.1
2018-Apr-18 04:29N 23°26' E 117°42'5332671.1
2018-Apr-18 04:17N 31°59' E 120°26'5632009.5
2018-Apr-18 04:00N 22°36' E 120°15'165592369.4
2018-Apr-18 04:00N 23°48' E 117°35'869312686.0
2018-Apr-18 04:00N 38°02' E 120°42'829271224.9
2018-Apr-18 04:00N 24°26' E 117°52'8132927897.1
2018-Apr-18 04:00N 37°39' E 121°25'3432291.3
2018-Apr-18 03:51N 31°59' E 120°26'46131279.7
2018-Apr-18 03:50N 24°32' E 118°19'60182.0
2018-Apr-18 03:30N 23°48' E 117°35'8693127770.7
2018-Apr-18 03:30N 38°01' E 120°48'8823176692.0
2018-Apr-18 03:30N 23°34' E 117°38'156280753.5
2018-Apr-18 03:30N 22°36' E 120°15'15851793.7
2018-Apr-18 03:30N 24°32' E 118°19'805362251.5
2018-Apr-18 03:30N 37°42' E 121°22'81638149.1
2018-Apr-18 03:29N 24°26' E 117°52'4731458.8
2018-Apr-18 03:09N 31°59' E 120°26'3612445.6
2018-Apr-18 03:00N 37°60' E 120°54'869240602.6
2018-Apr-18 03:00N 23°48' E 117°35'6072008.4
2018-Apr-18 03:00N 24°32' E 118°19'251674.0
2018-Apr-18 02:59N 24°26' E 117°52'50181729.3
2018-Apr-18 02:59N 23°38' E 117°36'523471044.6
2018-Apr-18 02:59N 31°59' E 120°26'349125562.8
2018-Apr-18 02:59N 37°45' E 121°19'91160728.5
2018-Apr-18 02:58N 22°36' E 120°15'162347.9
2018-Apr-18 02:30N 23°42' E 117°35'621881.5
2018-Apr-18 02:30N 23°48' E 117°35'6053977.3
2018-Apr-18 02:30N 24°32' E 118°19'15851793.7
2018-Apr-18 02:30N 22°36' E 120°15'172154477.5
2018-Apr-18 02:30N 24°26' E 117°52'47322400.0
2018-Apr-18 02:29N 31°59' E 120°26'5631197.6
2018-Apr-18 02:00N 22°36' E 120°15'16449250.7
2018-Apr-18 02:00N 23°46' E 117°34'4319445.9
2018-Apr-18 02:00N 24°26' E 117°52'826270245.3
2018-Apr-18 02:00N 37°55' E 121°05'866155936.4
2018-Apr-18 02:00N 23°48' E 117°35'5145442.8
2018-Apr-18 01:54N 31°59' E 120°26'4731208.2
2018-Apr-18 01:30N 24°26' E 117°52'43155579.0
2018-Apr-18 01:30N 23°46' E 117°35'16473660.2
2018-Apr-18 01:30N 22°36' E 120°15'563184324.8
2018-Apr-18 01:30N 31°59' E 120°26'35521656.3
2018-Apr-18 01:29N 37°52' E 121°09'39759622.4
2018-Apr-18 01:29N 31°15' E 121°32'54298.1
2018-Apr-18 01:18N 30°27' E 121°60'4521617.3
2018-Apr-18 01:01N 37°57' E 121°03'10981.3
2018-Apr-18 01:00N 37°49' E 121°13'8671561325.3
2018-Apr-18 01:00N 23°42' E 117°35'873136612.2
2018-Apr-18 01:00N 37°57' E 121°03'35923079.8
2018-Apr-18 00:59N 31°59' E 120°26'563168969.8
2018-Apr-18 00:59N 22°36' E 120°15'5392649.0
2018-Apr-18 00:47N 31°32' E 121°20'4641715.0
2018-Apr-18 00:30N 24°26' E 117°52'5089290.0
2018-Apr-18 00:30N 23°39' E 117°35'869347404.8
2018-Apr-18 00:30N 37°46' E 121°16'43840421.1
2018-Apr-18 00:30N 30°30' E 122°06'45146436.1
2018-Apr-18 00:29N 37°58' E 120°57'3602150.9
2018-Apr-18 00:19N 31°59' E 120°26'71785.1
2018-Apr-18 00:14N 31°14' E 121°30'3901781.3
2018-Apr-18 00:00N 37°43' E 121°20'909218231.0
2018-Apr-18 00:00N 22°36' E 120°15'17241195.9
2018-Apr-18 00:00N 24°26' E 117°52'5214295.6
2018-Apr-18 00:00N 23°37' E 117°35'87931331.1
2018-Apr-17 23:58N 37°60' E 120°51'40620876.7
2018-Apr-17 23:57N 31°15' E 121°30'69566.0
2018-Apr-17 23:50N 31°59' E 120°26'4731461.3
2018-Apr-17 23:30N 24°26' E 117°52'52185924.4
2018-Apr-17 23:30N 23°37' E 117°35'8791582218.7
2018-Apr-17 23:30N 38°00' E 120°46'92590005.7
2018-Apr-17 23:29N 22°36' E 120°15'563144828.1
2018-Apr-17 23:29N 31°59' E 120°26'34418780.4
2018-Apr-17 23:28N 37°40' E 121°24'4 8.6
2018-Apr-17 23:00N 37°36' E 121°26'903361127.7
2018-Apr-17 23:00N 22°36' E 120°15'160288323.5
2018-Apr-17 23:00N 23°37' E 117°35'879243460.7
2018-Apr-17 23:00N 38°02' E 120°39'828119233.5
2018-Apr-17 23:00N 24°26' E 117°52'4737845.1
2018-Apr-17 22:56N 31°59' E 120°26'5251231.9
2018-Apr-17 22:30N 23°37' E 117°35'16064071.0
2018-Apr-17 22:30N 22°36' E 120°15'927222460.4
2018-Apr-17 22:30N 38°03' E 120°33'82866248.4
2018-Apr-17 22:29N 24°26' E 117°52'809104039.4
2018-Apr-17 22:29N 37°35' E 121°23'3383437.0
2018-Apr-17 22:23N 31°60' E 120°27'4741265.9
2018-Apr-17 22:00N 24°26' E 117°52'828114710.8
2018-Apr-17 22:00N 38°04' E 120°28'880527717.4
2018-Apr-17 22:00N 23°37' E 117°35'16014059.9
2018-Apr-17 21:59N 22°36' E 120°15'901111824.7
2018-Apr-17 21:59N 37°35' E 121°24'3392455.0
2018-Apr-17 21:51N 31°59' E 120°26'114757.9
2018-Apr-17 21:41N 30°51' E 122°14'4502459.9
2018-Apr-17 21:31N 24°26' E 117°52'5293075.6
2018-Apr-17 21:30N 23°37' E 117°35'50214005.8
2018-Apr-17 21:28N 30°53' E 122°14'44221222.0
2018-Apr-17 21:27N 38°05' E 120°21'36632139.2
2018-Apr-17 21:26N 31°59' E 120°26'33936975.1
2018-Apr-17 21:26N 37°35' E 121°24'3732207.3
2018-Apr-17 21:16N 31°22' E 121°41'5312085.4
2018-Apr-17 21:00N 22°36' E 120°15'5632027849.8
2018-Apr-17 21:00N 31°59' E 120°26'11199751.3
2018-Apr-17 21:00N 30°57' E 122°14'505908747.8
2018-Apr-17 21:00N 23°37' E 117°35'526649.0
2018-Apr-17 21:00N 24°26' E 117°52'80949373.9
2018-Apr-17 20:59N 37°35' E 121°24'8091712.6
2018-Apr-17 20:30N 24°26' E 117°52'455148822.8
2018-Apr-17 20:30N 30°59' E 122°10'5061820241.0
2018-Apr-17 20:30N 23°37' E 117°35'1609006.4
2018-Apr-17 20:29N 22°36' E 120°15'90115896.6
2018-Apr-17 20:26N 37°35' E 121°24'8602034.6
2018-Apr-17 20:00N 23°37' E 117°34'161578516.4
2018-Apr-17 20:00N 22°36' E 120°15'17210841.0
2018-Apr-17 19:59N 24°26' E 117°52'80969358.6
2018-Apr-17 19:59N 37°35' E 121°24'3921505.0
2018-Apr-17 19:43N 31°04' E 122°02'5172451.3
2018-Apr-17 19:31N 22°36' E 120°15'518931874.2
2018-Apr-17 19:30N 31°05' E 121°60'45556517.7
2018-Apr-17 19:30N 24°26' E 117°52'473170.0
2018-Apr-17 19:29N 23°42' E 117°34'855162083.0
2018-Apr-17 19:29N 37°35' E 121°24'33910898.1
2018-Apr-17 19:27N 31°59' E 120°26'71172.9
2018-Apr-17 19:02N 31°16' E 121°33'52516282.1
2018-Apr-17 19:00N 22°36' E 120°15'172617952.0
2018-Apr-17 19:00N 24°26' E 117°52'45525223.3
2018-Apr-17 18:59N 31°08' E 121°55'38860726.9
2018-Apr-17 18:59N 37°35' E 121°24'3393186.4
2018-Apr-17 18:52N 31°59' E 120°26'0 1.5
2018-Apr-17 18:48N 31°59' E 120°26'711385.3
2018-Apr-17 18:45N 31°16' E 121°33'5252139.0
2018-Apr-17 18:30N 22°36' E 120°15'17224718.1
2018-Apr-17 18:30N 24°26' E 117°52'4173389.7
2018-Apr-17 18:30N 23°48' E 117°35'51418673.7
2018-Apr-17 18:28N 31°59' E 120°26'3398840.8
2018-Apr-17 18:26N 37°35' E 121°24'3397396.2
2018-Apr-17 18:23N 31°59' E 120°26'711983.9
2018-Apr-17 18:21N 31°16' E 121°33'71208.7
2018-Apr-17 18:00N 31°59' E 120°26'5631014012.9
2018-Apr-17 18:00N 22°36' E 120°15'17222070.2
2018-Apr-17 18:00N 24°26' E 117°52'45739182.0
2018-Apr-17 17:59N 31°13' E 121°48'49894329.6
2018-Apr-17 17:59N 23°48' E 117°35'84916264.0
2018-Apr-17 17:56N 37°35' E 121°24'3396973.5
2018-Apr-17 17:53N 31°59' E 120°26'5631506.4
2018-Apr-17 17:30N 22°36' E 120°15'165197456.8
2018-Apr-17 17:30N 23°48' E 117°35'84931198.8
2018-Apr-17 17:29N 37°35' E 121°24'809291306.0
2018-Apr-17 17:29N 24°26' E 117°52'473100141.0
2018-Apr-17 17:28N 31°59' E 120°26'811595.7
2018-Apr-17 17:25N 31°15' E 121°46'8113209.0
2018-Apr-17 17:25N 31°59' E 120°26'5131258.4
2018-Apr-17 17:00N 23°48' E 117°35'165148090.1
2018-Apr-17 17:00N 22°36' E 120°15'17218174.6
2018-Apr-17 17:00N 24°26' E 117°52'47334742.8
2018-Apr-17 16:59N 31°59' E 120°26'339110942.6
2018-Apr-17 16:59N 37°35' E 121°24'339915.2
2018-Apr-17 16:37N 31°59' E 120°26'7614468.3
2018-Apr-17 16:36N 31°18' E 121°42'4604758.9
2018-Apr-17 16:31N 24°26' E 117°52'172123590.4
2018-Apr-17 16:30N 22°36' E 120°15'16434815.9
2018-Apr-17 16:30N 23°48' E 117°35'51424039.2
2018-Apr-17 16:29N 31°59' E 120°26'339406682.5
2018-Apr-17 16:29N 37°35' E 121°24'3393457.1
2018-Apr-17 16:23N 31°59' E 120°26'751534.1
2018-Apr-17 16:20N 31°19' E 121°41'5291624.1
2018-Apr-17 16:00N 22°36' E 120°15'530381707.5
2018-Apr-17 16:00N 31°21' E 121°40'502361665.8
2018-Apr-17 16:00N 23°48' E 117°35'514264439.9
2018-Apr-17 16:00N 31°59' E 120°26'47334055.0
2018-Apr-17 15:59N 24°26' E 117°52'80991033.8
2018-Apr-17 15:59N 37°35' E 121°24'33926529.8
2018-Apr-17 15:58N 31°59' E 120°26'5151112.6
2018-Apr-17 15:30N 23°47' E 117°35'8501020595.4
2018-Apr-17 15:30N 37°35' E 121°24'809582620.4
2018-Apr-17 15:30N 24°26' E 117°52'47360800.6
2018-Apr-17 15:30N 31°59' E 120°26'563337939.5
2018-Apr-17 15:30N 22°36' E 120°15'53153105.8
2018-Apr-17 15:29N 31°22' E 121°37'71578.5
2018-Apr-17 15:22N 31°59' E 120°26'46114418.9
2018-Apr-17 15:20N 24°32' E 118°19'63194.9
2018-Apr-17 15:00N 23°45' E 117°34'6375088.6
2018-Apr-17 15:00N 24°32' E 118°19'158284889.3
2018-Apr-17 15:00N 22°36' E 120°15'901405443.7
2018-Apr-17 15:00N 37°35' E 121°24'80966228.2
2018-Apr-17 14:59N 24°26' E 117°52'473212802.2
2018-Apr-17 14:59N 31°59' E 120°26'0 2.3
2018-Apr-17 14:57N 31°59' E 120°26'5201185.4
2018-Apr-17 14:30N 23°41' E 117°35'161580766.6
2018-Apr-17 14:30N 22°36' E 120°15'158142444.6
2018-Apr-17 14:30N 24°32' E 118°19'8012883219.2
2018-Apr-17 14:30N 37°37' E 121°27'812224858.0
2018-Apr-17 14:30N 24°26' E 117°52'47312704.6
2018-Apr-17 14:28N 31°59' E 120°26'0 0.3
2018-Apr-17 14:09N 31°59' E 120°26'3432350.3
2018-Apr-17 14:00N 37°39' E 121°25'80393214.9
2018-Apr-17 14:00N 24°32' E 118°19'158142448.6
2018-Apr-17 14:00N 22°36' E 120°15'56347155.4
2018-Apr-17 13:59N 31°59' E 120°26'52449612.0
2018-Apr-17 13:58N 23°38' E 117°35'5120320.7
2018-Apr-17 13:58N 24°26' E 117°52'4731098.5
2018-Apr-17 13:32N 31°59' E 120°26'46113265.2
2018-Apr-17 13:30N 24°32' E 118°19'8052899055.4
2018-Apr-17 13:30N 37°43' E 121°20'868520579.4
2018-Apr-17 13:30N 23°37' E 117°35'52511242.3
2018-Apr-17 13:27N 31°59' E 120°26'013.0
2018-Apr-17 13:27N 31°59' E 120°26'473106398.5
2018-Apr-17 13:27N 24°26' E 117°52'4543325.2
2018-Apr-17 13:18N 31°15' E 121°33'71237.5
2018-Apr-17 13:00N 31°59' E 120°26'461331622.3
2018-Apr-17 13:00N 24°32' E 118°19'15863308.7
2018-Apr-17 13:00N 22°36' E 120°15'9111640511.3
2018-Apr-17 13:00N 37°46' E 121°15'870223656.3
2018-Apr-17 13:00N 23°37' E 117°35'529790.9
2018-Apr-17 13:00N 24°26' E 117°52'45211532.6
2018-Apr-17 12:57N 31°15' E 121°30'70511.3
2018-Apr-17 12:49N 31°59' E 120°26'5631815.3
2018-Apr-17 12:31N 22°36' E 120°15'172308976.0
2018-Apr-17 12:30N 24°26' E 117°52'52185965.5
2018-Apr-17 12:30N 23°37' E 117°35'525377721.3
2018-Apr-17 12:30N 31°59' E 120°26'0 8.5
2018-Apr-17 12:30N 31°59' E 120°26'460552585.4
2018-Apr-17 12:30N 24°32' E 118°19'44914695.6
2018-Apr-17 12:28N 31°32' E 121°21'2115168.0
2018-Apr-17 12:28N 31°12' E 121°29'398239026.4
2018-Apr-17 12:28N 37°50' E 121°11'9152022.3
2018-Apr-17 12:00N 22°36' E 120°15'918300304.6
2018-Apr-17 12:00N 37°52' E 121°06'87585089.4
2018-Apr-17 12:00N 23°37' E 117°35'52560918.6
2018-Apr-17 11:59N 31°59' E 120°26'47319567.5
2018-Apr-17 11:58N 24°26' E 117°52'25869.2
2018-Apr-17 11:56N 24°32' E 118°19'4613535.4
2018-Apr-17 11:48N 31°59' E 120°26'5631916.8
2018-Apr-17 11:30N 22°36' E 120°15'921828884.7
2018-Apr-17 11:30N 37°56' E 121°01'82684947.2
2018-Apr-17 11:30N 24°26' E 117°52'5293034.1
2018-Apr-17 11:30N 23°37' E 117°35'6910738.4
2018-Apr-17 11:29N 24°32' E 118°19'46115212.0
2018-Apr-17 11:28N 31°59' E 120°26'5251161.6
2018-Apr-17 11:00N 23°37' E 117°34'16082409.0
2018-Apr-17 11:00N 22°36' E 120°15'923184643.8
2018-Apr-17 11:00N 37°58' E 120°56'3602054.7
2018-Apr-17 10:50N 31°59' E 120°26'4735097.6
2018-Apr-17 10:44N 24°26' E 117°52'172762.9
2018-Apr-17 10:30N 22°36' E 120°15'924665292.3
2018-Apr-17 10:30N 37°59' E 120°50'12827191.4
2018-Apr-17 10:30N 35°54' E 120°17'75096442.1
2018-Apr-17 10:30N 23°37' E 117°34'52546068.5
2018-Apr-17 10:29N 31°59' E 120°26'4735911.8
2018-Apr-17 10:24N 24°26' E 117°52'8272087.0
2018-Apr-17 10:00N 38°00' E 120°43'879632525.5
2018-Apr-17 10:00N 23°37' E 117°34'525472202.0
2018-Apr-17 10:00N 31°59' E 120°26'56353363.9
2018-Apr-17 10:00N 22°36' E 120°15'1725775.0
2018-Apr-17 09:58N 24°26' E 117°52'52113.6
2018-Apr-17 09:30N 23°37' E 117°34'879790869.3
2018-Apr-17 09:30N 38°01' E 120°37'926185172.9
2018-Apr-17 09:30N 22°36' E 120°15'56365412.4
2018-Apr-17 09:30N 31°59' E 120°26'24287291.3
2018-Apr-17 09:29N 36°01' E 120°18'707508762.6
2018-Apr-17 09:29N 24°26' E 117°52'4732133.1
2018-Apr-17 09:16N 31°59' E 120°26'5252022.1
2018-Apr-17 09:00N 23°37' E 117°34'52589951.2
2018-Apr-17 09:00N 31°59' E 120°26'363435920.7
2018-Apr-17 09:00N 38°02' E 120°31'827212773.0
2018-Apr-17 09:00N 24°26' E 117°52'17229425.0
2018-Apr-17 08:59N 22°36' E 120°15'805414189.8
2018-Apr-17 08:59N 36°01' E 120°14'7571571.4
2018-Apr-17 08:30N 23°37' E 117°34'878790632.7
2018-Apr-17 08:30N 38°03' E 120°26'92792733.6
2018-Apr-17 08:30N 22°36' E 120°15'17216260.8
2018-Apr-17 08:29N 24°26' E 117°52'70565043.6
2018-Apr-17 08:29N 36°00' E 120°13'8041724.7
2018-Apr-17 08:01N 22°36' E 120°15'16238906.6
2018-Apr-17 08:00N 23°42' E 117°35'873241815.8
2018-Apr-17 08:00N 38°04' E 120°20'8287009.8
2018-Apr-17 07:53N 24°26' E 117°52'7043138.0
2018-Apr-17 07:40N 35°60' E 120°12'8045311.1
2018-Apr-17 07:30N 22°36' E 120°15'9291114603.3
2018-Apr-17 07:30N 38°05' E 120°15'870626594.2
2018-Apr-17 07:30N 23°45' E 117°35'441573.3
2018-Apr-17 07:29N 24°26' E 117°52'7047122.2
2018-Apr-17 07:23N 35°60' E 120°12'8042148.9
2018-Apr-17 07:00N 22°36' E 120°15'9301673321.4
2018-Apr-17 07:00N 38°05' E 120°10'870626636.8
2018-Apr-17 07:00N 23°45' E 117°35'443277.8
2018-Apr-17 06:59N 24°26' E 117°52'7042700.2
2018-Apr-17 06:44N 35°60' E 120°12'7473396.1
2018-Apr-17 06:30N 23°45' E 117°35'163293937.7
2018-Apr-17 06:30N 22°36' E 120°15'17236347.6
2018-Apr-17 06:30N 24°26' E 117°52'82864812.9
2018-Apr-17 06:29N 38°06' E 120°05'3682444.2
2018-Apr-17 06:20N 31°59' E 120°26'5631699.4
2018-Apr-17 06:00N 22°36' E 120°15'163293969.5
2018-Apr-17 06:00N 23°45' E 117°35'4419649.2
2018-Apr-17 06:00N 24°26' E 117°52'473154761.5
2018-Apr-17 06:00N 31°59' E 120°26'370962.9
2018-Apr-17 05:37N 38°08' E 119°56'9338586.9
2018-Apr-17 05:31N 22°36' E 120°15'16316798.0
2018-Apr-17 05:30N 23°45' E 117°35'444031.6
2018-Apr-17 05:29N 24°26' E 117°52'82985283.9
2018-Apr-17 05:29N 38°09' E 119°55'3714054.4
2018-Apr-17 05:23N 31°59' E 120°26'4731245.3
2018-Apr-17 05:00N 24°26' E 117°52'17251490.2
2018-Apr-17 05:00N 22°36' E 120°15'16315472.3
2018-Apr-17 05:00N 23°45' E 117°35'51644261.4
2018-Apr-17 04:59N 31°59' E 120°26'4614554.4
2018-Apr-17 04:53N 24°32' E 118°19'8204050.7
2018-Apr-17 04:41N 38°09' E 119°47'8204755.2
2018-Apr-17 04:30N 24°32' E 118°19'6244503.2
2018-Apr-17 04:30N 23°45' E 117°35'163293982.5
2018-Apr-17 04:30N 22°36' E 120°15'17225745.1
2018-Apr-17 04:30N 24°26' E 117°52'7045788.8
2018-Apr-17 04:23N 35°60' E 120°12'24119294.0
2018-Apr-17 04:22N 31°59' E 120°26'5631586.5
2018-Apr-17 04:00N 22°36' E 120°15'15881385.5
2018-Apr-17 04:00N 24°32' E 118°19'2530131.5
2018-Apr-17 04:00N 24°26' E 117°52'4452344.2
2018-Apr-17 04:00N 23°45' E 117°35'51611404.4
2018-Apr-17 03:58N 31°59' E 120°26'2412953.2
2018-Apr-17 03:53N 35°60' E 120°12'6941868.4
2018-Apr-17 03:30N 24°32' E 118°19'15837981.0
2018-Apr-17 03:30N 22°36' E 120°15'17288270.8
2018-Apr-17 03:30N 24°26' E 117°52'442212.3
2018-Apr-17 03:29N 23°45' E 117°35'51646474.0
2018-Apr-17 03:28N 31°59' E 120°26'5161119.9
2018-Apr-17 03:00N 23°45' E 117°35'163587964.9
2018-Apr-17 03:00N 22°36' E 120°15'1727021.4
2018-Apr-17 02:59N 24°26' E 117°52'47329351.7
2018-Apr-17 02:58N 31°59' E 120°26'241705.9
2018-Apr-17 02:38N 35°60' E 120°12'7476343.2
2018-Apr-17 02:30N 23°45' E 117°35'16341994.9
2018-Apr-17 02:30N 22°36' E 120°15'17224714.7
2018-Apr-17 02:30N 24°26' E 117°52'4733783.1
2018-Apr-17 02:22N 31°59' E 120°26'2412516.6
2018-Apr-17 02:17N 35°60' E 120°12'7472784.2
2018-Apr-17 02:00N 23°45' E 117°35'444029.1
2018-Apr-17 02:00N 24°26' E 117°52'172617881.9
2018-Apr-17 02:00N 22°36' E 120°15'56318773.6
2018-Apr-17 01:58N 31°59' E 120°26'2411197.6
2018-Apr-17 01:46N 35°60' E 120°12'8043125.8
2018-Apr-17 01:30N 22°36' E 120°15'163587776.6
2018-Apr-17 01:30N 23°45' E 117°35'444028.5
2018-Apr-17 01:30N 24°26' E 117°52'91331.9
2018-Apr-17 01:29N 24°25' E 118°01'47170710.8
2018-Apr-17 01:29N 31°59' E 120°26'473993.8
2018-Apr-17 01:00N 24°26' E 117°52'172617688.1
2018-Apr-17 01:00N 22°36' E 120°15'  

Dump ship's entire track history